<?xml version="1.0" encoding="UTF-8" standalone="no" ?>
<gpx xmlns="http://www.topografix.com/GPX/1/1" xmlns:xsi="http://www.w3.org/2001/XMLSchema-instance" xsi:schemaLocation="http://www.topografix.com/GPX/1/1 http://www.topografix.com/GPX/1/1/gpx.xsd" version="1.1" creator="VisuGPX - https://www.visugpx.com">
  <metadata>
    <name>Vosges-Juin2021</name>
  </metadata>
  <trk>
    <name><![CDATA[2021-06-12_15-59_Sat]]></name>
    <extensions>
      <line xmlns="http://www.topografix.com/GPX/gpx_style/0/2">
        <color>008800</color>
        <width>4</width>
      </line>
    </extensions>
    <trkseg>
      <trkpt lat="47.85924" lon="5.3327">
        <ele>469.26</ele>
        <time>2021-06-23T09:02:45Z</time>
      </trkpt>
      <trkpt lat="47.85924" lon="5.3327">
        <ele>469.26</ele>
        <time>2021-06-23T09:02:45Z</time>
      </trkpt>
      <trkpt lat="47.85946" lon="5.33158">
        <ele>469.46</ele>
        <time>2021-06-23T09:02:51Z</time>
      </trkpt>
      <trkpt lat="47.8596" lon="5.331">
        <ele>466.61</ele>
        <time>2021-06-23T09:02:57Z</time>
      </trkpt>
      <trkpt lat="47.8597" lon="5.33069">
        <ele>465.51</ele>
        <time>2021-06-23T09:03:04Z</time>
      </trkpt>
      <trkpt lat="47.85981" lon="5.33045">
        <ele>464.8</ele>
        <time>2021-06-23T09:03:10Z</time>
      </trkpt>
      <trkpt lat="47.8599" lon="5.33032">
        <ele>464.91</ele>
        <time>2021-06-23T09:03:16Z</time>
      </trkpt>
      <trkpt lat="47.85999" lon="5.33023">
        <ele>465.15</ele>
        <time>2021-06-23T09:03:22Z</time>
      </trkpt>
      <trkpt lat="47.86014" lon="5.33014">
        <ele>465.23</ele>
        <time>2021-06-23T09:03:28Z</time>
      </trkpt>
      <trkpt lat="47.86027" lon="5.33011">
        <ele>465.22</ele>
        <time>2021-06-23T09:03:35Z</time>
      </trkpt>
      <trkpt lat="47.86039" lon="5.33011">
        <ele>464.55</ele>
        <time>2021-06-23T09:03:41Z</time>
      </trkpt>
      <trkpt lat="47.86144" lon="5.33046">
        <ele>462.58</ele>
        <time>2021-06-23T09:03:47Z</time>
      </trkpt>
      <trkpt lat="47.86247" lon="5.33065">
        <ele>462.93</ele>
        <time>2021-06-23T09:03:53Z</time>
      </trkpt>
      <trkpt lat="47.86252" lon="5.33066">
        <ele>462.55</ele>
        <time>2021-06-23T09:04:00Z</time>
      </trkpt>
      <trkpt lat="47.86263" lon="5.33061">
        <ele>461.06</ele>
        <time>2021-06-23T09:04:06Z</time>
      </trkpt>
      <trkpt lat="47.86268" lon="5.33056">
        <ele>460.08</ele>
        <time>2021-06-23T09:04:12Z</time>
      </trkpt>
      <trkpt lat="47.86293" lon="5.33056">
        <ele>457.89</ele>
        <time>2021-06-23T09:04:18Z</time>
      </trkpt>
      <trkpt lat="47.86347" lon="5.33049">
        <ele>459.45</ele>
        <time>2021-06-23T09:04:24Z</time>
      </trkpt>
      <trkpt lat="47.86357" lon="5.33033">
        <ele>457.51</ele>
        <time>2021-06-23T09:04:30Z</time>
      </trkpt>
      <trkpt lat="47.86406" lon="5.3303">
        <ele>460.57</ele>
        <time>2021-06-23T09:04:36Z</time>
      </trkpt>
      <trkpt lat="47.86484" lon="5.33017">
        <ele>457.48</ele>
        <time>2021-06-23T09:04:42Z</time>
      </trkpt>
      <trkpt lat="47.86568" lon="5.32998">
        <ele>449.23</ele>
        <time>2021-06-23T09:04:48Z</time>
      </trkpt>
      <trkpt lat="47.86652" lon="5.32976">
        <ele>444.87</ele>
        <time>2021-06-23T09:04:53Z</time>
      </trkpt>
      <trkpt lat="47.8669" lon="5.3297">
        <ele>442.11</ele>
        <time>2021-06-23T09:04:59Z</time>
      </trkpt>
      <trkpt lat="47.86705" lon="5.32972">
        <ele>441.22</ele>
        <time>2021-06-23T09:05:05Z</time>
      </trkpt>
      <trkpt lat="47.8672" lon="5.32977">
        <ele>440.57</ele>
        <time>2021-06-23T09:05:11Z</time>
      </trkpt>
      <trkpt lat="47.86743" lon="5.32991">
        <ele>439.68</ele>
        <time>2021-06-23T09:05:17Z</time>
      </trkpt>
      <trkpt lat="47.86761" lon="5.33008">
        <ele>438.87</ele>
        <time>2021-06-23T09:05:22Z</time>
      </trkpt>
      <trkpt lat="47.86773" lon="5.33023">
        <ele>437.68</ele>
        <time>2021-06-23T09:05:28Z</time>
      </trkpt>
      <trkpt lat="47.8679" lon="5.33051">
        <ele>436.16</ele>
        <time>2021-06-23T09:05:34Z</time>
      </trkpt>
      <trkpt lat="47.86813" lon="5.33099">
        <ele>435.97</ele>
        <time>2021-06-23T09:05:40Z</time>
      </trkpt>
      <trkpt lat="47.86829" lon="5.3314">
        <ele>435.02</ele>
        <time>2021-06-23T09:05:46Z</time>
      </trkpt>
      <trkpt lat="47.86835" lon="5.33161">
        <ele>433.77</ele>
        <time>2021-06-23T09:05:51Z</time>
      </trkpt>
      <trkpt lat="47.86849" lon="5.33223">
        <ele>433.13</ele>
        <time>2021-06-23T09:05:57Z</time>
      </trkpt>
      <trkpt lat="47.86869" lon="5.33336">
        <ele>427.2</ele>
        <time>2021-06-23T09:06:03Z</time>
      </trkpt>
      <trkpt lat="47.86877" lon="5.33354">
        <ele>426.85</ele>
        <time>2021-06-23T09:06:09Z</time>
      </trkpt>
      <trkpt lat="47.86885" lon="5.33367">
        <ele>425.61</ele>
        <time>2021-06-23T09:06:15Z</time>
      </trkpt>
      <trkpt lat="47.86893" lon="5.33374">
        <ele>424.37</ele>
        <time>2021-06-23T09:06:20Z</time>
      </trkpt>
      <trkpt lat="47.869" lon="5.33377">
        <ele>423.44</ele>
        <time>2021-06-23T09:06:26Z</time>
      </trkpt>
      <trkpt lat="47.86917" lon="5.33376">
        <ele>420.93</ele>
        <time>2021-06-23T09:06:32Z</time>
      </trkpt>
      <trkpt lat="47.86934" lon="5.33363">
        <ele>419.19</ele>
        <time>2021-06-23T09:06:38Z</time>
      </trkpt>
      <trkpt lat="47.8694" lon="5.33348">
        <ele>418.39</ele>
        <time>2021-06-23T09:06:44Z</time>
      </trkpt>
      <trkpt lat="47.86942" lon="5.33339">
        <ele>418.17</ele>
        <time>2021-06-23T09:06:49Z</time>
      </trkpt>
      <trkpt lat="47.86944" lon="5.33313">
        <ele>416.54</ele>
        <time>2021-06-23T09:06:55Z</time>
      </trkpt>
      <trkpt lat="47.86929" lon="5.33204">
        <ele>415.43</ele>
        <time>2021-06-23T09:07:01Z</time>
      </trkpt>
      <trkpt lat="47.86928" lon="5.33183">
        <ele>415.74</ele>
        <time>2021-06-23T09:07:07Z</time>
      </trkpt>
      <trkpt lat="47.8693" lon="5.33158">
        <ele>415.47</ele>
        <time>2021-06-23T09:07:13Z</time>
      </trkpt>
      <trkpt lat="47.86935" lon="5.33135">
        <ele>414.1</ele>
        <time>2021-06-23T09:07:18Z</time>
      </trkpt>
      <trkpt lat="47.86993" lon="5.32918">
        <ele>399.5</ele>
        <time>2021-06-23T09:07:24Z</time>
      </trkpt>
      <trkpt lat="47.8703" lon="5.32801">
        <ele>393.68</ele>
        <time>2021-06-23T09:07:30Z</time>
      </trkpt>
      <trkpt lat="47.87037" lon="5.32788">
        <ele>392.43</ele>
        <time>2021-06-23T09:07:32Z</time>
      </trkpt>
      <trkpt lat="47.87037" lon="5.32788">
        <ele>392.43</ele>
        <time>2021-06-23T09:07:32Z</time>
      </trkpt>
      <trkpt lat="47.8704" lon="5.32785">
        <ele>392.07</ele>
        <time>2021-06-23T09:07:33Z</time>
      </trkpt>
      <trkpt lat="47.87048" lon="5.32782">
        <ele>391.11</ele>
        <time>2021-06-23T09:07:34Z</time>
      </trkpt>
      <trkpt lat="47.8706" lon="5.32785">
        <ele>390.39</ele>
        <time>2021-06-23T09:07:35Z</time>
      </trkpt>
      <trkpt lat="47.8717" lon="5.33008">
        <ele>379.35</ele>
        <time>2021-06-23T09:07:46Z</time>
      </trkpt>
      <trkpt lat="47.87271" lon="5.33217">
        <ele>368.03</ele>
        <time>2021-06-23T09:07:56Z</time>
      </trkpt>
      <trkpt lat="47.87285" lon="5.33249">
        <ele>366.48</ele>
        <time>2021-06-23T09:08:07Z</time>
      </trkpt>
      <trkpt lat="47.87288" lon="5.33277">
        <ele>367.24</ele>
        <time>2021-06-23T09:08:18Z</time>
      </trkpt>
      <trkpt lat="47.87287" lon="5.33289">
        <ele>367.35</ele>
        <time>2021-06-23T09:08:29Z</time>
      </trkpt>
      <trkpt lat="47.87284" lon="5.33304">
        <ele>367.58</ele>
        <time>2021-06-23T09:08:35Z</time>
      </trkpt>
      <trkpt lat="47.87286" lon="5.33314">
        <ele>367.43</ele>
        <time>2021-06-23T09:08:42Z</time>
      </trkpt>
      <trkpt lat="47.87293" lon="5.33323">
        <ele>366.89</ele>
        <time>2021-06-23T09:08:48Z</time>
      </trkpt>
      <trkpt lat="47.87301" lon="5.33324">
        <ele>366.34</ele>
        <time>2021-06-23T09:08:55Z</time>
      </trkpt>
      <trkpt lat="47.87306" lon="5.33321">
        <ele>365.97</ele>
        <time>2021-06-23T09:09:01Z</time>
      </trkpt>
      <trkpt lat="47.87325" lon="5.33331">
        <ele>364.51</ele>
        <time>2021-06-23T09:09:08Z</time>
      </trkpt>
      <trkpt lat="47.8734" lon="5.33344">
        <ele>363.38</ele>
        <time>2021-06-23T09:09:14Z</time>
      </trkpt>
      <trkpt lat="47.87412" lon="5.3345">
        <ele>363.18</ele>
        <time>2021-06-23T09:09:20Z</time>
      </trkpt>
      <trkpt lat="47.87468" lon="5.33539">
        <ele>358.2</ele>
        <time>2021-06-23T09:09:27Z</time>
      </trkpt>
      <trkpt lat="47.87514" lon="5.33614">
        <ele>355.96</ele>
        <time>2021-06-23T09:09:33Z</time>
      </trkpt>
      <trkpt lat="47.87637" lon="5.33831">
        <ele>344.88</ele>
        <time>2021-06-23T09:09:40Z</time>
      </trkpt>
      <trkpt lat="47.87687" lon="5.33914">
        <ele>338.67</ele>
        <time>2021-06-23T09:09:46Z</time>
      </trkpt>
      <trkpt lat="47.8774" lon="5.33969">
        <ele>334.7</ele>
        <time>2021-06-23T09:09:53Z</time>
      </trkpt>
      <trkpt lat="47.87781" lon="5.34002">
        <ele>332.99</ele>
        <time>2021-06-23T09:09:59Z</time>
      </trkpt>
      <trkpt lat="47.878" lon="5.34011">
        <ele>332.68</ele>
        <time>2021-06-23T09:10:06Z</time>
      </trkpt>
      <trkpt lat="47.8782" lon="5.34016">
        <ele>332.93</ele>
        <time>2021-06-23T09:10:12Z</time>
      </trkpt>
      <trkpt lat="47.8786" lon="5.34021">
        <ele>335.13</ele>
        <time>2021-06-23T09:10:19Z</time>
      </trkpt>
      <trkpt lat="47.8788" lon="5.34027">
        <ele>335.01</ele>
        <time>2021-06-23T09:10:25Z</time>
      </trkpt>
      <trkpt lat="47.87898" lon="5.34039">
        <ele>334.2</ele>
        <time>2021-06-23T09:10:31Z</time>
      </trkpt>
      <trkpt lat="47.87951" lon="5.341">
        <ele>333.17</ele>
        <time>2021-06-23T09:10:38Z</time>
      </trkpt>
      <trkpt lat="47.88026" lon="5.34196">
        <ele>333.91</ele>
        <time>2021-06-23T09:10:44Z</time>
      </trkpt>
      <trkpt lat="47.8804" lon="5.34211">
        <ele>333.22</ele>
        <time>2021-06-23T09:10:51Z</time>
      </trkpt>
      <trkpt lat="47.8805" lon="5.34227">
        <ele>333.33</ele>
        <time>2021-06-23T09:10:57Z</time>
      </trkpt>
      <trkpt lat="47.88054" lon="5.3424">
        <ele>334.24</ele>
        <time>2021-06-23T09:11:04Z</time>
      </trkpt>
      <trkpt lat="47.88052" lon="5.34263">
        <ele>335.71</ele>
        <time>2021-06-23T09:11:10Z</time>
      </trkpt>
      <trkpt lat="47.88044" lon="5.34288">
        <ele>336.76</ele>
        <time>2021-06-23T09:11:17Z</time>
      </trkpt>
      <trkpt lat="47.88016" lon="5.34364">
        <ele>336.62</ele>
        <time>2021-06-23T09:11:23Z</time>
      </trkpt>
      <trkpt lat="47.88001" lon="5.34395">
        <ele>334.39</ele>
        <time>2021-06-23T09:11:29Z</time>
      </trkpt>
      <trkpt lat="47.87992" lon="5.34414">
        <ele>333.7</ele>
        <time>2021-06-23T09:11:36Z</time>
      </trkpt>
      <trkpt lat="47.87984" lon="5.34433">
        <ele>333.24</ele>
        <time>2021-06-23T09:11:42Z</time>
      </trkpt>
      <trkpt lat="47.8798" lon="5.34452">
        <ele>333.11</ele>
        <time>2021-06-23T09:11:49Z</time>
      </trkpt>
      <trkpt lat="47.87977" lon="5.34475">
        <ele>334.27</ele>
        <time>2021-06-23T09:11:55Z</time>
      </trkpt>
      <trkpt lat="47.87976" lon="5.34502">
        <ele>336.8</ele>
        <time>2021-06-23T09:12:02Z</time>
      </trkpt>
      <trkpt lat="47.87981" lon="5.3461">
        <ele>339.1</ele>
        <time>2021-06-23T09:12:08Z</time>
      </trkpt>
      <trkpt lat="47.87985" lon="5.34714">
        <ele>342.82</ele>
        <time>2021-06-23T09:12:15Z</time>
      </trkpt>
      <trkpt lat="47.87985" lon="5.3476">
        <ele>343.51</ele>
        <time>2021-06-23T09:12:21Z</time>
      </trkpt>
      <trkpt lat="47.87984" lon="5.34777">
        <ele>343.67</ele>
        <time>2021-06-23T09:12:27Z</time>
      </trkpt>
      <trkpt lat="47.8798" lon="5.34806">
        <ele>343.85</ele>
        <time>2021-06-23T09:12:34Z</time>
      </trkpt>
      <trkpt lat="47.87959" lon="5.34913">
        <ele>341.95</ele>
        <time>2021-06-23T09:12:40Z</time>
      </trkpt>
      <trkpt lat="47.87956" lon="5.34954">
        <ele>341.67</ele>
        <time>2021-06-23T09:12:47Z</time>
      </trkpt>
      <trkpt lat="47.87958" lon="5.34986">
        <ele>342.4</ele>
        <time>2021-06-23T09:12:53Z</time>
      </trkpt>
      <trkpt lat="47.87966" lon="5.35024">
        <ele>343.24</ele>
        <time>2021-06-23T09:13:00Z</time>
      </trkpt>
      <trkpt lat="47.87975" lon="5.35044">
        <ele>343.44</ele>
        <time>2021-06-23T09:13:06Z</time>
      </trkpt>
      <trkpt lat="47.87988" lon="5.35066">
        <ele>344.61</ele>
        <time>2021-06-23T09:13:13Z</time>
      </trkpt>
      <trkpt lat="47.88002" lon="5.35081">
        <ele>345.54</ele>
        <time>2021-06-23T09:13:19Z</time>
      </trkpt>
      <trkpt lat="47.88049" lon="5.35121">
        <ele>348.22</ele>
        <time>2021-06-23T09:13:25Z</time>
      </trkpt>
      <trkpt lat="47.88182" lon="5.3521">
        <ele>356.77</ele>
        <time>2021-06-23T09:13:32Z</time>
      </trkpt>
      <trkpt lat="47.88236" lon="5.35255">
        <ele>359.28</ele>
        <time>2021-06-23T09:13:38Z</time>
      </trkpt>
      <trkpt lat="47.88284" lon="5.35308">
        <ele>361.7</ele>
        <time>2021-06-23T09:13:45Z</time>
      </trkpt>
      <trkpt lat="47.88346" lon="5.35384">
        <ele>359.7</ele>
        <time>2021-06-23T09:13:51Z</time>
      </trkpt>
      <trkpt lat="47.88425" lon="5.35487">
        <ele>360.3</ele>
        <time>2021-06-23T09:13:58Z</time>
      </trkpt>
      <trkpt lat="47.88462" lon="5.35527">
        <ele>360.31</ele>
        <time>2021-06-23T09:14:04Z</time>
      </trkpt>
      <trkpt lat="47.88568" lon="5.35618">
        <ele>369.55</ele>
        <time>2021-06-23T09:14:11Z</time>
      </trkpt>
      <trkpt lat="47.8859" lon="5.35642">
        <ele>367.25</ele>
        <time>2021-06-23T09:14:17Z</time>
      </trkpt>
      <trkpt lat="47.88619" lon="5.35681">
        <ele>365.57</ele>
        <time>2021-06-23T09:14:23Z</time>
      </trkpt>
      <trkpt lat="47.88642" lon="5.35723">
        <ele>366.43</ele>
        <time>2021-06-23T09:14:30Z</time>
      </trkpt>
      <trkpt lat="47.88655" lon="5.35755">
        <ele>367.9</ele>
        <time>2021-06-23T09:14:36Z</time>
      </trkpt>
      <trkpt lat="47.88666" lon="5.3579">
        <ele>367.42</ele>
        <time>2021-06-23T09:14:43Z</time>
      </trkpt>
      <trkpt lat="47.8868" lon="5.35842">
        <ele>369.99</ele>
        <time>2021-06-23T09:14:49Z</time>
      </trkpt>
      <trkpt lat="47.88706" lon="5.35963">
        <ele>370.28</ele>
        <time>2021-06-23T09:14:56Z</time>
      </trkpt>
      <trkpt lat="47.88719" lon="5.36008">
        <ele>372.42</ele>
        <time>2021-06-23T09:15:02Z</time>
      </trkpt>
      <trkpt lat="47.88746" lon="5.36083">
        <ele>374.7</ele>
        <time>2021-06-23T09:15:09Z</time>
      </trkpt>
      <trkpt lat="47.89204" lon="5.37155">
        <ele>385.28</ele>
        <time>2021-06-23T09:15:15Z</time>
      </trkpt>
      <trkpt lat="47.89629" lon="5.38144">
        <ele>387.04</ele>
        <time>2021-06-23T09:15:21Z</time>
      </trkpt>
      <trkpt lat="47.89904" lon="5.38792">
        <ele>389.95</ele>
        <time>2021-06-23T09:15:28Z</time>
      </trkpt>
      <trkpt lat="47.89912" lon="5.38825">
        <ele>390.33</ele>
        <time>2021-06-23T09:15:34Z</time>
      </trkpt>
      <trkpt lat="47.89916" lon="5.38874">
        <ele>392.13</ele>
        <time>2021-06-23T09:15:41Z</time>
      </trkpt>
      <trkpt lat="47.8992" lon="5.39096">
        <ele>391.41</ele>
        <time>2021-06-23T09:15:47Z</time>
      </trkpt>
      <trkpt lat="47.89927" lon="5.39161">
        <ele>389.22</ele>
        <time>2021-06-23T09:15:54Z</time>
      </trkpt>
      <trkpt lat="47.89937" lon="5.39202">
        <ele>386.64</ele>
        <time>2021-06-23T09:16:00Z</time>
      </trkpt>
      <trkpt lat="47.90008" lon="5.39367">
        <ele>381.77</ele>
        <time>2021-06-23T09:16:07Z</time>
      </trkpt>
      <trkpt lat="47.90102" lon="5.39579">
        <ele>390.68</ele>
        <time>2021-06-23T09:16:13Z</time>
      </trkpt>
      <trkpt lat="47.90126" lon="5.39621">
        <ele>389.81</ele>
        <time>2021-06-23T09:16:19Z</time>
      </trkpt>
      <trkpt lat="47.90168" lon="5.39679">
        <ele>388.28</ele>
        <time>2021-06-23T09:16:26Z</time>
      </trkpt>
      <trkpt lat="47.90168" lon="5.39679">
        <ele>388.28</ele>
        <time>2021-06-23T09:16:26Z</time>
      </trkpt>
      <trkpt lat="47.9025" lon="5.39784">
        <ele>387</ele>
        <time>2021-06-23T09:16:31Z</time>
      </trkpt>
      <trkpt lat="47.90294" lon="5.39824">
        <ele>387.05</ele>
        <time>2021-06-23T09:16:36Z</time>
      </trkpt>
      <trkpt lat="47.90462" lon="5.39951">
        <ele>385.2</ele>
        <time>2021-06-23T09:16:41Z</time>
      </trkpt>
      <trkpt lat="47.90633" lon="5.4008">
        <ele>375.45</ele>
        <time>2021-06-23T09:16:46Z</time>
      </trkpt>
      <trkpt lat="47.90787" lon="5.40155">
        <ele>364.16</ele>
        <time>2021-06-23T09:16:51Z</time>
      </trkpt>
      <trkpt lat="47.90809" lon="5.4016">
        <ele>363.85</ele>
        <time>2021-06-23T09:16:56Z</time>
      </trkpt>
      <trkpt lat="47.90828" lon="5.40159">
        <ele>362.98</ele>
        <time>2021-06-23T09:17:01Z</time>
      </trkpt>
      <trkpt lat="47.90843" lon="5.40153">
        <ele>361.47</ele>
        <time>2021-06-23T09:17:06Z</time>
      </trkpt>
      <trkpt lat="47.90851" lon="5.40148">
        <ele>360.25</ele>
        <time>2021-06-23T09:17:11Z</time>
      </trkpt>
      <trkpt lat="47.90893" lon="5.40109">
        <ele>352.69</ele>
        <time>2021-06-23T09:17:16Z</time>
      </trkpt>
      <trkpt lat="47.90911" lon="5.40096">
        <ele>351</ele>
        <time>2021-06-23T09:17:21Z</time>
      </trkpt>
      <trkpt lat="47.90946" lon="5.40083">
        <ele>348.92</ele>
        <time>2021-06-23T09:17:26Z</time>
      </trkpt>
      <trkpt lat="47.90976" lon="5.40082">
        <ele>346.92</ele>
        <time>2021-06-23T09:17:31Z</time>
      </trkpt>
      <trkpt lat="47.9101" lon="5.40089">
        <ele>345.23</ele>
        <time>2021-06-23T09:17:36Z</time>
      </trkpt>
      <trkpt lat="47.91025" lon="5.40098">
        <ele>344.64</ele>
        <time>2021-06-23T09:17:41Z</time>
      </trkpt>
      <trkpt lat="47.91033" lon="5.40106">
        <ele>344.28</ele>
        <time>2021-06-23T09:17:46Z</time>
      </trkpt>
      <trkpt lat="47.91061" lon="5.40145">
        <ele>342.01</ele>
        <time>2021-06-23T09:17:51Z</time>
      </trkpt>
      <trkpt lat="47.9107" lon="5.40155">
        <ele>342.03</ele>
        <time>2021-06-23T09:17:56Z</time>
      </trkpt>
      <trkpt lat="47.91079" lon="5.40161">
        <ele>341.97</ele>
        <time>2021-06-23T09:18:01Z</time>
      </trkpt>
      <trkpt lat="47.91096" lon="5.40169">
        <ele>341.54</ele>
        <time>2021-06-23T09:18:06Z</time>
      </trkpt>
      <trkpt lat="47.9112" lon="5.40172">
        <ele>340.94</ele>
        <time>2021-06-23T09:18:11Z</time>
      </trkpt>
      <trkpt lat="47.9132" lon="5.40163">
        <ele>341.27</ele>
        <time>2021-06-23T09:18:16Z</time>
      </trkpt>
      <trkpt lat="47.91334" lon="5.40169">
        <ele>339.97</ele>
        <time>2021-06-23T09:18:21Z</time>
      </trkpt>
      <trkpt lat="47.9135" lon="5.40183">
        <ele>339.03</ele>
        <time>2021-06-23T09:18:26Z</time>
      </trkpt>
      <trkpt lat="47.91359" lon="5.40195">
        <ele>338.2</ele>
        <time>2021-06-23T09:18:31Z</time>
      </trkpt>
      <trkpt lat="47.91366" lon="5.40215">
        <ele>339.55</ele>
        <time>2021-06-23T09:18:36Z</time>
      </trkpt>
      <trkpt lat="47.91397" lon="5.40378">
        <ele>339.6</ele>
        <time>2021-06-23T09:18:40Z</time>
      </trkpt>
      <trkpt lat="47.91449" lon="5.40687">
        <ele>342.21</ele>
        <time>2021-06-23T09:18:45Z</time>
      </trkpt>
      <trkpt lat="47.9147" lon="5.40776">
        <ele>342.02</ele>
        <time>2021-06-23T09:18:50Z</time>
      </trkpt>
      <trkpt lat="47.91473" lon="5.40786">
        <ele>342.65</ele>
        <time>2021-06-23T09:18:55Z</time>
      </trkpt>
      <trkpt lat="47.91489" lon="5.40816">
        <ele>344.3</ele>
        <time>2021-06-23T09:19:00Z</time>
      </trkpt>
      <trkpt lat="47.91504" lon="5.40834">
        <ele>344.29</ele>
        <time>2021-06-23T09:19:05Z</time>
      </trkpt>
      <trkpt lat="47.91516" lon="5.40844">
        <ele>345.56</ele>
        <time>2021-06-23T09:19:10Z</time>
      </trkpt>
      <trkpt lat="47.91531" lon="5.40852">
        <ele>347.29</ele>
        <time>2021-06-23T09:19:15Z</time>
      </trkpt>
      <trkpt lat="47.91561" lon="5.40858">
        <ele>352.3</ele>
        <time>2021-06-23T09:19:20Z</time>
      </trkpt>
      <trkpt lat="47.91701" lon="5.40843">
        <ele>363.05</ele>
        <time>2021-06-23T09:19:25Z</time>
      </trkpt>
      <trkpt lat="47.91766" lon="5.40839">
        <ele>365.33</ele>
        <time>2021-06-23T09:19:30Z</time>
      </trkpt>
      <trkpt lat="47.91792" lon="5.4084">
        <ele>364.82</ele>
        <time>2021-06-23T09:19:35Z</time>
      </trkpt>
      <trkpt lat="47.91814" lon="5.40846">
        <ele>365.35</ele>
        <time>2021-06-23T09:19:40Z</time>
      </trkpt>
      <trkpt lat="47.91833" lon="5.40855">
        <ele>366.64</ele>
        <time>2021-06-23T09:19:45Z</time>
      </trkpt>
      <trkpt lat="47.9185" lon="5.40866">
        <ele>369.03</ele>
        <time>2021-06-23T09:19:50Z</time>
      </trkpt>
      <trkpt lat="47.91866" lon="5.40881">
        <ele>371.12</ele>
        <time>2021-06-23T09:19:55Z</time>
      </trkpt>
      <trkpt lat="47.91884" lon="5.40903">
        <ele>372.73</ele>
        <time>2021-06-23T09:20:00Z</time>
      </trkpt>
      <trkpt lat="47.91969" lon="5.41021">
        <ele>380.57</ele>
        <time>2021-06-23T09:20:05Z</time>
      </trkpt>
      <trkpt lat="47.92092" lon="5.41173">
        <ele>386.49</ele>
        <time>2021-06-23T09:20:10Z</time>
      </trkpt>
      <trkpt lat="47.92128" lon="5.41227">
        <ele>387.59</ele>
        <time>2021-06-23T09:20:15Z</time>
      </trkpt>
      <trkpt lat="47.92146" lon="5.41259">
        <ele>388.93</ele>
        <time>2021-06-23T09:20:20Z</time>
      </trkpt>
      <trkpt lat="47.92168" lon="5.41309">
        <ele>393.28</ele>
        <time>2021-06-23T09:20:25Z</time>
      </trkpt>
      <trkpt lat="47.92268" lon="5.41557">
        <ele>395.36</ele>
        <time>2021-06-23T09:20:30Z</time>
      </trkpt>
      <trkpt lat="47.92316" lon="5.41658">
        <ele>396.27</ele>
        <time>2021-06-23T09:20:35Z</time>
      </trkpt>
      <trkpt lat="47.92604" lon="5.42221">
        <ele>402.95</ele>
        <time>2021-06-23T09:20:40Z</time>
      </trkpt>
      <trkpt lat="47.92753" lon="5.42508">
        <ele>402.82</ele>
        <time>2021-06-23T09:20:45Z</time>
      </trkpt>
      <trkpt lat="47.93147" lon="5.4326">
        <ele>411.11</ele>
        <time>2021-06-23T09:20:50Z</time>
      </trkpt>
      <trkpt lat="47.93172" lon="5.433">
        <ele>411.36</ele>
        <time>2021-06-23T09:20:55Z</time>
      </trkpt>
      <trkpt lat="47.93189" lon="5.4332">
        <ele>411.38</ele>
        <time>2021-06-23T09:21:00Z</time>
      </trkpt>
      <trkpt lat="47.93205" lon="5.43334">
        <ele>411.72</ele>
        <time>2021-06-23T09:21:05Z</time>
      </trkpt>
      <trkpt lat="47.93224" lon="5.43347">
        <ele>412.01</ele>
        <time>2021-06-23T09:21:10Z</time>
      </trkpt>
      <trkpt lat="47.93248" lon="5.43357">
        <ele>410.46</ele>
        <time>2021-06-23T09:21:15Z</time>
      </trkpt>
      <trkpt lat="47.93276" lon="5.43363">
        <ele>410.8</ele>
        <time>2021-06-23T09:21:20Z</time>
      </trkpt>
      <trkpt lat="47.9329" lon="5.43363">
        <ele>412.13</ele>
        <time>2021-06-23T09:21:25Z</time>
      </trkpt>
      <trkpt lat="47.93352" lon="5.43351">
        <ele>414.38</ele>
        <time>2021-06-23T09:21:30Z</time>
      </trkpt>
      <trkpt lat="47.93631" lon="5.43289">
        <ele>409.83</ele>
        <time>2021-06-23T09:21:35Z</time>
      </trkpt>
      <trkpt lat="47.93719" lon="5.43272">
        <ele>410.97</ele>
        <time>2021-06-23T09:21:40Z</time>
      </trkpt>
      <trkpt lat="47.93746" lon="5.43274">
        <ele>410.4</ele>
        <time>2021-06-23T09:21:45Z</time>
      </trkpt>
      <trkpt lat="47.93774" lon="5.43281">
        <ele>410.79</ele>
        <time>2021-06-23T09:21:50Z</time>
      </trkpt>
      <trkpt lat="47.93795" lon="5.4329">
        <ele>413.02</ele>
        <time>2021-06-23T09:21:55Z</time>
      </trkpt>
      <trkpt lat="47.93823" lon="5.43312">
        <ele>416.07</ele>
        <time>2021-06-23T09:22:00Z</time>
      </trkpt>
      <trkpt lat="47.93837" lon="5.43326">
        <ele>416.96</ele>
        <time>2021-06-23T09:22:05Z</time>
      </trkpt>
      <trkpt lat="47.93862" lon="5.43356">
        <ele>416.68</ele>
        <time>2021-06-23T09:22:10Z</time>
      </trkpt>
      <trkpt lat="47.93912" lon="5.43422">
        <ele>414.69</ele>
        <time>2021-06-23T09:22:15Z</time>
      </trkpt>
      <trkpt lat="47.93912" lon="5.43422">
        <ele>414.69</ele>
        <time>2021-06-23T09:22:15Z</time>
      </trkpt>
      <trkpt lat="47.93924" lon="5.43438">
        <ele>412.69</ele>
        <time>2021-06-23T09:22:22Z</time>
      </trkpt>
      <trkpt lat="47.93948" lon="5.4348">
        <ele>411.86</ele>
        <time>2021-06-23T09:22:30Z</time>
      </trkpt>
      <trkpt lat="47.93961" lon="5.43508">
        <ele>411.28</ele>
        <time>2021-06-23T09:22:37Z</time>
      </trkpt>
      <trkpt lat="47.93972" lon="5.43538">
        <ele>411</ele>
        <time>2021-06-23T09:22:45Z</time>
      </trkpt>
      <trkpt lat="47.93984" lon="5.43579">
        <ele>411.77</ele>
        <time>2021-06-23T09:22:52Z</time>
      </trkpt>
      <trkpt lat="47.93991" lon="5.43611">
        <ele>413.07</ele>
        <time>2021-06-23T09:23:00Z</time>
      </trkpt>
      <trkpt lat="47.94042" lon="5.43909">
        <ele>423.55</ele>
        <time>2021-06-23T09:23:07Z</time>
      </trkpt>
      <trkpt lat="47.94052" lon="5.4396">
        <ele>426.32</ele>
        <time>2021-06-23T09:23:15Z</time>
      </trkpt>
      <trkpt lat="47.94061" lon="5.43992">
        <ele>426.28</ele>
        <time>2021-06-23T09:23:22Z</time>
      </trkpt>
      <trkpt lat="47.94087" lon="5.44072">
        <ele>422.84</ele>
        <time>2021-06-23T09:23:29Z</time>
      </trkpt>
      <trkpt lat="47.94137" lon="5.44241">
        <ele>425.92</ele>
        <time>2021-06-23T09:23:37Z</time>
      </trkpt>
      <trkpt lat="47.94315" lon="5.44808">
        <ele>419.76</ele>
        <time>2021-06-23T09:23:44Z</time>
      </trkpt>
      <trkpt lat="47.94332" lon="5.44854">
        <ele>421.47</ele>
        <time>2021-06-23T09:23:52Z</time>
      </trkpt>
      <trkpt lat="47.94357" lon="5.44908">
        <ele>422.05</ele>
        <time>2021-06-23T09:23:59Z</time>
      </trkpt>
      <trkpt lat="47.94389" lon="5.44964">
        <ele>420.29</ele>
        <time>2021-06-23T09:24:07Z</time>
      </trkpt>
      <trkpt lat="47.94415" lon="5.44999">
        <ele>420</ele>
        <time>2021-06-23T09:24:14Z</time>
      </trkpt>
      <trkpt lat="47.94465" lon="5.45059">
        <ele>416.45</ele>
        <time>2021-06-23T09:24:22Z</time>
      </trkpt>
      <trkpt lat="47.94483" lon="5.45076">
        <ele>415.61</ele>
        <time>2021-06-23T09:24:29Z</time>
      </trkpt>
      <trkpt lat="47.94507" lon="5.45093">
        <ele>414.75</ele>
        <time>2021-06-23T09:24:37Z</time>
      </trkpt>
      <trkpt lat="47.94629" lon="5.45161">
        <ele>413.47</ele>
        <time>2021-06-23T09:24:44Z</time>
      </trkpt>
      <trkpt lat="47.94823" lon="5.45249">
        <ele>408.08</ele>
        <time>2021-06-23T09:24:51Z</time>
      </trkpt>
      <trkpt lat="47.94864" lon="5.45271">
        <ele>407.01</ele>
        <time>2021-06-23T09:24:59Z</time>
      </trkpt>
      <trkpt lat="47.94923" lon="5.45304">
        <ele>405.3</ele>
        <time>2021-06-23T09:25:06Z</time>
      </trkpt>
      <trkpt lat="47.94984" lon="5.4534">
        <ele>405.38</ele>
        <time>2021-06-23T09:25:14Z</time>
      </trkpt>
      <trkpt lat="47.95081" lon="5.454">
        <ele>401.73</ele>
        <time>2021-06-23T09:25:21Z</time>
      </trkpt>
      <trkpt lat="47.95103" lon="5.45418">
        <ele>400.29</ele>
        <time>2021-06-23T09:25:29Z</time>
      </trkpt>
      <trkpt lat="47.95123" lon="5.45438">
        <ele>400.24</ele>
        <time>2021-06-23T09:25:36Z</time>
      </trkpt>
      <trkpt lat="47.95134" lon="5.45454">
        <ele>399.72</ele>
        <time>2021-06-23T09:25:44Z</time>
      </trkpt>
      <trkpt lat="47.95173" lon="5.45519">
        <ele>392.3</ele>
        <time>2021-06-23T09:25:51Z</time>
      </trkpt>
      <trkpt lat="47.952" lon="5.4556">
        <ele>388.36</ele>
        <time>2021-06-23T09:25:59Z</time>
      </trkpt>
      <trkpt lat="47.95407" lon="5.45845">
        <ele>389.69</ele>
        <time>2021-06-23T09:26:06Z</time>
      </trkpt>
      <trkpt lat="47.95462" lon="5.45925">
        <ele>397.2</ele>
        <time>2021-06-23T09:26:13Z</time>
      </trkpt>
      <trkpt lat="47.95506" lon="5.46001">
        <ele>408.29</ele>
        <time>2021-06-23T09:26:21Z</time>
      </trkpt>
      <trkpt lat="47.95555" lon="5.46091">
        <ele>417.24</ele>
        <time>2021-06-23T09:26:28Z</time>
      </trkpt>
      <trkpt lat="47.95652" lon="5.46294">
        <ele>422.48</ele>
        <time>2021-06-23T09:26:36Z</time>
      </trkpt>
      <trkpt lat="47.95729" lon="5.46431">
        <ele>424.53</ele>
        <time>2021-06-23T09:26:43Z</time>
      </trkpt>
      <trkpt lat="47.96313" lon="5.47472">
        <ele>432.75</ele>
        <time>2021-06-23T09:26:51Z</time>
      </trkpt>
      <trkpt lat="47.96341" lon="5.47512">
        <ele>431.54</ele>
        <time>2021-06-23T09:26:58Z</time>
      </trkpt>
      <trkpt lat="47.96341" lon="5.47512">
        <ele>431.54</ele>
        <time>2021-06-23T09:26:58Z</time>
      </trkpt>
      <trkpt lat="47.96363" lon="5.47535">
        <ele>430.98</ele>
        <time>2021-06-23T09:27:11Z</time>
      </trkpt>
      <trkpt lat="47.96442" lon="5.47596">
        <ele>431.41</ele>
        <time>2021-06-23T09:27:24Z</time>
      </trkpt>
      <trkpt lat="47.965" lon="5.47633">
        <ele>428.47</ele>
        <time>2021-06-23T09:27:37Z</time>
      </trkpt>
      <trkpt lat="47.96584" lon="5.47684">
        <ele>422.78</ele>
        <time>2021-06-23T09:27:49Z</time>
      </trkpt>
      <trkpt lat="47.9673" lon="5.47756">
        <ele>429.84</ele>
        <time>2021-06-23T09:28:02Z</time>
      </trkpt>
      <trkpt lat="47.96783" lon="5.47791">
        <ele>430.57</ele>
        <time>2021-06-23T09:28:15Z</time>
      </trkpt>
      <trkpt lat="47.9701" lon="5.47975">
        <ele>428.74</ele>
        <time>2021-06-23T09:28:28Z</time>
      </trkpt>
      <trkpt lat="47.97279" lon="5.48212">
        <ele>433.01</ele>
        <time>2021-06-23T09:28:40Z</time>
      </trkpt>
      <trkpt lat="47.97332" lon="5.48248">
        <ele>431.11</ele>
        <time>2021-06-23T09:28:53Z</time>
      </trkpt>
      <trkpt lat="47.97445" lon="5.48304">
        <ele>428.02</ele>
        <time>2021-06-23T09:29:06Z</time>
      </trkpt>
      <trkpt lat="47.97647" lon="5.4838">
        <ele>424.17</ele>
        <time>2021-06-23T09:29:19Z</time>
      </trkpt>
      <trkpt lat="47.97851" lon="5.48454">
        <ele>430.33</ele>
        <time>2021-06-23T09:29:31Z</time>
      </trkpt>
      <trkpt lat="47.98916" lon="5.48533">
        <ele>427.97</ele>
        <time>2021-06-23T09:29:44Z</time>
      </trkpt>
      <trkpt lat="47.99615" lon="5.48589">
        <ele>428.13</ele>
        <time>2021-06-23T09:29:57Z</time>
      </trkpt>
      <trkpt lat="47.9971" lon="5.48597">
        <ele>430.51</ele>
        <time>2021-06-23T09:30:10Z</time>
      </trkpt>
      <trkpt lat="47.99728" lon="5.48601">
        <ele>430.49</ele>
        <time>2021-06-23T09:30:23Z</time>
      </trkpt>
      <trkpt lat="47.99772" lon="5.48615">
        <ele>430.88</ele>
        <time>2021-06-23T09:30:35Z</time>
      </trkpt>
      <trkpt lat="47.9982" lon="5.48641">
        <ele>431</ele>
        <time>2021-06-23T09:30:48Z</time>
      </trkpt>
      <trkpt lat="47.99943" lon="5.48725">
        <ele>432.01</ele>
        <time>2021-06-23T09:31:01Z</time>
      </trkpt>
      <trkpt lat="48.00016" lon="5.48781">
        <ele>431.06</ele>
        <time>2021-06-23T09:31:14Z</time>
      </trkpt>
      <trkpt lat="48.00067" lon="5.48816">
        <ele>429.82</ele>
        <time>2021-06-23T09:31:26Z</time>
      </trkpt>
      <trkpt lat="48.00106" lon="5.48851">
        <ele>426.55</ele>
        <time>2021-06-23T09:31:39Z</time>
      </trkpt>
      <trkpt lat="48.00121" lon="5.48875">
        <ele>424.28</ele>
        <time>2021-06-23T09:31:52Z</time>
      </trkpt>
      <trkpt lat="48.00119" lon="5.48882">
        <ele>423.93</ele>
        <time>2021-06-23T09:31:53Z</time>
      </trkpt>
      <trkpt lat="48.00122" lon="5.48892">
        <ele>423.03</ele>
        <time>2021-06-23T09:31:54Z</time>
      </trkpt>
      <trkpt lat="48.00122" lon="5.48906">
        <ele>422.05</ele>
        <time>2021-06-23T09:31:54Z</time>
      </trkpt>
      <trkpt lat="48.00122" lon="5.48906">
        <ele>422.05</ele>
        <time>2021-06-23T09:31:54Z</time>
      </trkpt>
      <trkpt lat="48.00121" lon="5.48924">
        <ele>421.08</ele>
        <time>2021-06-23T09:32:00Z</time>
      </trkpt>
      <trkpt lat="48.0009" lon="5.4908">
        <ele>423.7</ele>
        <time>2021-06-23T09:32:06Z</time>
      </trkpt>
      <trkpt lat="48.00081" lon="5.49142">
        <ele>423.57</ele>
        <time>2021-06-23T09:32:12Z</time>
      </trkpt>
      <trkpt lat="48.00077" lon="5.49178">
        <ele>423.1</ele>
        <time>2021-06-23T09:32:17Z</time>
      </trkpt>
      <trkpt lat="48.00071" lon="5.49242">
        <ele>419.45</ele>
        <time>2021-06-23T09:32:23Z</time>
      </trkpt>
      <trkpt lat="48.00067" lon="5.4931">
        <ele>416.33</ele>
        <time>2021-06-23T09:32:29Z</time>
      </trkpt>
      <trkpt lat="48.00072" lon="5.49385">
        <ele>413.34</ele>
        <time>2021-06-23T09:32:35Z</time>
      </trkpt>
      <trkpt lat="48.00089" lon="5.49461">
        <ele>409.63</ele>
        <time>2021-06-23T09:32:41Z</time>
      </trkpt>
      <trkpt lat="48.00116" lon="5.49526">
        <ele>406.29</ele>
        <time>2021-06-23T09:32:46Z</time>
      </trkpt>
      <trkpt lat="48.00148" lon="5.49585">
        <ele>405.98</ele>
        <time>2021-06-23T09:32:52Z</time>
      </trkpt>
      <trkpt lat="48.00255" lon="5.49721">
        <ele>395.33</ele>
        <time>2021-06-23T09:32:58Z</time>
      </trkpt>
      <trkpt lat="48.00285" lon="5.49764">
        <ele>393.78</ele>
        <time>2021-06-23T09:33:04Z</time>
      </trkpt>
      <trkpt lat="48.00309" lon="5.49815">
        <ele>394.89</ele>
        <time>2021-06-23T09:33:09Z</time>
      </trkpt>
      <trkpt lat="48.00322" lon="5.49866">
        <ele>393.21</ele>
        <time>2021-06-23T09:33:15Z</time>
      </trkpt>
      <trkpt lat="48.00332" lon="5.49925">
        <ele>388.06</ele>
        <time>2021-06-23T09:33:21Z</time>
      </trkpt>
      <trkpt lat="48.0034" lon="5.50036">
        <ele>385.49</ele>
        <time>2021-06-23T09:33:27Z</time>
      </trkpt>
      <trkpt lat="48.00338" lon="5.50078">
        <ele>384.11</ele>
        <time>2021-06-23T09:33:32Z</time>
      </trkpt>
      <trkpt lat="48.0033" lon="5.5011">
        <ele>382.48</ele>
        <time>2021-06-23T09:33:38Z</time>
      </trkpt>
      <trkpt lat="48.00314" lon="5.50133">
        <ele>381.04</ele>
        <time>2021-06-23T09:33:44Z</time>
      </trkpt>
      <trkpt lat="48.00287" lon="5.50157">
        <ele>380.9</ele>
        <time>2021-06-23T09:33:50Z</time>
      </trkpt>
      <trkpt lat="48.0027" lon="5.50176">
        <ele>380.78</ele>
        <time>2021-06-23T09:33:55Z</time>
      </trkpt>
      <trkpt lat="48.00256" lon="5.50197">
        <ele>380.12</ele>
        <time>2021-06-23T09:34:01Z</time>
      </trkpt>
      <trkpt lat="48.00238" lon="5.50237">
        <ele>378.42</ele>
        <time>2021-06-23T09:34:07Z</time>
      </trkpt>
      <trkpt lat="48.00211" lon="5.50342">
        <ele>369.4</ele>
        <time>2021-06-23T09:34:13Z</time>
      </trkpt>
      <trkpt lat="48.00202" lon="5.50368">
        <ele>368.48</ele>
        <time>2021-06-23T09:34:19Z</time>
      </trkpt>
      <trkpt lat="48.00191" lon="5.50389">
        <ele>368.38</ele>
        <time>2021-06-23T09:34:24Z</time>
      </trkpt>
      <trkpt lat="48.00141" lon="5.50459">
        <ele>368.9</ele>
        <time>2021-06-23T09:34:30Z</time>
      </trkpt>
      <trkpt lat="48.00128" lon="5.50498">
        <ele>367.71</ele>
        <time>2021-06-23T09:34:36Z</time>
      </trkpt>
      <trkpt lat="48.00114" lon="5.5057">
        <ele>366.95</ele>
        <time>2021-06-23T09:34:42Z</time>
      </trkpt>
      <trkpt lat="48.00037" lon="5.51017">
        <ele>360.74</ele>
        <time>2021-06-23T09:34:47Z</time>
      </trkpt>
      <trkpt lat="48.00014" lon="5.511">
        <ele>361.58</ele>
        <time>2021-06-23T09:34:53Z</time>
      </trkpt>
      <trkpt lat="48.00003" lon="5.51146">
        <ele>362.11</ele>
        <time>2021-06-23T09:34:59Z</time>
      </trkpt>
      <trkpt lat="47.99985" lon="5.51252">
        <ele>360.52</ele>
        <time>2021-06-23T09:35:05Z</time>
      </trkpt>
      <trkpt lat="47.99975" lon="5.51326">
        <ele>362</ele>
        <time>2021-06-23T09:35:10Z</time>
      </trkpt>
      <trkpt lat="47.99961" lon="5.51445">
        <ele>362</ele>
        <time>2021-06-23T09:35:16Z</time>
      </trkpt>
      <trkpt lat="47.99707" lon="5.5285">
        <ele>346.44</ele>
        <time>2021-06-23T09:35:22Z</time>
      </trkpt>
      <trkpt lat="47.99666" lon="5.5306">
        <ele>347.95</ele>
        <time>2021-06-23T09:35:28Z</time>
      </trkpt>
      <trkpt lat="47.99637" lon="5.5323">
        <ele>342.02</ele>
        <time>2021-06-23T09:35:33Z</time>
      </trkpt>
      <trkpt lat="47.99576" lon="5.5357">
        <ele>351.89</ele>
        <time>2021-06-23T09:35:39Z</time>
      </trkpt>
      <trkpt lat="47.99401" lon="5.5453">
        <ele>357.07</ele>
        <time>2021-06-23T09:35:45Z</time>
      </trkpt>
      <trkpt lat="47.99384" lon="5.54602">
        <ele>356.06</ele>
        <time>2021-06-23T09:35:51Z</time>
      </trkpt>
      <trkpt lat="47.99366" lon="5.54653">
        <ele>356.6</ele>
        <time>2021-06-23T09:35:57Z</time>
      </trkpt>
      <trkpt lat="47.99337" lon="5.54719">
        <ele>356.74</ele>
        <time>2021-06-23T09:36:02Z</time>
      </trkpt>
      <trkpt lat="47.99188" lon="5.54993">
        <ele>343.34</ele>
        <time>2021-06-23T09:36:08Z</time>
      </trkpt>
      <trkpt lat="47.99181" lon="5.55013">
        <ele>343.13</ele>
        <time>2021-06-23T09:36:14Z</time>
      </trkpt>
      <trkpt lat="47.99176" lon="5.55036">
        <ele>342.89</ele>
        <time>2021-06-23T09:36:20Z</time>
      </trkpt>
      <trkpt lat="47.99173" lon="5.55057">
        <ele>342.74</ele>
        <time>2021-06-23T09:36:25Z</time>
      </trkpt>
      <trkpt lat="47.99173" lon="5.55092">
        <ele>342.57</ele>
        <time>2021-06-23T09:36:31Z</time>
      </trkpt>
      <trkpt lat="47.99174" lon="5.551">
        <ele>342.38</ele>
        <time>2021-06-23T09:36:31Z</time>
      </trkpt>
      <trkpt lat="47.99174" lon="5.551">
        <ele>342.38</ele>
        <time>2021-06-23T09:36:31Z</time>
      </trkpt>
      <trkpt lat="47.99178" lon="5.55133">
        <ele>342.18</ele>
        <time>2021-06-23T09:36:59Z</time>
      </trkpt>
      <trkpt lat="47.99186" lon="5.55146">
        <ele>341.8</ele>
        <time>2021-06-23T09:37:26Z</time>
      </trkpt>
      <trkpt lat="47.99194" lon="5.55152">
        <ele>341.48</ele>
        <time>2021-06-23T09:37:54Z</time>
      </trkpt>
      <trkpt lat="47.99205" lon="5.55167">
        <ele>342.02</ele>
        <time>2021-06-23T09:38:21Z</time>
      </trkpt>
      <trkpt lat="47.99362" lon="5.55427">
        <ele>356.37</ele>
        <time>2021-06-23T09:38:49Z</time>
      </trkpt>
      <trkpt lat="48.00381" lon="5.57094">
        <ele>371.38</ele>
        <time>2021-06-23T09:39:16Z</time>
      </trkpt>
      <trkpt lat="48.01538" lon="5.58983">
        <ele>371</ele>
        <time>2021-06-23T09:39:44Z</time>
      </trkpt>
      <trkpt lat="48.01594" lon="5.59079">
        <ele>373.08</ele>
        <time>2021-06-23T09:40:11Z</time>
      </trkpt>
      <trkpt lat="48.01594" lon="5.59079">
        <ele>373.08</ele>
        <time>2021-06-23T09:40:11Z</time>
      </trkpt>
      <trkpt lat="48.01605" lon="5.59103">
        <ele>373.17</ele>
        <time>2021-06-23T09:40:49Z</time>
      </trkpt>
      <trkpt lat="48.01623" lon="5.59154">
        <ele>372.25</ele>
        <time>2021-06-23T09:41:26Z</time>
      </trkpt>
      <trkpt lat="48.02318" lon="5.61373">
        <ele>387.27</ele>
        <time>2021-06-23T09:42:03Z</time>
      </trkpt>
      <trkpt lat="48.02396" lon="5.61627">
        <ele>389.76</ele>
        <time>2021-06-23T09:42:41Z</time>
      </trkpt>
      <trkpt lat="48.02463" lon="5.61838">
        <ele>389.21</ele>
        <time>2021-06-23T09:43:18Z</time>
      </trkpt>
      <trkpt lat="48.03141" lon="5.64007">
        <ele>391</ele>
        <time>2021-06-23T09:43:55Z</time>
      </trkpt>
      <trkpt lat="48.03735" lon="5.65924">
        <ele>397.42</ele>
        <time>2021-06-23T09:44:33Z</time>
      </trkpt>
      <trkpt lat="48.03735" lon="5.65924">
        <ele>397.42</ele>
        <time>2021-06-23T09:44:33Z</time>
      </trkpt>
      <trkpt lat="48.03788" lon="5.66102">
        <ele>396.25</ele>
        <time>2021-06-23T09:44:57Z</time>
      </trkpt>
      <trkpt lat="48.03796" lon="5.66149">
        <ele>397.78</ele>
        <time>2021-06-23T09:45:20Z</time>
      </trkpt>
      <trkpt lat="48.03804" lon="5.66233">
        <ele>397.65</ele>
        <time>2021-06-23T09:45:44Z</time>
      </trkpt>
      <trkpt lat="48.03973" lon="5.68245">
        <ele>425.01</ele>
        <time>2021-06-23T09:46:08Z</time>
      </trkpt>
      <trkpt lat="48.04152" lon="5.70425">
        <ele>446.69</ele>
        <time>2021-06-23T09:46:31Z</time>
      </trkpt>
      <trkpt lat="48.04161" lon="5.70507">
        <ele>445.11</ele>
        <time>2021-06-23T09:46:55Z</time>
      </trkpt>
      <trkpt lat="48.04323" lon="5.71055">
        <ele>447.49</ele>
        <time>2021-06-23T09:47:19Z</time>
      </trkpt>
      <trkpt lat="48.04375" lon="5.71404">
        <ele>455.77</ele>
        <time>2021-06-23T09:47:43Z</time>
      </trkpt>
      <trkpt lat="48.04467" lon="5.72037">
        <ele>459.52</ele>
        <time>2021-06-23T09:48:06Z</time>
      </trkpt>
      <trkpt lat="48.045" lon="5.72243">
        <ele>466.99</ele>
        <time>2021-06-23T09:48:30Z</time>
      </trkpt>
      <trkpt lat="48.0454" lon="5.72378">
        <ele>468.97</ele>
        <time>2021-06-23T09:48:54Z</time>
      </trkpt>
      <trkpt lat="48.05028" lon="5.73733">
        <ele>475.01</ele>
        <time>2021-06-23T09:49:18Z</time>
      </trkpt>
      <trkpt lat="48.05303" lon="5.7524">
        <ele>487.07</ele>
        <time>2021-06-23T09:49:41Z</time>
      </trkpt>
      <trkpt lat="48.05306" lon="5.75252">
        <ele>486.73</ele>
        <time>2021-06-23T09:50:05Z</time>
      </trkpt>
      <trkpt lat="48.05306" lon="5.75252">
        <ele>486.73</ele>
        <time>2021-06-23T09:50:05Z</time>
      </trkpt>
      <trkpt lat="48.0531" lon="5.75264">
        <ele>486.4</ele>
        <time>2021-06-23T09:50:07Z</time>
      </trkpt>
      <trkpt lat="48.05322" lon="5.75289">
        <ele>484.76</ele>
        <time>2021-06-23T09:50:08Z</time>
      </trkpt>
      <trkpt lat="48.0534" lon="5.75311">
        <ele>482.35</ele>
        <time>2021-06-23T09:50:10Z</time>
      </trkpt>
      <trkpt lat="48.05358" lon="5.75324">
        <ele>480.54</ele>
        <time>2021-06-23T09:50:11Z</time>
      </trkpt>
      <trkpt lat="48.05377" lon="5.75331">
        <ele>478.94</ele>
        <time>2021-06-23T09:50:13Z</time>
      </trkpt>
      <trkpt lat="48.05396" lon="5.75332">
        <ele>477.81</ele>
        <time>2021-06-23T09:50:14Z</time>
      </trkpt>
      <trkpt lat="48.05442" lon="5.75318">
        <ele>477.21</ele>
        <time>2021-06-23T09:50:16Z</time>
      </trkpt>
      <trkpt lat="48.05462" lon="5.75314">
        <ele>476.74</ele>
        <time>2021-06-23T09:50:17Z</time>
      </trkpt>
      <trkpt lat="48.05511" lon="5.75291">
        <ele>474.56</ele>
        <time>2021-06-23T09:50:19Z</time>
      </trkpt>
      <trkpt lat="48.05528" lon="5.75287">
        <ele>473.37</ele>
        <time>2021-06-23T09:50:20Z</time>
      </trkpt>
      <trkpt lat="48.05547" lon="5.75286">
        <ele>473.64</ele>
        <time>2021-06-23T09:50:22Z</time>
      </trkpt>
      <trkpt lat="48.05572" lon="5.7529">
        <ele>472.07</ele>
        <time>2021-06-23T09:50:23Z</time>
      </trkpt>
      <trkpt lat="48.05633" lon="5.75315">
        <ele>462.63</ele>
        <time>2021-06-23T09:50:25Z</time>
      </trkpt>
      <trkpt lat="48.05647" lon="5.75316">
        <ele>461.71</ele>
        <time>2021-06-23T09:50:27Z</time>
      </trkpt>
      <trkpt lat="48.05738" lon="5.75308">
        <ele>459.95</ele>
        <time>2021-06-23T09:50:28Z</time>
      </trkpt>
      <trkpt lat="48.05788" lon="5.75306">
        <ele>460.27</ele>
        <time>2021-06-23T09:50:30Z</time>
      </trkpt>
      <trkpt lat="48.05808" lon="5.75311">
        <ele>459.56</ele>
        <time>2021-06-23T09:50:31Z</time>
      </trkpt>
      <trkpt lat="48.0584" lon="5.75328">
        <ele>454.88</ele>
        <time>2021-06-23T09:50:33Z</time>
      </trkpt>
      <trkpt lat="48.05855" lon="5.75339">
        <ele>452.76</ele>
        <time>2021-06-23T09:50:34Z</time>
      </trkpt>
      <trkpt lat="48.05877" lon="5.75359">
        <ele>448.72</ele>
        <time>2021-06-23T09:50:36Z</time>
      </trkpt>
      <trkpt lat="48.05923" lon="5.75406">
        <ele>447.42</ele>
        <time>2021-06-23T09:50:37Z</time>
      </trkpt>
      <trkpt lat="48.05938" lon="5.75417">
        <ele>447.33</ele>
        <time>2021-06-23T09:50:39Z</time>
      </trkpt>
      <trkpt lat="48.05952" lon="5.75422">
        <ele>446.87</ele>
        <time>2021-06-23T09:50:40Z</time>
      </trkpt>
      <trkpt lat="48.05969" lon="5.75426">
        <ele>446.61</ele>
        <time>2021-06-23T09:50:42Z</time>
      </trkpt>
      <trkpt lat="48.06006" lon="5.7543">
        <ele>444.89</ele>
        <time>2021-06-23T09:50:43Z</time>
      </trkpt>
      <trkpt lat="48.06035" lon="5.75427">
        <ele>444.9</ele>
        <time>2021-06-23T09:50:45Z</time>
      </trkpt>
      <trkpt lat="48.06053" lon="5.75429">
        <ele>444.39</ele>
        <time>2021-06-23T09:50:46Z</time>
      </trkpt>
      <trkpt lat="48.06079" lon="5.75437">
        <ele>441.2</ele>
        <time>2021-06-23T09:50:48Z</time>
      </trkpt>
      <trkpt lat="48.06098" lon="5.75446">
        <ele>438.67</ele>
        <time>2021-06-23T09:50:50Z</time>
      </trkpt>
      <trkpt lat="48.0613" lon="5.75476">
        <ele>432.33</ele>
        <time>2021-06-23T09:50:51Z</time>
      </trkpt>
      <trkpt lat="48.06171" lon="5.75531">
        <ele>423.96</ele>
        <time>2021-06-23T09:50:53Z</time>
      </trkpt>
      <trkpt lat="48.06187" lon="5.75563">
        <ele>421.93</ele>
        <time>2021-06-23T09:50:54Z</time>
      </trkpt>
      <trkpt lat="48.062" lon="5.75599">
        <ele>417.32</ele>
        <time>2021-06-23T09:50:56Z</time>
      </trkpt>
      <trkpt lat="48.062" lon="5.75599">
        <ele>417.32</ele>
        <time>2021-06-23T09:50:56Z</time>
      </trkpt>
      <trkpt lat="48.06237" lon="5.75698">
        <ele>412.72</ele>
        <time>2021-06-23T09:51:02Z</time>
      </trkpt>
      <trkpt lat="48.06324" lon="5.75882">
        <ele>401.15</ele>
        <time>2021-06-23T09:51:08Z</time>
      </trkpt>
      <trkpt lat="48.06338" lon="5.7592">
        <ele>398.69</ele>
        <time>2021-06-23T09:51:15Z</time>
      </trkpt>
      <trkpt lat="48.06358" lon="5.76002">
        <ele>395.29</ele>
        <time>2021-06-23T09:51:21Z</time>
      </trkpt>
      <trkpt lat="48.06389" lon="5.76175">
        <ele>381.69</ele>
        <time>2021-06-23T09:51:27Z</time>
      </trkpt>
      <trkpt lat="48.06413" lon="5.76252">
        <ele>375.94</ele>
        <time>2021-06-23T09:51:34Z</time>
      </trkpt>
      <trkpt lat="48.06456" lon="5.76318">
        <ele>372.72</ele>
        <time>2021-06-23T09:51:40Z</time>
      </trkpt>
      <trkpt lat="48.06587" lon="5.76482">
        <ele>363.82</ele>
        <time>2021-06-23T09:51:46Z</time>
      </trkpt>
      <trkpt lat="48.06617" lon="5.7654">
        <ele>362.79</ele>
        <time>2021-06-23T09:51:53Z</time>
      </trkpt>
      <trkpt lat="48.06992" lon="5.77593">
        <ele>355.64</ele>
        <time>2021-06-23T09:51:59Z</time>
      </trkpt>
      <trkpt lat="48.07009" lon="5.77644">
        <ele>355.12</ele>
        <time>2021-06-23T09:52:05Z</time>
      </trkpt>
      <trkpt lat="48.07057" lon="5.77775">
        <ele>353.11</ele>
        <time>2021-06-23T09:52:12Z</time>
      </trkpt>
      <trkpt lat="48.07074" lon="5.7782">
        <ele>352</ele>
        <time>2021-06-23T09:52:18Z</time>
      </trkpt>
      <trkpt lat="48.07098" lon="5.77897">
        <ele>351.85</ele>
        <time>2021-06-23T09:52:24Z</time>
      </trkpt>
      <trkpt lat="48.07101" lon="5.77926">
        <ele>351.3</ele>
        <time>2021-06-23T09:52:31Z</time>
      </trkpt>
      <trkpt lat="48.07099" lon="5.77951">
        <ele>350.68</ele>
        <time>2021-06-23T09:52:37Z</time>
      </trkpt>
      <trkpt lat="48.07074" lon="5.7808">
        <ele>355.33</ele>
        <time>2021-06-23T09:52:43Z</time>
      </trkpt>
      <trkpt lat="48.07065" lon="5.78181">
        <ele>357</ele>
        <time>2021-06-23T09:52:50Z</time>
      </trkpt>
      <trkpt lat="48.07064" lon="5.78193">
        <ele>357</ele>
        <time>2021-06-23T09:52:56Z</time>
      </trkpt>
      <trkpt lat="48.07066" lon="5.78205">
        <ele>357.38</ele>
        <time>2021-06-23T09:53:02Z</time>
      </trkpt>
      <trkpt lat="48.07077" lon="5.78219">
        <ele>357.87</ele>
        <time>2021-06-23T09:53:08Z</time>
      </trkpt>
      <trkpt lat="48.07124" lon="5.78262">
        <ele>356.46</ele>
        <time>2021-06-23T09:53:15Z</time>
      </trkpt>
      <trkpt lat="48.07172" lon="5.78301">
        <ele>355.44</ele>
        <time>2021-06-23T09:53:21Z</time>
      </trkpt>
      <trkpt lat="48.07188" lon="5.78309">
        <ele>354.61</ele>
        <time>2021-06-23T09:53:27Z</time>
      </trkpt>
      <trkpt lat="48.07222" lon="5.78314">
        <ele>352.62</ele>
        <time>2021-06-23T09:53:34Z</time>
      </trkpt>
      <trkpt lat="48.07236" lon="5.78323">
        <ele>352.46</ele>
        <time>2021-06-23T09:53:40Z</time>
      </trkpt>
      <trkpt lat="48.07257" lon="5.78347">
        <ele>353.21</ele>
        <time>2021-06-23T09:53:46Z</time>
      </trkpt>
      <trkpt lat="48.07267" lon="5.78362">
        <ele>354.64</ele>
        <time>2021-06-23T09:53:53Z</time>
      </trkpt>
      <trkpt lat="48.07275" lon="5.78385">
        <ele>356.63</ele>
        <time>2021-06-23T09:53:59Z</time>
      </trkpt>
      <trkpt lat="48.07282" lon="5.78412">
        <ele>357.81</ele>
        <time>2021-06-23T09:54:05Z</time>
      </trkpt>
      <trkpt lat="48.07327" lon="5.78595">
        <ele>362.41</ele>
        <time>2021-06-23T09:54:12Z</time>
      </trkpt>
      <trkpt lat="48.07378" lon="5.78773">
        <ele>365.34</ele>
        <time>2021-06-23T09:54:18Z</time>
      </trkpt>
      <trkpt lat="48.07452" lon="5.79044">
        <ele>372.77</ele>
        <time>2021-06-23T09:54:24Z</time>
      </trkpt>
      <trkpt lat="48.07464" lon="5.79078">
        <ele>374.49</ele>
        <time>2021-06-23T09:54:31Z</time>
      </trkpt>
      <trkpt lat="48.07478" lon="5.79112">
        <ele>376.27</ele>
        <time>2021-06-23T09:54:37Z</time>
      </trkpt>
      <trkpt lat="48.07689" lon="5.79553">
        <ele>388.87</ele>
        <time>2021-06-23T09:54:43Z</time>
      </trkpt>
      <trkpt lat="48.07746" lon="5.79707">
        <ele>392.5</ele>
        <time>2021-06-23T09:54:50Z</time>
      </trkpt>
      <trkpt lat="48.07815" lon="5.79851">
        <ele>392.17</ele>
        <time>2021-06-23T09:54:56Z</time>
      </trkpt>
      <trkpt lat="48.07987" lon="5.80151">
        <ele>389.01</ele>
        <time>2021-06-23T09:55:02Z</time>
      </trkpt>
      <trkpt lat="48.08152" lon="5.8043">
        <ele>377.14</ele>
        <time>2021-06-23T09:55:09Z</time>
      </trkpt>
      <trkpt lat="48.08152" lon="5.8043">
        <ele>377.14</ele>
        <time>2021-06-23T09:55:09Z</time>
      </trkpt>
      <trkpt lat="48.08191" lon="5.80477">
        <ele>374.29</ele>
        <time>2021-06-23T09:55:12Z</time>
      </trkpt>
      <trkpt lat="48.0822" lon="5.80505">
        <ele>373.52</ele>
        <time>2021-06-23T09:55:16Z</time>
      </trkpt>
      <trkpt lat="48.08262" lon="5.8053">
        <ele>372.17</ele>
        <time>2021-06-23T09:55:20Z</time>
      </trkpt>
      <trkpt lat="48.08312" lon="5.80548">
        <ele>369.51</ele>
        <time>2021-06-23T09:55:23Z</time>
      </trkpt>
      <trkpt lat="48.08506" lon="5.80549">
        <ele>369.77</ele>
        <time>2021-06-23T09:55:27Z</time>
      </trkpt>
      <trkpt lat="48.08556" lon="5.80524">
        <ele>368.88</ele>
        <time>2021-06-23T09:55:31Z</time>
      </trkpt>
      <trkpt lat="48.08628" lon="5.80472">
        <ele>369.61</ele>
        <time>2021-06-23T09:55:34Z</time>
      </trkpt>
      <trkpt lat="48.0867" lon="5.80449">
        <ele>370.43</ele>
        <time>2021-06-23T09:55:38Z</time>
      </trkpt>
      <trkpt lat="48.08763" lon="5.8041">
        <ele>367.26</ele>
        <time>2021-06-23T09:55:42Z</time>
      </trkpt>
      <trkpt lat="48.08859" lon="5.80374">
        <ele>361.9</ele>
        <time>2021-06-23T09:55:45Z</time>
      </trkpt>
      <trkpt lat="48.08913" lon="5.80361">
        <ele>360.13</ele>
        <time>2021-06-23T09:55:49Z</time>
      </trkpt>
      <trkpt lat="48.08986" lon="5.80362">
        <ele>360.59</ele>
        <time>2021-06-23T09:55:52Z</time>
      </trkpt>
      <trkpt lat="48.09044" lon="5.80374">
        <ele>363.42</ele>
        <time>2021-06-23T09:55:56Z</time>
      </trkpt>
      <trkpt lat="48.09107" lon="5.80404">
        <ele>362.85</ele>
        <time>2021-06-23T09:56:00Z</time>
      </trkpt>
      <trkpt lat="48.09107" lon="5.80404">
        <ele>362.85</ele>
        <time>2021-06-23T09:56:00Z</time>
      </trkpt>
      <trkpt lat="48.09129" lon="5.80415">
        <ele>362.29</ele>
        <time>2021-06-23T09:56:04Z</time>
      </trkpt>
      <trkpt lat="48.09182" lon="5.80459">
        <ele>365.86</ele>
        <time>2021-06-23T09:56:08Z</time>
      </trkpt>
      <trkpt lat="48.09338" lon="5.80628">
        <ele>361.58</ele>
        <time>2021-06-23T09:56:12Z</time>
      </trkpt>
      <trkpt lat="48.09506" lon="5.80768">
        <ele>357</ele>
        <time>2021-06-23T09:56:16Z</time>
      </trkpt>
      <trkpt lat="48.09575" lon="5.80852">
        <ele>355.86</ele>
        <time>2021-06-23T09:56:20Z</time>
      </trkpt>
      <trkpt lat="48.09823" lon="5.81178">
        <ele>354.13</ele>
        <time>2021-06-23T09:56:24Z</time>
      </trkpt>
      <trkpt lat="48.09842" lon="5.8121">
        <ele>353.41</ele>
        <time>2021-06-23T09:56:28Z</time>
      </trkpt>
      <trkpt lat="48.09863" lon="5.81256">
        <ele>353.15</ele>
        <time>2021-06-23T09:56:32Z</time>
      </trkpt>
      <trkpt lat="48.09894" lon="5.81351">
        <ele>354.54</ele>
        <time>2021-06-23T09:56:36Z</time>
      </trkpt>
      <trkpt lat="48.09913" lon="5.81433">
        <ele>354.23</ele>
        <time>2021-06-23T09:56:40Z</time>
      </trkpt>
      <trkpt lat="48.09966" lon="5.81726">
        <ele>358.43</ele>
        <time>2021-06-23T09:56:44Z</time>
      </trkpt>
      <trkpt lat="48.09995" lon="5.8181">
        <ele>358.32</ele>
        <time>2021-06-23T09:56:48Z</time>
      </trkpt>
      <trkpt lat="48.1003" lon="5.8189">
        <ele>359</ele>
        <time>2021-06-23T09:56:52Z</time>
      </trkpt>
      <trkpt lat="48.10088" lon="5.81993">
        <ele>361.75</ele>
        <time>2021-06-23T09:56:56Z</time>
      </trkpt>
      <trkpt lat="48.10161" lon="5.82077">
        <ele>361.15</ele>
        <time>2021-06-23T09:57:00Z</time>
      </trkpt>
      <trkpt lat="48.10178" lon="5.82083">
        <ele>360.99</ele>
        <time>2021-06-23T09:57:04Z</time>
      </trkpt>
      <trkpt lat="48.10195" lon="5.82076">
        <ele>360.65</ele>
        <time>2021-06-23T09:57:08Z</time>
      </trkpt>
      <trkpt lat="48.10232" lon="5.82026">
        <ele>358.04</ele>
        <time>2021-06-23T09:57:12Z</time>
      </trkpt>
      <trkpt lat="48.10243" lon="5.81998">
        <ele>358.24</ele>
        <time>2021-06-23T09:57:16Z</time>
      </trkpt>
      <trkpt lat="48.10263" lon="5.81896">
        <ele>355.53</ele>
        <time>2021-06-23T09:57:20Z</time>
      </trkpt>
      <trkpt lat="48.10272" lon="5.8188">
        <ele>355.14</ele>
        <time>2021-06-23T09:57:24Z</time>
      </trkpt>
      <trkpt lat="48.10308" lon="5.81851">
        <ele>353.9</ele>
        <time>2021-06-23T09:57:28Z</time>
      </trkpt>
      <trkpt lat="48.1033" lon="5.81837">
        <ele>353.13</ele>
        <time>2021-06-23T09:57:32Z</time>
      </trkpt>
      <trkpt lat="48.10334" lon="5.81836">
        <ele>352.98</ele>
        <time>2021-06-23T09:57:36Z</time>
      </trkpt>
      <trkpt lat="48.10346" lon="5.81842">
        <ele>352.69</ele>
        <time>2021-06-23T09:57:40Z</time>
      </trkpt>
      <trkpt lat="48.10382" lon="5.81881">
        <ele>352.78</ele>
        <time>2021-06-23T09:57:44Z</time>
      </trkpt>
      <trkpt lat="48.10396" lon="5.81903">
        <ele>353.13</ele>
        <time>2021-06-23T09:57:48Z</time>
      </trkpt>
      <trkpt lat="48.10435" lon="5.8203">
        <ele>354</ele>
        <time>2021-06-23T09:57:52Z</time>
      </trkpt>
      <trkpt lat="48.10445" lon="5.82082">
        <ele>354.94</ele>
        <time>2021-06-23T09:57:56Z</time>
      </trkpt>
      <trkpt lat="48.10445" lon="5.82128">
        <ele>355</ele>
        <time>2021-06-23T09:58:00Z</time>
      </trkpt>
      <trkpt lat="48.10447" lon="5.82142">
        <ele>355</ele>
        <time>2021-06-23T09:58:04Z</time>
      </trkpt>
      <trkpt lat="48.10452" lon="5.82154">
        <ele>355</ele>
        <time>2021-06-23T09:58:08Z</time>
      </trkpt>
      <trkpt lat="48.10463" lon="5.8217">
        <ele>355.04</ele>
        <time>2021-06-23T09:58:12Z</time>
      </trkpt>
      <trkpt lat="48.10491" lon="5.82181">
        <ele>355.34</ele>
        <time>2021-06-23T09:58:16Z</time>
      </trkpt>
      <trkpt lat="48.10525" lon="5.82224">
        <ele>356.89</ele>
        <time>2021-06-23T09:58:20Z</time>
      </trkpt>
      <trkpt lat="48.10558" lon="5.82245">
        <ele>358.15</ele>
        <time>2021-06-23T09:58:24Z</time>
      </trkpt>
      <trkpt lat="48.10575" lon="5.8225">
        <ele>359.41</ele>
        <time>2021-06-23T09:58:28Z</time>
      </trkpt>
      <trkpt lat="48.1059" lon="5.82263">
        <ele>360</ele>
        <time>2021-06-23T09:58:32Z</time>
      </trkpt>
      <trkpt lat="48.10611" lon="5.82314">
        <ele>359.7</ele>
        <time>2021-06-23T09:58:36Z</time>
      </trkpt>
      <trkpt lat="48.1062" lon="5.82328">
        <ele>359.77</ele>
        <time>2021-06-23T09:58:40Z</time>
      </trkpt>
      <trkpt lat="48.10713" lon="5.82416">
        <ele>363.67</ele>
        <time>2021-06-23T09:58:44Z</time>
      </trkpt>
      <trkpt lat="48.10732" lon="5.82437">
        <ele>365.15</ele>
        <time>2021-06-23T09:58:48Z</time>
      </trkpt>
      <trkpt lat="48.10748" lon="5.8246">
        <ele>366.49</ele>
        <time>2021-06-23T09:58:52Z</time>
      </trkpt>
      <trkpt lat="48.10776" lon="5.82495">
        <ele>367.05</ele>
        <time>2021-06-23T09:58:56Z</time>
      </trkpt>
      <trkpt lat="48.10806" lon="5.8254">
        <ele>368</ele>
        <time>2021-06-23T09:59:00Z</time>
      </trkpt>
      <trkpt lat="48.10821" lon="5.82571">
        <ele>368.54</ele>
        <time>2021-06-23T09:59:04Z</time>
      </trkpt>
      <trkpt lat="48.10828" lon="5.82598">
        <ele>369.35</ele>
        <time>2021-06-23T09:59:08Z</time>
      </trkpt>
      <trkpt lat="48.10837" lon="5.82613">
        <ele>369.86</ele>
        <time>2021-06-23T09:59:12Z</time>
      </trkpt>
      <trkpt lat="48.10898" lon="5.82759">
        <ele>367.38</ele>
        <time>2021-06-23T09:59:16Z</time>
      </trkpt>
      <trkpt lat="48.10915" lon="5.82788">
        <ele>366.03</ele>
        <time>2021-06-23T09:59:20Z</time>
      </trkpt>
      <trkpt lat="48.10987" lon="5.82865">
        <ele>366.93</ele>
        <time>2021-06-23T09:59:24Z</time>
      </trkpt>
      <trkpt lat="48.11012" lon="5.82886">
        <ele>366.12</ele>
        <time>2021-06-23T09:59:28Z</time>
      </trkpt>
      <trkpt lat="48.11033" lon="5.82907">
        <ele>366.2</ele>
        <time>2021-06-23T09:59:32Z</time>
      </trkpt>
      <trkpt lat="48.11076" lon="5.82958">
        <ele>367.38</ele>
        <time>2021-06-23T09:59:36Z</time>
      </trkpt>
      <trkpt lat="48.11098" lon="5.8298">
        <ele>366.85</ele>
        <time>2021-06-23T09:59:40Z</time>
      </trkpt>
      <trkpt lat="48.11138" lon="5.83012">
        <ele>366.55</ele>
        <time>2021-06-23T09:59:44Z</time>
      </trkpt>
      <trkpt lat="48.11183" lon="5.83044">
        <ele>367</ele>
        <time>2021-06-23T09:59:48Z</time>
      </trkpt>
      <trkpt lat="48.11216" lon="5.83057">
        <ele>367</ele>
        <time>2021-06-23T09:59:52Z</time>
      </trkpt>
      <trkpt lat="48.11329" lon="5.83088">
        <ele>371.22</ele>
        <time>2021-06-23T09:59:56Z</time>
      </trkpt>
      <trkpt lat="48.11376" lon="5.8311">
        <ele>371.56</ele>
        <time>2021-06-23T10:00:00Z</time>
      </trkpt>
      <trkpt lat="48.11497" lon="5.83182">
        <ele>376.32</ele>
        <time>2021-06-23T10:00:04Z</time>
      </trkpt>
      <trkpt lat="48.11527" lon="5.83201">
        <ele>376.49</ele>
        <time>2021-06-23T10:00:08Z</time>
      </trkpt>
      <trkpt lat="48.11547" lon="5.83217">
        <ele>376.05</ele>
        <time>2021-06-23T10:00:12Z</time>
      </trkpt>
      <trkpt lat="48.11583" lon="5.83254">
        <ele>376.95</ele>
        <time>2021-06-23T10:00:16Z</time>
      </trkpt>
      <trkpt lat="48.11649" lon="5.83333">
        <ele>378.79</ele>
        <time>2021-06-23T10:00:20Z</time>
      </trkpt>
      <trkpt lat="48.11724" lon="5.8345">
        <ele>391.2</ele>
        <time>2021-06-23T10:00:24Z</time>
      </trkpt>
      <trkpt lat="48.11757" lon="5.83493">
        <ele>392.44</ele>
        <time>2021-06-23T10:00:28Z</time>
      </trkpt>
      <trkpt lat="48.11792" lon="5.83526">
        <ele>393.59</ele>
        <time>2021-06-23T10:00:32Z</time>
      </trkpt>
      <trkpt lat="48.11834" lon="5.83556">
        <ele>390.8</ele>
        <time>2021-06-23T10:00:36Z</time>
      </trkpt>
      <trkpt lat="48.11863" lon="5.83571">
        <ele>387.83</ele>
        <time>2021-06-23T10:00:40Z</time>
      </trkpt>
      <trkpt lat="48.11993" lon="5.83616">
        <ele>385.53</ele>
        <time>2021-06-23T10:00:44Z</time>
      </trkpt>
      <trkpt lat="48.12045" lon="5.83646">
        <ele>387.79</ele>
        <time>2021-06-23T10:00:48Z</time>
      </trkpt>
      <trkpt lat="48.12182" lon="5.83732">
        <ele>385.8</ele>
        <time>2021-06-23T10:00:52Z</time>
      </trkpt>
      <trkpt lat="48.12221" lon="5.83771">
        <ele>382.11</ele>
        <time>2021-06-23T10:00:56Z</time>
      </trkpt>
      <trkpt lat="48.12241" lon="5.83795">
        <ele>382</ele>
        <time>2021-06-23T10:01:00Z</time>
      </trkpt>
      <trkpt lat="48.12262" lon="5.83823">
        <ele>383.88</ele>
        <time>2021-06-23T10:01:04Z</time>
      </trkpt>
      <trkpt lat="48.12262" lon="5.83823">
        <ele>383.88</ele>
        <time>2021-06-23T10:01:04Z</time>
      </trkpt>
      <trkpt lat="48.12332" lon="5.83918">
        <ele>385.76</ele>
        <time>2021-06-23T10:01:10Z</time>
      </trkpt>
      <trkpt lat="48.12344" lon="5.83937">
        <ele>385.9</ele>
        <time>2021-06-23T10:01:16Z</time>
      </trkpt>
      <trkpt lat="48.12367" lon="5.83982">
        <ele>387.67</ele>
        <time>2021-06-23T10:01:22Z</time>
      </trkpt>
      <trkpt lat="48.12389" lon="5.84028">
        <ele>388.96</ele>
        <time>2021-06-23T10:01:27Z</time>
      </trkpt>
      <trkpt lat="48.12406" lon="5.84075">
        <ele>390.07</ele>
        <time>2021-06-23T10:01:33Z</time>
      </trkpt>
      <trkpt lat="48.12439" lon="5.8421">
        <ele>395.11</ele>
        <time>2021-06-23T10:01:39Z</time>
      </trkpt>
      <trkpt lat="48.12459" lon="5.84266">
        <ele>395.54</ele>
        <time>2021-06-23T10:01:45Z</time>
      </trkpt>
      <trkpt lat="48.12803" lon="5.84917">
        <ele>401.08</ele>
        <time>2021-06-23T10:01:51Z</time>
      </trkpt>
      <trkpt lat="48.12863" lon="5.8506">
        <ele>394.82</ele>
        <time>2021-06-23T10:01:57Z</time>
      </trkpt>
      <trkpt lat="48.12892" lon="5.85125">
        <ele>393.49</ele>
        <time>2021-06-23T10:02:03Z</time>
      </trkpt>
      <trkpt lat="48.12932" lon="5.85193">
        <ele>396.49</ele>
        <time>2021-06-23T10:02:09Z</time>
      </trkpt>
      <trkpt lat="48.13026" lon="5.85339">
        <ele>397.82</ele>
        <time>2021-06-23T10:02:15Z</time>
      </trkpt>
      <trkpt lat="48.13105" lon="5.85491">
        <ele>396.12</ele>
        <time>2021-06-23T10:02:21Z</time>
      </trkpt>
      <trkpt lat="48.1313" lon="5.8553">
        <ele>394.89</ele>
        <time>2021-06-23T10:02:27Z</time>
      </trkpt>
      <trkpt lat="48.13201" lon="5.85635">
        <ele>392.43</ele>
        <time>2021-06-23T10:02:33Z</time>
      </trkpt>
      <trkpt lat="48.13275" lon="5.85737">
        <ele>391</ele>
        <time>2021-06-23T10:02:39Z</time>
      </trkpt>
      <trkpt lat="48.13409" lon="5.85896">
        <ele>390.62</ele>
        <time>2021-06-23T10:02:45Z</time>
      </trkpt>
      <trkpt lat="48.13442" lon="5.85946">
        <ele>387.12</ele>
        <time>2021-06-23T10:02:51Z</time>
      </trkpt>
      <trkpt lat="48.13475" lon="5.86021">
        <ele>384.32</ele>
        <time>2021-06-23T10:02:57Z</time>
      </trkpt>
      <trkpt lat="48.1349" lon="5.86049">
        <ele>383.37</ele>
        <time>2021-06-23T10:03:02Z</time>
      </trkpt>
      <trkpt lat="48.135" lon="5.86063">
        <ele>382.73</ele>
        <time>2021-06-23T10:03:08Z</time>
      </trkpt>
      <trkpt lat="48.13522" lon="5.86088">
        <ele>379.24</ele>
        <time>2021-06-23T10:03:14Z</time>
      </trkpt>
      <trkpt lat="48.13522" lon="5.86088">
        <ele>379.24</ele>
        <time>2021-06-23T10:03:14Z</time>
      </trkpt>
      <trkpt lat="48.13563" lon="5.86133">
        <ele>375.76</ele>
        <time>2021-06-23T10:03:21Z</time>
      </trkpt>
      <trkpt lat="48.13573" lon="5.86147">
        <ele>377.2</ele>
        <time>2021-06-23T10:03:27Z</time>
      </trkpt>
      <trkpt lat="48.1358" lon="5.86161">
        <ele>378.42</ele>
        <time>2021-06-23T10:03:33Z</time>
      </trkpt>
      <trkpt lat="48.13583" lon="5.86185">
        <ele>380.27</ele>
        <time>2021-06-23T10:03:40Z</time>
      </trkpt>
      <trkpt lat="48.13574" lon="5.86247">
        <ele>382.13</ele>
        <time>2021-06-23T10:03:46Z</time>
      </trkpt>
      <trkpt lat="48.13573" lon="5.86259">
        <ele>382.88</ele>
        <time>2021-06-23T10:03:52Z</time>
      </trkpt>
      <trkpt lat="48.13576" lon="5.86289">
        <ele>385.41</ele>
        <time>2021-06-23T10:03:59Z</time>
      </trkpt>
      <trkpt lat="48.13593" lon="5.86382">
        <ele>390.65</ele>
        <time>2021-06-23T10:04:05Z</time>
      </trkpt>
      <trkpt lat="48.13602" lon="5.86548">
        <ele>394.64</ele>
        <time>2021-06-23T10:04:11Z</time>
      </trkpt>
      <trkpt lat="48.13603" lon="5.86636">
        <ele>396</ele>
        <time>2021-06-23T10:04:17Z</time>
      </trkpt>
      <trkpt lat="48.13603" lon="5.87232">
        <ele>391.54</ele>
        <time>2021-06-23T10:04:24Z</time>
      </trkpt>
      <trkpt lat="48.13602" lon="5.87271">
        <ele>391.13</ele>
        <time>2021-06-23T10:04:30Z</time>
      </trkpt>
      <trkpt lat="48.13583" lon="5.8768">
        <ele>409.47</ele>
        <time>2021-06-23T10:04:36Z</time>
      </trkpt>
      <trkpt lat="48.13582" lon="5.87767">
        <ele>408.87</ele>
        <time>2021-06-23T10:04:43Z</time>
      </trkpt>
      <trkpt lat="48.1359" lon="5.87811">
        <ele>409.91</ele>
        <time>2021-06-23T10:04:49Z</time>
      </trkpt>
      <trkpt lat="48.13648" lon="5.88311">
        <ele>412.5</ele>
        <time>2021-06-23T10:04:55Z</time>
      </trkpt>
      <trkpt lat="48.13716" lon="5.88788">
        <ele>407.53</ele>
        <time>2021-06-23T10:05:02Z</time>
      </trkpt>
      <trkpt lat="48.13737" lon="5.88881">
        <ele>408.78</ele>
        <time>2021-06-23T10:05:08Z</time>
      </trkpt>
      <trkpt lat="48.13752" lon="5.88931">
        <ele>408.9</ele>
        <time>2021-06-23T10:05:14Z</time>
      </trkpt>
      <trkpt lat="48.13765" lon="5.88969">
        <ele>409.74</ele>
        <time>2021-06-23T10:05:21Z</time>
      </trkpt>
      <trkpt lat="48.13979" lon="5.89438">
        <ele>400.6</ele>
        <time>2021-06-23T10:05:27Z</time>
      </trkpt>
      <trkpt lat="48.14001" lon="5.895">
        <ele>403.98</ele>
        <time>2021-06-23T10:05:33Z</time>
      </trkpt>
      <trkpt lat="48.14018" lon="5.89571">
        <ele>406.36</ele>
        <time>2021-06-23T10:05:39Z</time>
      </trkpt>
      <trkpt lat="48.14025" lon="5.8964">
        <ele>407.92</ele>
        <time>2021-06-23T10:05:46Z</time>
      </trkpt>
      <trkpt lat="48.14049" lon="5.89943">
        <ele>411.76</ele>
        <time>2021-06-23T10:05:52Z</time>
      </trkpt>
      <trkpt lat="48.14055" lon="5.89981">
        <ele>411.68</ele>
        <time>2021-06-23T10:05:58Z</time>
      </trkpt>
      <trkpt lat="48.14066" lon="5.90022">
        <ele>411</ele>
        <time>2021-06-23T10:06:05Z</time>
      </trkpt>
      <trkpt lat="48.14088" lon="5.90078">
        <ele>409.82</ele>
        <time>2021-06-23T10:06:11Z</time>
      </trkpt>
      <trkpt lat="48.1416" lon="5.90301">
        <ele>406.04</ele>
        <time>2021-06-23T10:06:17Z</time>
      </trkpt>
      <trkpt lat="48.14245" lon="5.9055">
        <ele>402.38</ele>
        <time>2021-06-23T10:06:24Z</time>
      </trkpt>
      <trkpt lat="48.14266" lon="5.906">
        <ele>402.44</ele>
        <time>2021-06-23T10:06:30Z</time>
      </trkpt>
      <trkpt lat="48.14315" lon="5.90699">
        <ele>402.44</ele>
        <time>2021-06-23T10:06:36Z</time>
      </trkpt>
      <trkpt lat="48.14359" lon="5.90783">
        <ele>403.07</ele>
        <time>2021-06-23T10:06:43Z</time>
      </trkpt>
      <trkpt lat="48.14392" lon="5.90831">
        <ele>400.79</ele>
        <time>2021-06-23T10:06:49Z</time>
      </trkpt>
      <trkpt lat="48.14449" lon="5.909">
        <ele>397.7</ele>
        <time>2021-06-23T10:06:55Z</time>
      </trkpt>
      <trkpt lat="48.14505" lon="5.90974">
        <ele>393.82</ele>
        <time>2021-06-23T10:07:01Z</time>
      </trkpt>
      <trkpt lat="48.14512" lon="5.90982">
        <ele>393.42</ele>
        <time>2021-06-23T10:07:08Z</time>
      </trkpt>
      <trkpt lat="48.14541" lon="5.91004">
        <ele>391.29</ele>
        <time>2021-06-23T10:07:14Z</time>
      </trkpt>
      <trkpt lat="48.14554" lon="5.91023">
        <ele>390.18</ele>
        <time>2021-06-23T10:07:20Z</time>
      </trkpt>
      <trkpt lat="48.14573" lon="5.91059">
        <ele>388.96</ele>
        <time>2021-06-23T10:07:27Z</time>
      </trkpt>
      <trkpt lat="48.14583" lon="5.91087">
        <ele>388.99</ele>
        <time>2021-06-23T10:07:33Z</time>
      </trkpt>
      <trkpt lat="48.1459" lon="5.91115">
        <ele>388.79</ele>
        <time>2021-06-23T10:07:39Z</time>
      </trkpt>
      <trkpt lat="48.14591" lon="5.91143">
        <ele>387.19</ele>
        <time>2021-06-23T10:07:46Z</time>
      </trkpt>
      <trkpt lat="48.1459" lon="5.91168">
        <ele>385.05</ele>
        <time>2021-06-23T10:07:52Z</time>
      </trkpt>
      <trkpt lat="48.14591" lon="5.91184">
        <ele>383.4</ele>
        <time>2021-06-23T10:07:58Z</time>
      </trkpt>
      <trkpt lat="48.14594" lon="5.912">
        <ele>382.1</ele>
        <time>2021-06-23T10:08:05Z</time>
      </trkpt>
      <trkpt lat="48.14603" lon="5.91227">
        <ele>380.75</ele>
        <time>2021-06-23T10:08:11Z</time>
      </trkpt>
      <trkpt lat="48.14637" lon="5.91287">
        <ele>379.08</ele>
        <time>2021-06-23T10:08:17Z</time>
      </trkpt>
      <trkpt lat="48.14641" lon="5.91289">
        <ele>378.96</ele>
        <time>2021-06-23T10:08:24Z</time>
      </trkpt>
      <trkpt lat="48.14641" lon="5.91289">
        <ele>378.96</ele>
        <time>2021-06-23T10:08:24Z</time>
      </trkpt>
      <trkpt lat="48.14652" lon="5.91295">
        <ele>378.82</ele>
        <time>2021-06-23T10:08:32Z</time>
      </trkpt>
      <trkpt lat="48.1467" lon="5.91292">
        <ele>378.47</ele>
        <time>2021-06-23T10:08:41Z</time>
      </trkpt>
      <trkpt lat="48.14676" lon="5.91289">
        <ele>378.28</ele>
        <time>2021-06-23T10:08:50Z</time>
      </trkpt>
      <trkpt lat="48.14685" lon="5.91283">
        <ele>378.06</ele>
        <time>2021-06-23T10:08:58Z</time>
      </trkpt>
      <trkpt lat="48.14826" lon="5.91184">
        <ele>377.29</ele>
        <time>2021-06-23T10:09:07Z</time>
      </trkpt>
      <trkpt lat="48.14848" lon="5.91161">
        <ele>378.49</ele>
        <time>2021-06-23T10:09:16Z</time>
      </trkpt>
      <trkpt lat="48.14866" lon="5.91138">
        <ele>378.89</ele>
        <time>2021-06-23T10:09:24Z</time>
      </trkpt>
      <trkpt lat="48.14902" lon="5.91106">
        <ele>373.63</ele>
        <time>2021-06-23T10:09:33Z</time>
      </trkpt>
      <trkpt lat="48.14976" lon="5.91067">
        <ele>372.92</ele>
        <time>2021-06-23T10:09:42Z</time>
      </trkpt>
      <trkpt lat="48.15304" lon="5.90902">
        <ele>369.52</ele>
        <time>2021-06-23T10:09:50Z</time>
      </trkpt>
      <trkpt lat="48.15363" lon="5.90867">
        <ele>370</ele>
        <time>2021-06-23T10:09:59Z</time>
      </trkpt>
      <trkpt lat="48.15563" lon="5.90699">
        <ele>366.57</ele>
        <time>2021-06-23T10:10:08Z</time>
      </trkpt>
      <trkpt lat="48.15627" lon="5.90658">
        <ele>366.42</ele>
        <time>2021-06-23T10:10:16Z</time>
      </trkpt>
      <trkpt lat="48.16039" lon="5.90479">
        <ele>363.21</ele>
        <time>2021-06-23T10:10:25Z</time>
      </trkpt>
      <trkpt lat="48.16094" lon="5.90462">
        <ele>361.7</ele>
        <time>2021-06-23T10:10:34Z</time>
      </trkpt>
      <trkpt lat="48.16673" lon="5.90353">
        <ele>360.55</ele>
        <time>2021-06-23T10:10:42Z</time>
      </trkpt>
      <trkpt lat="48.167" lon="5.90342">
        <ele>359.9</ele>
        <time>2021-06-23T10:10:51Z</time>
      </trkpt>
      <trkpt lat="48.16724" lon="5.90324">
        <ele>358.46</ele>
        <time>2021-06-23T10:11:00Z</time>
      </trkpt>
      <trkpt lat="48.16759" lon="5.90292">
        <ele>357.5</ele>
        <time>2021-06-23T10:11:08Z</time>
      </trkpt>
      <trkpt lat="48.16942" lon="5.90092">
        <ele>353.83</ele>
        <time>2021-06-23T10:11:17Z</time>
      </trkpt>
      <trkpt lat="48.16972" lon="5.9007">
        <ele>351.96</ele>
        <time>2021-06-23T10:11:26Z</time>
      </trkpt>
      <trkpt lat="48.16997" lon="5.90059">
        <ele>351.13</ele>
        <time>2021-06-23T10:11:34Z</time>
      </trkpt>
      <trkpt lat="48.17021" lon="5.90052">
        <ele>351.45</ele>
        <time>2021-06-23T10:11:43Z</time>
      </trkpt>
      <trkpt lat="48.17064" lon="5.90054">
        <ele>351.86</ele>
        <time>2021-06-23T10:11:52Z</time>
      </trkpt>
      <trkpt lat="48.17121" lon="5.90061">
        <ele>352.24</ele>
        <time>2021-06-23T10:12:00Z</time>
      </trkpt>
      <trkpt lat="48.17138" lon="5.90062">
        <ele>351.52</ele>
        <time>2021-06-23T10:12:09Z</time>
      </trkpt>
      <trkpt lat="48.17182" lon="5.90055">
        <ele>350.47</ele>
        <time>2021-06-23T10:12:18Z</time>
      </trkpt>
      <trkpt lat="48.17205" lon="5.90047">
        <ele>351.05</ele>
        <time>2021-06-23T10:12:26Z</time>
      </trkpt>
      <trkpt lat="48.1725" lon="5.90024">
        <ele>351.36</ele>
        <time>2021-06-23T10:12:35Z</time>
      </trkpt>
      <trkpt lat="48.17276" lon="5.90008">
        <ele>350.6</ele>
        <time>2021-06-23T10:12:44Z</time>
      </trkpt>
      <trkpt lat="48.17291" lon="5.89996">
        <ele>349.72</ele>
        <time>2021-06-23T10:12:52Z</time>
      </trkpt>
      <trkpt lat="48.17365" lon="5.89926">
        <ele>346.84</ele>
        <time>2021-06-23T10:13:01Z</time>
      </trkpt>
      <trkpt lat="48.175" lon="5.89792">
        <ele>346.04</ele>
        <time>2021-06-23T10:13:10Z</time>
      </trkpt>
      <trkpt lat="48.17582" lon="5.89717">
        <ele>343.81</ele>
        <time>2021-06-23T10:13:18Z</time>
      </trkpt>
      <trkpt lat="48.1786" lon="5.89512">
        <ele>340.51</ele>
        <time>2021-06-23T10:13:27Z</time>
      </trkpt>
      <trkpt lat="48.17884" lon="5.89502">
        <ele>340.06</ele>
        <time>2021-06-23T10:13:36Z</time>
      </trkpt>
      <trkpt lat="48.17892" lon="5.89503">
        <ele>340.22</ele>
        <time>2021-06-23T10:13:44Z</time>
      </trkpt>
      <trkpt lat="48.17995" lon="5.89481">
        <ele>338.91</ele>
        <time>2021-06-23T10:13:53Z</time>
      </trkpt>
      <trkpt lat="48.18065" lon="5.8948">
        <ele>338</ele>
        <time>2021-06-23T10:14:02Z</time>
      </trkpt>
      <trkpt lat="48.18208" lon="5.89492">
        <ele>340.55</ele>
        <time>2021-06-23T10:14:10Z</time>
      </trkpt>
      <trkpt lat="48.18265" lon="5.89488">
        <ele>341.16</ele>
        <time>2021-06-23T10:14:19Z</time>
      </trkpt>
      <trkpt lat="48.1834" lon="5.89456">
        <ele>339.85</ele>
        <time>2021-06-23T10:14:28Z</time>
      </trkpt>
      <trkpt lat="48.18366" lon="5.89455">
        <ele>339.07</ele>
        <time>2021-06-23T10:14:36Z</time>
      </trkpt>
      <trkpt lat="48.18439" lon="5.89468">
        <ele>336.97</ele>
        <time>2021-06-23T10:14:45Z</time>
      </trkpt>
      <trkpt lat="48.185" lon="5.89468">
        <ele>337.17</ele>
        <time>2021-06-23T10:14:54Z</time>
      </trkpt>
      <trkpt lat="48.18537" lon="5.8946">
        <ele>337.71</ele>
        <time>2021-06-23T10:15:03Z</time>
      </trkpt>
      <trkpt lat="48.18643" lon="5.89426">
        <ele>338.11</ele>
        <time>2021-06-23T10:15:11Z</time>
      </trkpt>
      <trkpt lat="48.18753" lon="5.89385">
        <ele>336.74</ele>
        <time>2021-06-23T10:15:20Z</time>
      </trkpt>
      <trkpt lat="48.18857" lon="5.89355">
        <ele>335.78</ele>
        <time>2021-06-23T10:15:29Z</time>
      </trkpt>
      <trkpt lat="48.18881" lon="5.89356">
        <ele>335.81</ele>
        <time>2021-06-23T10:15:37Z</time>
      </trkpt>
      <trkpt lat="48.18917" lon="5.89368">
        <ele>337.23</ele>
        <time>2021-06-23T10:15:46Z</time>
      </trkpt>
      <trkpt lat="48.18939" lon="5.89385">
        <ele>337.95</ele>
        <time>2021-06-23T10:15:55Z</time>
      </trkpt>
      <trkpt lat="48.18939" lon="5.89385">
        <ele>337.95</ele>
        <time>2021-06-23T10:15:55Z</time>
      </trkpt>
      <trkpt lat="48.18945" lon="5.89389">
        <ele>338</ele>
        <time>2021-06-23T10:16:01Z</time>
      </trkpt>
      <trkpt lat="48.18969" lon="5.89419">
        <ele>338.19</ele>
        <time>2021-06-23T10:16:08Z</time>
      </trkpt>
      <trkpt lat="48.18984" lon="5.89448">
        <ele>338.69</ele>
        <time>2021-06-23T10:16:15Z</time>
      </trkpt>
      <trkpt lat="48.18993" lon="5.89476">
        <ele>339.39</ele>
        <time>2021-06-23T10:16:22Z</time>
      </trkpt>
      <trkpt lat="48.18999" lon="5.89507">
        <ele>340.29</ele>
        <time>2021-06-23T10:16:29Z</time>
      </trkpt>
      <trkpt lat="48.19002" lon="5.89537">
        <ele>340.92</ele>
        <time>2021-06-23T10:16:35Z</time>
      </trkpt>
      <trkpt lat="48.18999" lon="5.89606">
        <ele>342.06</ele>
        <time>2021-06-23T10:16:42Z</time>
      </trkpt>
      <trkpt lat="48.18956" lon="5.89982">
        <ele>345.1</ele>
        <time>2021-06-23T10:16:49Z</time>
      </trkpt>
      <trkpt lat="48.18952" lon="5.90033">
        <ele>346.35</ele>
        <time>2021-06-23T10:16:56Z</time>
      </trkpt>
      <trkpt lat="48.18948" lon="5.90102">
        <ele>344.86</ele>
        <time>2021-06-23T10:17:03Z</time>
      </trkpt>
      <trkpt lat="48.18954" lon="5.90196">
        <ele>346.34</ele>
        <time>2021-06-23T10:17:09Z</time>
      </trkpt>
      <trkpt lat="48.18949" lon="5.90198">
        <ele>346.79</ele>
        <time>2021-06-23T10:17:14Z</time>
      </trkpt>
      <trkpt lat="48.18945" lon="5.90203">
        <ele>347.3</ele>
        <time>2021-06-23T10:17:18Z</time>
      </trkpt>
      <trkpt lat="48.1894" lon="5.90215">
        <ele>348.37</ele>
        <time>2021-06-23T10:17:22Z</time>
      </trkpt>
      <trkpt lat="48.1894" lon="5.90225">
        <ele>348.77</ele>
        <time>2021-06-23T10:17:26Z</time>
      </trkpt>
      <trkpt lat="48.18944" lon="5.90237">
        <ele>348.61</ele>
        <time>2021-06-23T10:17:30Z</time>
      </trkpt>
      <trkpt lat="48.18952" lon="5.90244">
        <ele>348.25</ele>
        <time>2021-06-23T10:17:34Z</time>
      </trkpt>
      <trkpt lat="48.18958" lon="5.90245">
        <ele>347.83</ele>
        <time>2021-06-23T10:17:39Z</time>
      </trkpt>
      <trkpt lat="48.18965" lon="5.90348">
        <ele>349.25</ele>
        <time>2021-06-23T10:17:43Z</time>
      </trkpt>
      <trkpt lat="48.1898" lon="5.90577">
        <ele>350.37</ele>
        <time>2021-06-23T10:17:47Z</time>
      </trkpt>
      <trkpt lat="48.18984" lon="5.90689">
        <ele>353.05</ele>
        <time>2021-06-23T10:17:51Z</time>
      </trkpt>
      <trkpt lat="48.18984" lon="5.90822">
        <ele>353.92</ele>
        <time>2021-06-23T10:17:55Z</time>
      </trkpt>
      <trkpt lat="48.18964" lon="5.91268">
        <ele>358.63</ele>
        <time>2021-06-23T10:18:00Z</time>
      </trkpt>
      <trkpt lat="48.18965" lon="5.91313">
        <ele>360.25</ele>
        <time>2021-06-23T10:18:04Z</time>
      </trkpt>
      <trkpt lat="48.18977" lon="5.9141">
        <ele>363</ele>
        <time>2021-06-23T10:18:08Z</time>
      </trkpt>
      <trkpt lat="48.19015" lon="5.91637">
        <ele>364.46</ele>
        <time>2021-06-23T10:18:12Z</time>
      </trkpt>
      <trkpt lat="48.1902" lon="5.91704">
        <ele>365.1</ele>
        <time>2021-06-23T10:18:16Z</time>
      </trkpt>
      <trkpt lat="48.19018" lon="5.91719">
        <ele>365.3</ele>
        <time>2021-06-23T10:18:21Z</time>
      </trkpt>
      <trkpt lat="48.19011" lon="5.91736">
        <ele>366</ele>
        <time>2021-06-23T10:18:25Z</time>
      </trkpt>
      <trkpt lat="48.19002" lon="5.91744">
        <ele>366.03</ele>
        <time>2021-06-23T10:18:26Z</time>
      </trkpt>
      <trkpt lat="48.18997" lon="5.91753">
        <ele>366.11</ele>
        <time>2021-06-23T10:18:27Z</time>
      </trkpt>
      <trkpt lat="48.18993" lon="5.91764">
        <ele>366.48</ele>
        <time>2021-06-23T10:18:28Z</time>
      </trkpt>
      <trkpt lat="48.18992" lon="5.91775">
        <ele>366.9</ele>
        <time>2021-06-23T10:18:30Z</time>
      </trkpt>
      <trkpt lat="48.18995" lon="5.9179">
        <ele>367.95</ele>
        <time>2021-06-23T10:18:31Z</time>
      </trkpt>
      <trkpt lat="48.19001" lon="5.91803">
        <ele>368.83</ele>
        <time>2021-06-23T10:18:32Z</time>
      </trkpt>
      <trkpt lat="48.1901" lon="5.91812">
        <ele>369.36</ele>
        <time>2021-06-23T10:18:33Z</time>
      </trkpt>
      <trkpt lat="48.19021" lon="5.91814">
        <ele>369.38</ele>
        <time>2021-06-23T10:18:35Z</time>
      </trkpt>
      <trkpt lat="48.19027" lon="5.91825">
        <ele>369.72</ele>
        <time>2021-06-23T10:18:36Z</time>
      </trkpt>
      <trkpt lat="48.19046" lon="5.91876">
        <ele>371.1</ele>
        <time>2021-06-23T10:18:37Z</time>
      </trkpt>
      <trkpt lat="48.19056" lon="5.91916">
        <ele>373.91</ele>
        <time>2021-06-23T10:18:38Z</time>
      </trkpt>
      <trkpt lat="48.19069" lon="5.91979">
        <ele>376.65</ele>
        <time>2021-06-23T10:18:40Z</time>
      </trkpt>
      <trkpt lat="48.19076" lon="5.92034">
        <ele>377.45</ele>
        <time>2021-06-23T10:18:41Z</time>
      </trkpt>
      <trkpt lat="48.19091" lon="5.92233">
        <ele>379.38</ele>
        <time>2021-06-23T10:18:42Z</time>
      </trkpt>
      <trkpt lat="48.19095" lon="5.92266">
        <ele>378.98</ele>
        <time>2021-06-23T10:18:43Z</time>
      </trkpt>
      <trkpt lat="48.19095" lon="5.92266">
        <ele>378.98</ele>
        <time>2021-06-23T10:18:43Z</time>
      </trkpt>
      <trkpt lat="48.19099" lon="5.92301">
        <ele>378.57</ele>
        <time>2021-06-23T10:18:46Z</time>
      </trkpt>
      <trkpt lat="48.19108" lon="5.92338">
        <ele>374.86</ele>
        <time>2021-06-23T10:18:49Z</time>
      </trkpt>
      <trkpt lat="48.19118" lon="5.92372">
        <ele>374.77</ele>
        <time>2021-06-23T10:18:52Z</time>
      </trkpt>
      <trkpt lat="48.19187" lon="5.92552">
        <ele>380.62</ele>
        <time>2021-06-23T10:18:55Z</time>
      </trkpt>
      <trkpt lat="48.19237" lon="5.92666">
        <ele>376.96</ele>
        <time>2021-06-23T10:18:58Z</time>
      </trkpt>
      <trkpt lat="48.19292" lon="5.92783">
        <ele>375.39</ele>
        <time>2021-06-23T10:19:01Z</time>
      </trkpt>
      <trkpt lat="48.19344" lon="5.929">
        <ele>369.41</ele>
        <time>2021-06-23T10:19:04Z</time>
      </trkpt>
      <trkpt lat="48.19355" lon="5.92932">
        <ele>366.85</ele>
        <time>2021-06-23T10:19:07Z</time>
      </trkpt>
      <trkpt lat="48.19354" lon="5.92949">
        <ele>366.35</ele>
        <time>2021-06-23T10:19:09Z</time>
      </trkpt>
      <trkpt lat="48.19347" lon="5.92973">
        <ele>366.04</ele>
        <time>2021-06-23T10:19:10Z</time>
      </trkpt>
      <trkpt lat="48.19339" lon="5.92984">
        <ele>366.55</ele>
        <time>2021-06-23T10:19:11Z</time>
      </trkpt>
      <trkpt lat="48.19286" lon="5.93038">
        <ele>374.02</ele>
        <time>2021-06-23T10:19:13Z</time>
      </trkpt>
      <trkpt lat="48.19286" lon="5.93038">
        <ele>374.02</ele>
        <time>2021-06-23T10:19:13Z</time>
      </trkpt>
      <trkpt lat="48.19274" lon="5.93053">
        <ele>375.08</ele>
        <time>2021-06-23T10:19:18Z</time>
      </trkpt>
      <trkpt lat="48.19234" lon="5.93094">
        <ele>377.49</ele>
        <time>2021-06-23T10:19:23Z</time>
      </trkpt>
      <trkpt lat="48.19197" lon="5.93145">
        <ele>379.35</ele>
        <time>2021-06-23T10:19:28Z</time>
      </trkpt>
      <trkpt lat="48.19179" lon="5.93174">
        <ele>379.43</ele>
        <time>2021-06-23T10:19:33Z</time>
      </trkpt>
      <trkpt lat="48.19161" lon="5.93209">
        <ele>378.6</ele>
        <time>2021-06-23T10:19:38Z</time>
      </trkpt>
      <trkpt lat="48.19136" lon="5.93267">
        <ele>378.66</ele>
        <time>2021-06-23T10:19:43Z</time>
      </trkpt>
      <trkpt lat="48.18791" lon="5.94265">
        <ele>363.94</ele>
        <time>2021-06-23T10:19:48Z</time>
      </trkpt>
      <trkpt lat="48.18762" lon="5.94357">
        <ele>361.12</ele>
        <time>2021-06-23T10:19:53Z</time>
      </trkpt>
      <trkpt lat="48.18748" lon="5.94413">
        <ele>359.85</ele>
        <time>2021-06-23T10:19:58Z</time>
      </trkpt>
      <trkpt lat="48.18734" lon="5.94479">
        <ele>361.41</ele>
        <time>2021-06-23T10:20:03Z</time>
      </trkpt>
      <trkpt lat="48.18723" lon="5.94576">
        <ele>365.67</ele>
        <time>2021-06-23T10:20:07Z</time>
      </trkpt>
      <trkpt lat="48.18719" lon="5.94625">
        <ele>368.55</ele>
        <time>2021-06-23T10:20:12Z</time>
      </trkpt>
      <trkpt lat="48.18718" lon="5.94675">
        <ele>370.85</ele>
        <time>2021-06-23T10:20:17Z</time>
      </trkpt>
      <trkpt lat="48.18719" lon="5.94738">
        <ele>375.05</ele>
        <time>2021-06-23T10:20:22Z</time>
      </trkpt>
      <trkpt lat="48.18722" lon="5.94805">
        <ele>376</ele>
        <time>2021-06-23T10:20:27Z</time>
      </trkpt>
      <trkpt lat="48.1873" lon="5.94862">
        <ele>381.93</ele>
        <time>2021-06-23T10:20:32Z</time>
      </trkpt>
      <trkpt lat="48.1873" lon="5.94862">
        <ele>381.93</ele>
        <time>2021-06-23T10:20:32Z</time>
      </trkpt>
      <trkpt lat="48.18912" lon="5.9617">
        <ele>401.18</ele>
        <time>2021-06-23T10:20:44Z</time>
      </trkpt>
      <trkpt lat="48.18947" lon="5.96368">
        <ele>396.98</ele>
        <time>2021-06-23T10:20:56Z</time>
      </trkpt>
      <trkpt lat="48.1899" lon="5.96561">
        <ele>394.57</ele>
        <time>2021-06-23T10:21:08Z</time>
      </trkpt>
      <trkpt lat="48.19051" lon="5.96781">
        <ele>385.64</ele>
        <time>2021-06-23T10:21:20Z</time>
      </trkpt>
      <trkpt lat="48.19132" lon="5.97023">
        <ele>378.39</ele>
        <time>2021-06-23T10:21:32Z</time>
      </trkpt>
      <trkpt lat="48.19524" lon="5.98023">
        <ele>366.14</ele>
        <time>2021-06-23T10:21:44Z</time>
      </trkpt>
      <trkpt lat="48.19544" lon="5.98072">
        <ele>362.51</ele>
        <time>2021-06-23T10:21:56Z</time>
      </trkpt>
      <trkpt lat="48.19638" lon="5.98316">
        <ele>363.38</ele>
        <time>2021-06-23T10:22:08Z</time>
      </trkpt>
      <trkpt lat="48.19651" lon="5.98354">
        <ele>363.45</ele>
        <time>2021-06-23T10:22:20Z</time>
      </trkpt>
      <trkpt lat="48.19663" lon="5.98401">
        <ele>363.68</ele>
        <time>2021-06-23T10:22:32Z</time>
      </trkpt>
      <trkpt lat="48.19677" lon="5.98481">
        <ele>362.71</ele>
        <time>2021-06-23T10:22:44Z</time>
      </trkpt>
      <trkpt lat="48.19682" lon="5.98555">
        <ele>362.89</ele>
        <time>2021-06-23T10:22:56Z</time>
      </trkpt>
      <trkpt lat="48.1968" lon="5.98624">
        <ele>364.65</ele>
        <time>2021-06-23T10:23:09Z</time>
      </trkpt>
      <trkpt lat="48.1968" lon="5.98624">
        <ele>364.65</ele>
        <time>2021-06-23T10:23:09Z</time>
      </trkpt>
      <trkpt lat="48.19672" lon="5.98701">
        <ele>363.76</ele>
        <time>2021-06-23T10:23:11Z</time>
      </trkpt>
      <trkpt lat="48.19656" lon="5.98773">
        <ele>363.44</ele>
        <time>2021-06-23T10:23:13Z</time>
      </trkpt>
      <trkpt lat="48.19647" lon="5.98801">
        <ele>362.86</ele>
        <time>2021-06-23T10:23:16Z</time>
      </trkpt>
      <trkpt lat="48.19621" lon="5.98857">
        <ele>362.05</ele>
        <time>2021-06-23T10:23:18Z</time>
      </trkpt>
      <trkpt lat="48.1959" lon="5.98909">
        <ele>362.76</ele>
        <time>2021-06-23T10:23:21Z</time>
      </trkpt>
      <trkpt lat="48.19577" lon="5.98911">
        <ele>363.21</ele>
        <time>2021-06-23T10:23:24Z</time>
      </trkpt>
      <trkpt lat="48.19567" lon="5.98918">
        <ele>363.62</ele>
        <time>2021-06-23T10:23:27Z</time>
      </trkpt>
      <trkpt lat="48.1956" lon="5.98929">
        <ele>363.9</ele>
        <time>2021-06-23T10:23:29Z</time>
      </trkpt>
      <trkpt lat="48.19556" lon="5.98943">
        <ele>364</ele>
        <time>2021-06-23T10:23:32Z</time>
      </trkpt>
      <trkpt lat="48.19555" lon="5.98953">
        <ele>363.98</ele>
        <time>2021-06-23T10:23:35Z</time>
      </trkpt>
      <trkpt lat="48.19556" lon="5.98967">
        <ele>364</ele>
        <time>2021-06-23T10:23:38Z</time>
      </trkpt>
      <trkpt lat="48.1956" lon="5.98979">
        <ele>364.45</ele>
        <time>2021-06-23T10:23:41Z</time>
      </trkpt>
      <trkpt lat="48.19557" lon="5.98999">
        <ele>365.88</ele>
        <time>2021-06-23T10:23:44Z</time>
      </trkpt>
      <trkpt lat="48.19554" lon="5.99013">
        <ele>366.42</ele>
        <time>2021-06-23T10:23:46Z</time>
      </trkpt>
      <trkpt lat="48.19522" lon="5.99078">
        <ele>366.2</ele>
        <time>2021-06-23T10:23:49Z</time>
      </trkpt>
      <trkpt lat="48.19513" lon="5.99098">
        <ele>365.75</ele>
        <time>2021-06-23T10:23:52Z</time>
      </trkpt>
      <trkpt lat="48.19451" lon="5.99193">
        <ele>367.77</ele>
        <time>2021-06-23T10:23:55Z</time>
      </trkpt>
      <trkpt lat="48.19147" lon="5.99636">
        <ele>376.43</ele>
        <time>2021-06-23T10:23:58Z</time>
      </trkpt>
      <trkpt lat="48.19119" lon="5.99669">
        <ele>376.6</ele>
        <time>2021-06-23T10:24:01Z</time>
      </trkpt>
      <trkpt lat="48.1908" lon="5.99702">
        <ele>375.74</ele>
        <time>2021-06-23T10:24:04Z</time>
      </trkpt>
      <trkpt lat="48.19051" lon="5.99718">
        <ele>376.17</ele>
        <time>2021-06-23T10:24:06Z</time>
      </trkpt>
      <trkpt lat="48.18951" lon="5.99761">
        <ele>376.61</ele>
        <time>2021-06-23T10:24:09Z</time>
      </trkpt>
      <trkpt lat="48.18902" lon="5.99794">
        <ele>377.74</ele>
        <time>2021-06-23T10:24:12Z</time>
      </trkpt>
      <trkpt lat="48.18867" lon="5.99828">
        <ele>378.14</ele>
        <time>2021-06-23T10:24:15Z</time>
      </trkpt>
      <trkpt lat="48.18847" lon="5.99852">
        <ele>378.5</ele>
        <time>2021-06-23T10:24:18Z</time>
      </trkpt>
      <trkpt lat="48.18826" lon="5.9989">
        <ele>377.5</ele>
        <time>2021-06-23T10:24:21Z</time>
      </trkpt>
      <trkpt lat="48.18826" lon="5.9989">
        <ele>377.5</ele>
        <time>2021-06-23T10:24:21Z</time>
      </trkpt>
      <trkpt lat="48.18812" lon="5.99935">
        <ele>377.75</ele>
        <time>2021-06-23T10:24:26Z</time>
      </trkpt>
      <trkpt lat="48.18806" lon="5.99989">
        <ele>378.01</ele>
        <time>2021-06-23T10:24:32Z</time>
      </trkpt>
      <trkpt lat="48.18805" lon="6.0002">
        <ele>377.27</ele>
        <time>2021-06-23T10:24:38Z</time>
      </trkpt>
      <trkpt lat="48.18821" lon="6.00191">
        <ele>379.47</ele>
        <time>2021-06-23T10:24:44Z</time>
      </trkpt>
      <trkpt lat="48.18824" lon="6.00264">
        <ele>381.52</ele>
        <time>2021-06-23T10:24:50Z</time>
      </trkpt>
      <trkpt lat="48.18821" lon="6.00314">
        <ele>381.86</ele>
        <time>2021-06-23T10:24:56Z</time>
      </trkpt>
      <trkpt lat="48.18792" lon="6.00562">
        <ele>387.1</ele>
        <time>2021-06-23T10:25:02Z</time>
      </trkpt>
      <trkpt lat="48.18784" lon="6.00607">
        <ele>387.77</ele>
        <time>2021-06-23T10:25:08Z</time>
      </trkpt>
      <trkpt lat="48.18766" lon="6.00673">
        <ele>389.86</ele>
        <time>2021-06-23T10:25:14Z</time>
      </trkpt>
      <trkpt lat="48.18745" lon="6.00725">
        <ele>392.17</ele>
        <time>2021-06-23T10:25:20Z</time>
      </trkpt>
      <trkpt lat="48.18691" lon="6.00851">
        <ele>396.13</ele>
        <time>2021-06-23T10:25:26Z</time>
      </trkpt>
      <trkpt lat="48.18612" lon="6.01046">
        <ele>399.98</ele>
        <time>2021-06-23T10:25:31Z</time>
      </trkpt>
      <trkpt lat="48.18585" lon="6.01116">
        <ele>397.82</ele>
        <time>2021-06-23T10:25:37Z</time>
      </trkpt>
      <trkpt lat="48.18577" lon="6.0114">
        <ele>397.44</ele>
        <time>2021-06-23T10:25:43Z</time>
      </trkpt>
      <trkpt lat="48.18574" lon="6.01168">
        <ele>397.67</ele>
        <time>2021-06-23T10:25:49Z</time>
      </trkpt>
      <trkpt lat="48.18575" lon="6.0118">
        <ele>397.74</ele>
        <time>2021-06-23T10:25:55Z</time>
      </trkpt>
      <trkpt lat="48.18589" lon="6.0125">
        <ele>398.62</ele>
        <time>2021-06-23T10:26:01Z</time>
      </trkpt>
      <trkpt lat="48.18595" lon="6.01307">
        <ele>398.34</ele>
        <time>2021-06-23T10:26:07Z</time>
      </trkpt>
      <trkpt lat="48.18593" lon="6.01414">
        <ele>396.71</ele>
        <time>2021-06-23T10:26:13Z</time>
      </trkpt>
      <trkpt lat="48.18593" lon="6.01475">
        <ele>397</ele>
        <time>2021-06-23T10:26:19Z</time>
      </trkpt>
      <trkpt lat="48.18607" lon="6.0216">
        <ele>410.39</ele>
        <time>2021-06-23T10:26:25Z</time>
      </trkpt>
      <trkpt lat="48.18612" lon="6.02255">
        <ele>413.21</ele>
        <time>2021-06-23T10:26:30Z</time>
      </trkpt>
      <trkpt lat="48.18627" lon="6.02465">
        <ele>420.33</ele>
        <time>2021-06-23T10:26:36Z</time>
      </trkpt>
      <trkpt lat="48.18627" lon="6.02555">
        <ele>422</ele>
        <time>2021-06-23T10:26:42Z</time>
      </trkpt>
      <trkpt lat="48.18622" lon="6.02639">
        <ele>424.41</ele>
        <time>2021-06-23T10:26:48Z</time>
      </trkpt>
      <trkpt lat="48.18603" lon="6.02865">
        <ele>431.38</ele>
        <time>2021-06-23T10:26:54Z</time>
      </trkpt>
      <trkpt lat="48.18603" lon="6.02886">
        <ele>431.48</ele>
        <time>2021-06-23T10:27:00Z</time>
      </trkpt>
      <trkpt lat="48.18603" lon="6.02886">
        <ele>431.48</ele>
        <time>2021-06-23T10:27:00Z</time>
      </trkpt>
      <trkpt lat="48.18603" lon="6.02956">
        <ele>431.58</ele>
        <time>2021-06-23T10:27:04Z</time>
      </trkpt>
      <trkpt lat="48.18606" lon="6.02989">
        <ele>430.89</ele>
        <time>2021-06-23T10:27:08Z</time>
      </trkpt>
      <trkpt lat="48.18612" lon="6.03048">
        <ele>430.66</ele>
        <time>2021-06-23T10:27:13Z</time>
      </trkpt>
      <trkpt lat="48.18623" lon="6.03114">
        <ele>431</ele>
        <time>2021-06-23T10:27:17Z</time>
      </trkpt>
      <trkpt lat="48.1864" lon="6.03179">
        <ele>429.55</ele>
        <time>2021-06-23T10:27:21Z</time>
      </trkpt>
      <trkpt lat="48.18658" lon="6.03234">
        <ele>427.71</ele>
        <time>2021-06-23T10:27:26Z</time>
      </trkpt>
      <trkpt lat="48.18672" lon="6.03271">
        <ele>426.24</ele>
        <time>2021-06-23T10:27:30Z</time>
      </trkpt>
      <trkpt lat="48.18693" lon="6.03317">
        <ele>425.54</ele>
        <time>2021-06-23T10:27:34Z</time>
      </trkpt>
      <trkpt lat="48.18721" lon="6.03365">
        <ele>423.85</ele>
        <time>2021-06-23T10:27:38Z</time>
      </trkpt>
      <trkpt lat="48.18959" lon="6.0369">
        <ele>407.79</ele>
        <time>2021-06-23T10:27:43Z</time>
      </trkpt>
      <trkpt lat="48.18986" lon="6.0373">
        <ele>405.98</ele>
        <time>2021-06-23T10:27:47Z</time>
      </trkpt>
      <trkpt lat="48.19017" lon="6.03783">
        <ele>405.31</ele>
        <time>2021-06-23T10:27:51Z</time>
      </trkpt>
      <trkpt lat="48.19038" lon="6.03828">
        <ele>403.76</ele>
        <time>2021-06-23T10:27:55Z</time>
      </trkpt>
      <trkpt lat="48.19094" lon="6.03966">
        <ele>402.52</ele>
        <time>2021-06-23T10:28:00Z</time>
      </trkpt>
      <trkpt lat="48.19127" lon="6.04043">
        <ele>403.85</ele>
        <time>2021-06-23T10:28:04Z</time>
      </trkpt>
      <trkpt lat="48.19155" lon="6.04093">
        <ele>404.23</ele>
        <time>2021-06-23T10:28:08Z</time>
      </trkpt>
      <trkpt lat="48.19181" lon="6.04134">
        <ele>403.19</ele>
        <time>2021-06-23T10:28:13Z</time>
      </trkpt>
      <trkpt lat="48.19325" lon="6.0433">
        <ele>395.57</ele>
        <time>2021-06-23T10:28:17Z</time>
      </trkpt>
      <trkpt lat="48.19623" lon="6.04726">
        <ele>385.37</ele>
        <time>2021-06-23T10:28:21Z</time>
      </trkpt>
      <trkpt lat="48.19665" lon="6.04791">
        <ele>383.03</ele>
        <time>2021-06-23T10:28:25Z</time>
      </trkpt>
      <trkpt lat="48.19686" lon="6.04837">
        <ele>380.83</ele>
        <time>2021-06-23T10:28:30Z</time>
      </trkpt>
      <trkpt lat="48.197" lon="6.04876">
        <ele>379.69</ele>
        <time>2021-06-23T10:28:34Z</time>
      </trkpt>
      <trkpt lat="48.1971" lon="6.0491">
        <ele>379.36</ele>
        <time>2021-06-23T10:28:38Z</time>
      </trkpt>
      <trkpt lat="48.19721" lon="6.04966">
        <ele>378.92</ele>
        <time>2021-06-23T10:28:42Z</time>
      </trkpt>
      <trkpt lat="48.19726" lon="6.05006">
        <ele>380.26</ele>
        <time>2021-06-23T10:28:47Z</time>
      </trkpt>
      <trkpt lat="48.19737" lon="6.05003">
        <ele>381.06</ele>
        <time>2021-06-23T10:28:48Z</time>
      </trkpt>
      <trkpt lat="48.19759" lon="6.04982">
        <ele>382.19</ele>
        <time>2021-06-23T10:28:48Z</time>
      </trkpt>
      <trkpt lat="48.19725" lon="6.04968">
        <ele>380.56</ele>
        <time>2021-06-23T10:28:50Z</time>
      </trkpt>
      <trkpt lat="48.19725" lon="6.04968">
        <ele>380.56</ele>
        <time>2021-06-23T10:28:50Z</time>
      </trkpt>
      <trkpt lat="48.19721" lon="6.04966">
        <ele>378.92</ele>
        <time>2021-06-23T10:28:50Z</time>
      </trkpt>
      <trkpt lat="48.19726" lon="6.05006">
        <ele>380.26</ele>
        <time>2021-06-23T10:28:56Z</time>
      </trkpt>
      <trkpt lat="48.19727" lon="6.05032">
        <ele>380.18</ele>
        <time>2021-06-23T10:29:01Z</time>
      </trkpt>
      <trkpt lat="48.19726" lon="6.05077">
        <ele>378.48</ele>
        <time>2021-06-23T10:29:06Z</time>
      </trkpt>
      <trkpt lat="48.19722" lon="6.05128">
        <ele>377</ele>
        <time>2021-06-23T10:29:12Z</time>
      </trkpt>
      <trkpt lat="48.1971" lon="6.0519">
        <ele>377.6</ele>
        <time>2021-06-23T10:29:17Z</time>
      </trkpt>
      <trkpt lat="48.19701" lon="6.05224">
        <ele>377.48</ele>
        <time>2021-06-23T10:29:22Z</time>
      </trkpt>
      <trkpt lat="48.19645" lon="6.05359">
        <ele>375.16</ele>
        <time>2021-06-23T10:29:28Z</time>
      </trkpt>
      <trkpt lat="48.19568" lon="6.05539">
        <ele>368.86</ele>
        <time>2021-06-23T10:29:33Z</time>
      </trkpt>
      <trkpt lat="48.19547" lon="6.05599">
        <ele>365.27</ele>
        <time>2021-06-23T10:29:38Z</time>
      </trkpt>
      <trkpt lat="48.1943" lon="6.06032">
        <ele>350.92</ele>
        <time>2021-06-23T10:29:44Z</time>
      </trkpt>
      <trkpt lat="48.19406" lon="6.06127">
        <ele>348.79</ele>
        <time>2021-06-23T10:29:49Z</time>
      </trkpt>
      <trkpt lat="48.19381" lon="6.06214">
        <ele>345.08</ele>
        <time>2021-06-23T10:29:55Z</time>
      </trkpt>
      <trkpt lat="48.19364" lon="6.06264">
        <ele>343.11</ele>
        <time>2021-06-23T10:30:00Z</time>
      </trkpt>
      <trkpt lat="48.19343" lon="6.06316">
        <ele>343</ele>
        <time>2021-06-23T10:30:05Z</time>
      </trkpt>
      <trkpt lat="48.19214" lon="6.06594">
        <ele>343.83</ele>
        <time>2021-06-23T10:30:11Z</time>
      </trkpt>
      <trkpt lat="48.19191" lon="6.06648">
        <ele>344.89</ele>
        <time>2021-06-23T10:30:16Z</time>
      </trkpt>
      <trkpt lat="48.19176" lon="6.06688">
        <ele>343.11</ele>
        <time>2021-06-23T10:30:21Z</time>
      </trkpt>
      <trkpt lat="48.19131" lon="6.06849">
        <ele>335.59</ele>
        <time>2021-06-23T10:30:27Z</time>
      </trkpt>
      <trkpt lat="48.19093" lon="6.06996">
        <ele>335.06</ele>
        <time>2021-06-23T10:30:32Z</time>
      </trkpt>
      <trkpt lat="48.1908" lon="6.07084">
        <ele>333.89</ele>
        <time>2021-06-23T10:30:37Z</time>
      </trkpt>
      <trkpt lat="48.1898" lon="6.08052">
        <ele>321.26</ele>
        <time>2021-06-23T10:30:43Z</time>
      </trkpt>
      <trkpt lat="48.1897" lon="6.08159">
        <ele>317.92</ele>
        <time>2021-06-23T10:30:48Z</time>
      </trkpt>
      <trkpt lat="48.18967" lon="6.08227">
        <ele>315.53</ele>
        <time>2021-06-23T10:30:54Z</time>
      </trkpt>
      <trkpt lat="48.1897" lon="6.08276">
        <ele>313.97</ele>
        <time>2021-06-23T10:30:59Z</time>
      </trkpt>
      <trkpt lat="48.18972" lon="6.08299">
        <ele>312.44</ele>
        <time>2021-06-23T10:31:04Z</time>
      </trkpt>
      <trkpt lat="48.18979" lon="6.08347">
        <ele>309.89</ele>
        <time>2021-06-23T10:31:10Z</time>
      </trkpt>
      <trkpt lat="48.18979" lon="6.08347">
        <ele>309.89</ele>
        <time>2021-06-23T10:31:10Z</time>
      </trkpt>
      <trkpt lat="48.18992" lon="6.084">
        <ele>309</ele>
        <time>2021-06-23T10:31:14Z</time>
      </trkpt>
      <trkpt lat="48.19013" lon="6.08479">
        <ele>309.35</ele>
        <time>2021-06-23T10:31:18Z</time>
      </trkpt>
      <trkpt lat="48.19085" lon="6.08705">
        <ele>307.06</ele>
        <time>2021-06-23T10:31:22Z</time>
      </trkpt>
      <trkpt lat="48.19152" lon="6.08942">
        <ele>306.53</ele>
        <time>2021-06-23T10:31:27Z</time>
      </trkpt>
      <trkpt lat="48.19165" lon="6.09009">
        <ele>307.05</ele>
        <time>2021-06-23T10:31:31Z</time>
      </trkpt>
      <trkpt lat="48.19194" lon="6.09221">
        <ele>305.96</ele>
        <time>2021-06-23T10:31:35Z</time>
      </trkpt>
      <trkpt lat="48.19205" lon="6.09273">
        <ele>309.35</ele>
        <time>2021-06-23T10:31:39Z</time>
      </trkpt>
      <trkpt lat="48.19225" lon="6.09335">
        <ele>310.79</ele>
        <time>2021-06-23T10:31:44Z</time>
      </trkpt>
      <trkpt lat="48.19247" lon="6.09386">
        <ele>312.09</ele>
        <time>2021-06-23T10:31:48Z</time>
      </trkpt>
      <trkpt lat="48.19273" lon="6.09433">
        <ele>317.65</ele>
        <time>2021-06-23T10:31:52Z</time>
      </trkpt>
      <trkpt lat="48.1931" lon="6.09479">
        <ele>319.48</ele>
        <time>2021-06-23T10:31:56Z</time>
      </trkpt>
      <trkpt lat="48.19349" lon="6.09515">
        <ele>321.27</ele>
        <time>2021-06-23T10:32:01Z</time>
      </trkpt>
      <trkpt lat="48.19379" lon="6.09536">
        <ele>323.98</ele>
        <time>2021-06-23T10:32:05Z</time>
      </trkpt>
      <trkpt lat="48.19533" lon="6.09632">
        <ele>326.81</ele>
        <time>2021-06-23T10:32:09Z</time>
      </trkpt>
      <trkpt lat="48.19566" lon="6.09656">
        <ele>328.88</ele>
        <time>2021-06-23T10:32:13Z</time>
      </trkpt>
      <trkpt lat="48.19597" lon="6.09686">
        <ele>330.02</ele>
        <time>2021-06-23T10:32:18Z</time>
      </trkpt>
      <trkpt lat="48.19626" lon="6.09722">
        <ele>330.33</ele>
        <time>2021-06-23T10:32:22Z</time>
      </trkpt>
      <trkpt lat="48.19647" lon="6.09754">
        <ele>331.45</ele>
        <time>2021-06-23T10:32:26Z</time>
      </trkpt>
      <trkpt lat="48.19664" lon="6.09785">
        <ele>332.37</ele>
        <time>2021-06-23T10:32:30Z</time>
      </trkpt>
      <trkpt lat="48.19692" lon="6.09853">
        <ele>336.54</ele>
        <time>2021-06-23T10:32:34Z</time>
      </trkpt>
      <trkpt lat="48.19734" lon="6.09972">
        <ele>323.62</ele>
        <time>2021-06-23T10:32:39Z</time>
      </trkpt>
      <trkpt lat="48.19878" lon="6.10377">
        <ele>318.11</ele>
        <time>2021-06-23T10:32:43Z</time>
      </trkpt>
      <trkpt lat="48.1991" lon="6.10474">
        <ele>319.05</ele>
        <time>2021-06-23T10:32:47Z</time>
      </trkpt>
      <trkpt lat="48.19929" lon="6.10543">
        <ele>319.48</ele>
        <time>2021-06-23T10:32:51Z</time>
      </trkpt>
      <trkpt lat="48.20015" lon="6.10952">
        <ele>318.26</ele>
        <time>2021-06-23T10:32:56Z</time>
      </trkpt>
      <trkpt lat="48.20043" lon="6.1109">
        <ele>317.52</ele>
        <time>2021-06-23T10:33:00Z</time>
      </trkpt>
      <trkpt lat="48.20055" lon="6.11136">
        <ele>317.79</ele>
        <time>2021-06-23T10:33:04Z</time>
      </trkpt>
      <trkpt lat="48.20067" lon="6.11171">
        <ele>318.13</ele>
        <time>2021-06-23T10:33:08Z</time>
      </trkpt>
      <trkpt lat="48.20081" lon="6.11206">
        <ele>319.21</ele>
        <time>2021-06-23T10:33:13Z</time>
      </trkpt>
      <trkpt lat="48.20097" lon="6.1124">
        <ele>320.08</ele>
        <time>2021-06-23T10:33:17Z</time>
      </trkpt>
      <trkpt lat="48.20156" lon="6.11338">
        <ele>319.4</ele>
        <time>2021-06-23T10:33:21Z</time>
      </trkpt>
      <trkpt lat="48.20174" lon="6.1137">
        <ele>319.77</ele>
        <time>2021-06-23T10:33:25Z</time>
      </trkpt>
      <trkpt lat="48.2019" lon="6.11402">
        <ele>319.54</ele>
        <time>2021-06-23T10:33:30Z</time>
      </trkpt>
      <trkpt lat="48.20235" lon="6.11526">
        <ele>321.07</ele>
        <time>2021-06-23T10:33:34Z</time>
      </trkpt>
      <trkpt lat="48.20255" lon="6.11588">
        <ele>322.06</ele>
        <time>2021-06-23T10:33:38Z</time>
      </trkpt>
      <trkpt lat="48.20278" lon="6.1165">
        <ele>323.86</ele>
        <time>2021-06-23T10:33:42Z</time>
      </trkpt>
      <trkpt lat="48.20311" lon="6.11724">
        <ele>325.67</ele>
        <time>2021-06-23T10:33:47Z</time>
      </trkpt>
      <trkpt lat="48.20345" lon="6.11794">
        <ele>324.55</ele>
        <time>2021-06-23T10:33:51Z</time>
      </trkpt>
      <trkpt lat="48.20462" lon="6.11989">
        <ele>321.8</ele>
        <time>2021-06-23T10:33:55Z</time>
      </trkpt>
      <trkpt lat="48.20473" lon="6.1201">
        <ele>321.68</ele>
        <time>2021-06-23T10:33:59Z</time>
      </trkpt>
      <trkpt lat="48.2049" lon="6.12054">
        <ele>319.59</ele>
        <time>2021-06-23T10:34:04Z</time>
      </trkpt>
      <trkpt lat="48.20501" lon="6.12098">
        <ele>315.54</ele>
        <time>2021-06-23T10:34:08Z</time>
      </trkpt>
      <trkpt lat="48.2051" lon="6.12142">
        <ele>313.55</ele>
        <time>2021-06-23T10:34:12Z</time>
      </trkpt>
      <trkpt lat="48.20518" lon="6.12186">
        <ele>314.4</ele>
        <time>2021-06-23T10:34:16Z</time>
      </trkpt>
      <trkpt lat="48.20521" lon="6.12229">
        <ele>312.56</ele>
        <time>2021-06-23T10:34:21Z</time>
      </trkpt>
      <trkpt lat="48.2052" lon="6.1229">
        <ele>315.66</ele>
        <time>2021-06-23T10:34:25Z</time>
      </trkpt>
      <trkpt lat="48.2052" lon="6.1229">
        <ele>315.66</ele>
        <time>2021-06-23T10:34:25Z</time>
      </trkpt>
      <trkpt lat="48.20514" lon="6.12365">
        <ele>318.99</ele>
        <time>2021-06-23T10:34:32Z</time>
      </trkpt>
      <trkpt lat="48.20498" lon="6.125">
        <ele>312.77</ele>
        <time>2021-06-23T10:34:39Z</time>
      </trkpt>
      <trkpt lat="48.20483" lon="6.12624">
        <ele>316.48</ele>
        <time>2021-06-23T10:34:46Z</time>
      </trkpt>
      <trkpt lat="48.20467" lon="6.12769">
        <ele>312.97</ele>
        <time>2021-06-23T10:34:53Z</time>
      </trkpt>
      <trkpt lat="48.20445" lon="6.12992">
        <ele>320.41</ele>
        <time>2021-06-23T10:34:59Z</time>
      </trkpt>
      <trkpt lat="48.20445" lon="6.13041">
        <ele>319.01</ele>
        <time>2021-06-23T10:35:06Z</time>
      </trkpt>
      <trkpt lat="48.20449" lon="6.13094">
        <ele>315.07</ele>
        <time>2021-06-23T10:35:13Z</time>
      </trkpt>
      <trkpt lat="48.20472" lon="6.1326">
        <ele>306.37</ele>
        <time>2021-06-23T10:35:20Z</time>
      </trkpt>
      <trkpt lat="48.20474" lon="6.13322">
        <ele>301.74</ele>
        <time>2021-06-23T10:35:27Z</time>
      </trkpt>
      <trkpt lat="48.20473" lon="6.13371">
        <ele>304.17</ele>
        <time>2021-06-23T10:35:34Z</time>
      </trkpt>
      <trkpt lat="48.20468" lon="6.13425">
        <ele>303.53</ele>
        <time>2021-06-23T10:35:41Z</time>
      </trkpt>
      <trkpt lat="48.20442" lon="6.13573">
        <ele>299.35</ele>
        <time>2021-06-23T10:35:48Z</time>
      </trkpt>
      <trkpt lat="48.20404" lon="6.13739">
        <ele>296.09</ele>
        <time>2021-06-23T10:35:55Z</time>
      </trkpt>
      <trkpt lat="48.2036" lon="6.13933">
        <ele>291.56</ele>
        <time>2021-06-23T10:36:02Z</time>
      </trkpt>
      <trkpt lat="48.20315" lon="6.1408">
        <ele>290.09</ele>
        <time>2021-06-23T10:36:09Z</time>
      </trkpt>
      <trkpt lat="48.20285" lon="6.14253">
        <ele>285.87</ele>
        <time>2021-06-23T10:36:16Z</time>
      </trkpt>
      <trkpt lat="48.20229" lon="6.14583">
        <ele>282.73</ele>
        <time>2021-06-23T10:36:23Z</time>
      </trkpt>
      <trkpt lat="48.20222" lon="6.14626">
        <ele>283.53</ele>
        <time>2021-06-23T10:36:30Z</time>
      </trkpt>
      <trkpt lat="48.2018" lon="6.14881">
        <ele>287.53</ele>
        <time>2021-06-23T10:36:37Z</time>
      </trkpt>
      <trkpt lat="48.20173" lon="6.14934">
        <ele>289.18</ele>
        <time>2021-06-23T10:36:44Z</time>
      </trkpt>
      <trkpt lat="48.2017" lon="6.1498">
        <ele>290.04</ele>
        <time>2021-06-23T10:36:51Z</time>
      </trkpt>
      <trkpt lat="48.20172" lon="6.15021">
        <ele>291.98</ele>
        <time>2021-06-23T10:36:57Z</time>
      </trkpt>
      <trkpt lat="48.20214" lon="6.15443">
        <ele>286.72</ele>
        <time>2021-06-23T10:37:04Z</time>
      </trkpt>
      <trkpt lat="48.20214" lon="6.15443">
        <ele>286.72</ele>
        <time>2021-06-23T10:37:04Z</time>
      </trkpt>
      <trkpt lat="48.20233" lon="6.15623">
        <ele>285</ele>
        <time>2021-06-23T10:37:12Z</time>
      </trkpt>
      <trkpt lat="48.2024" lon="6.15667">
        <ele>284.7</ele>
        <time>2021-06-23T10:37:20Z</time>
      </trkpt>
      <trkpt lat="48.20293" lon="6.15902">
        <ele>282</ele>
        <time>2021-06-23T10:37:28Z</time>
      </trkpt>
      <trkpt lat="48.20411" lon="6.16411">
        <ele>290.16</ele>
        <time>2021-06-23T10:37:36Z</time>
      </trkpt>
      <trkpt lat="48.20411" lon="6.16438">
        <ele>289.85</ele>
        <time>2021-06-23T10:37:44Z</time>
      </trkpt>
      <trkpt lat="48.20409" lon="6.16443">
        <ele>289.73</ele>
        <time>2021-06-23T10:37:50Z</time>
      </trkpt>
      <trkpt lat="48.20408" lon="6.16456">
        <ele>289.96</ele>
        <time>2021-06-23T10:37:55Z</time>
      </trkpt>
      <trkpt lat="48.20411" lon="6.16464">
        <ele>290.38</ele>
        <time>2021-06-23T10:38:00Z</time>
      </trkpt>
      <trkpt lat="48.20417" lon="6.16469">
        <ele>290.93</ele>
        <time>2021-06-23T10:38:06Z</time>
      </trkpt>
      <trkpt lat="48.2043" lon="6.16491">
        <ele>293.09</ele>
        <time>2021-06-23T10:38:11Z</time>
      </trkpt>
      <trkpt lat="48.20434" lon="6.16515">
        <ele>294.08</ele>
        <time>2021-06-23T10:38:16Z</time>
      </trkpt>
      <trkpt lat="48.20479" lon="6.16704">
        <ele>300.22</ele>
        <time>2021-06-23T10:38:21Z</time>
      </trkpt>
      <trkpt lat="48.20499" lon="6.16774">
        <ele>302.05</ele>
        <time>2021-06-23T10:38:27Z</time>
      </trkpt>
      <trkpt lat="48.20527" lon="6.16846">
        <ele>306.92</ele>
        <time>2021-06-23T10:38:32Z</time>
      </trkpt>
      <trkpt lat="48.2056" lon="6.1691">
        <ele>310.78</ele>
        <time>2021-06-23T10:38:37Z</time>
      </trkpt>
      <trkpt lat="48.20588" lon="6.16958">
        <ele>314.51</ele>
        <time>2021-06-23T10:38:43Z</time>
      </trkpt>
      <trkpt lat="48.20646" lon="6.1704">
        <ele>316.82</ele>
        <time>2021-06-23T10:38:48Z</time>
      </trkpt>
      <trkpt lat="48.20782" lon="6.17259">
        <ele>313.71</ele>
        <time>2021-06-23T10:38:53Z</time>
      </trkpt>
      <trkpt lat="48.20975" lon="6.17558">
        <ele>311.41</ele>
        <time>2021-06-23T10:38:59Z</time>
      </trkpt>
      <trkpt lat="48.21057" lon="6.17688">
        <ele>315.48</ele>
        <time>2021-06-23T10:39:04Z</time>
      </trkpt>
      <trkpt lat="48.21072" lon="6.17716">
        <ele>317.76</ele>
        <time>2021-06-23T10:39:09Z</time>
      </trkpt>
      <trkpt lat="48.21108" lon="6.17811">
        <ele>323.9</ele>
        <time>2021-06-23T10:39:14Z</time>
      </trkpt>
      <trkpt lat="48.21126" lon="6.17886">
        <ele>324.77</ele>
        <time>2021-06-23T10:39:20Z</time>
      </trkpt>
      <trkpt lat="48.21141" lon="6.17974">
        <ele>328.21</ele>
        <time>2021-06-23T10:39:25Z</time>
      </trkpt>
      <trkpt lat="48.21146" lon="6.18045">
        <ele>329.43</ele>
        <time>2021-06-23T10:39:30Z</time>
      </trkpt>
      <trkpt lat="48.21146" lon="6.18071">
        <ele>329.89</ele>
        <time>2021-06-23T10:39:36Z</time>
      </trkpt>
      <trkpt lat="48.21136" lon="6.1822">
        <ele>325.16</ele>
        <time>2021-06-23T10:39:41Z</time>
      </trkpt>
      <trkpt lat="48.21135" lon="6.18281">
        <ele>326.4</ele>
        <time>2021-06-23T10:39:46Z</time>
      </trkpt>
      <trkpt lat="48.21137" lon="6.18323">
        <ele>327.63</ele>
        <time>2021-06-23T10:39:52Z</time>
      </trkpt>
      <trkpt lat="48.21144" lon="6.18385">
        <ele>328.07</ele>
        <time>2021-06-23T10:39:57Z</time>
      </trkpt>
      <trkpt lat="48.21171" lon="6.1855">
        <ele>332.63</ele>
        <time>2021-06-23T10:40:02Z</time>
      </trkpt>
      <trkpt lat="48.21182" lon="6.18607">
        <ele>334.37</ele>
        <time>2021-06-23T10:40:07Z</time>
      </trkpt>
      <trkpt lat="48.21196" lon="6.18651">
        <ele>335.39</ele>
        <time>2021-06-23T10:40:13Z</time>
      </trkpt>
      <trkpt lat="48.21264" lon="6.18848">
        <ele>338.26</ele>
        <time>2021-06-23T10:40:18Z</time>
      </trkpt>
      <trkpt lat="48.2132" lon="6.19025">
        <ele>343.38</ele>
        <time>2021-06-23T10:40:23Z</time>
      </trkpt>
      <trkpt lat="48.21463" lon="6.19538">
        <ele>345</ele>
        <time>2021-06-23T10:40:29Z</time>
      </trkpt>
      <trkpt lat="48.21477" lon="6.19575">
        <ele>344.83</ele>
        <time>2021-06-23T10:40:34Z</time>
      </trkpt>
      <trkpt lat="48.21519" lon="6.19721">
        <ele>343.89</ele>
        <time>2021-06-23T10:40:39Z</time>
      </trkpt>
      <trkpt lat="48.21755" lon="6.20555">
        <ele>318.55</ele>
        <time>2021-06-23T10:40:45Z</time>
      </trkpt>
      <trkpt lat="48.21755" lon="6.20555">
        <ele>318.55</ele>
        <time>2021-06-23T10:40:45Z</time>
      </trkpt>
      <trkpt lat="48.21762" lon="6.20584">
        <ele>318.11</ele>
        <time>2021-06-23T10:40:49Z</time>
      </trkpt>
      <trkpt lat="48.21779" lon="6.20673">
        <ele>314.1</ele>
        <time>2021-06-23T10:40:54Z</time>
      </trkpt>
      <trkpt lat="48.21786" lon="6.20745">
        <ele>315</ele>
        <time>2021-06-23T10:40:59Z</time>
      </trkpt>
      <trkpt lat="48.21808" lon="6.21354">
        <ele>314.49</ele>
        <time>2021-06-23T10:41:04Z</time>
      </trkpt>
      <trkpt lat="48.21814" lon="6.21452">
        <ele>310.79</ele>
        <time>2021-06-23T10:41:08Z</time>
      </trkpt>
      <trkpt lat="48.21823" lon="6.21505">
        <ele>311.2</ele>
        <time>2021-06-23T10:41:13Z</time>
      </trkpt>
      <trkpt lat="48.21852" lon="6.21616">
        <ele>310.5</ele>
        <time>2021-06-23T10:41:18Z</time>
      </trkpt>
      <trkpt lat="48.21855" lon="6.21637">
        <ele>311.16</ele>
        <time>2021-06-23T10:41:23Z</time>
      </trkpt>
      <trkpt lat="48.21854" lon="6.2165">
        <ele>311.65</ele>
        <time>2021-06-23T10:41:27Z</time>
      </trkpt>
      <trkpt lat="48.21852" lon="6.21665">
        <ele>312.3</ele>
        <time>2021-06-23T10:41:34Z</time>
      </trkpt>
      <trkpt lat="48.21855" lon="6.21684">
        <ele>312.37</ele>
        <time>2021-06-23T10:41:41Z</time>
      </trkpt>
      <trkpt lat="48.21854" lon="6.21707">
        <ele>312.51</ele>
        <time>2021-06-23T10:41:47Z</time>
      </trkpt>
      <trkpt lat="48.21851" lon="6.21726">
        <ele>312.74</ele>
        <time>2021-06-23T10:41:54Z</time>
      </trkpt>
      <trkpt lat="48.2182" lon="6.21834">
        <ele>313</ele>
        <time>2021-06-23T10:42:01Z</time>
      </trkpt>
      <trkpt lat="48.21809" lon="6.2189">
        <ele>313</ele>
        <time>2021-06-23T10:42:07Z</time>
      </trkpt>
      <trkpt lat="48.21801" lon="6.21947">
        <ele>313.06</ele>
        <time>2021-06-23T10:42:14Z</time>
      </trkpt>
      <trkpt lat="48.21797" lon="6.21992">
        <ele>311.51</ele>
        <time>2021-06-23T10:42:21Z</time>
      </trkpt>
      <trkpt lat="48.21796" lon="6.22054">
        <ele>311.68</ele>
        <time>2021-06-23T10:42:27Z</time>
      </trkpt>
      <trkpt lat="48.21807" lon="6.22699">
        <ele>303</ele>
        <time>2021-06-23T10:42:34Z</time>
      </trkpt>
      <trkpt lat="48.21811" lon="6.22824">
        <ele>302.8</ele>
        <time>2021-06-23T10:42:41Z</time>
      </trkpt>
      <trkpt lat="48.21874" lon="6.2358">
        <ele>296.76</ele>
        <time>2021-06-23T10:42:47Z</time>
      </trkpt>
      <trkpt lat="48.21962" lon="6.24615">
        <ele>303.34</ele>
        <time>2021-06-23T10:42:54Z</time>
      </trkpt>
      <trkpt lat="48.21969" lon="6.24737">
        <ele>303.3</ele>
        <time>2021-06-23T10:43:01Z</time>
      </trkpt>
      <trkpt lat="48.2197" lon="6.24845">
        <ele>304.57</ele>
        <time>2021-06-23T10:43:08Z</time>
      </trkpt>
      <trkpt lat="48.2197" lon="6.24845">
        <ele>304.57</ele>
        <time>2021-06-23T10:43:08Z</time>
      </trkpt>
      <trkpt lat="48.21971" lon="6.24877">
        <ele>305.84</ele>
        <time>2021-06-23T10:43:17Z</time>
      </trkpt>
      <trkpt lat="48.21967" lon="6.25031">
        <ele>307.59</ele>
        <time>2021-06-23T10:43:27Z</time>
      </trkpt>
      <trkpt lat="48.21959" lon="6.25223">
        <ele>307.07</ele>
        <time>2021-06-23T10:43:36Z</time>
      </trkpt>
      <trkpt lat="48.21934" lon="6.25547">
        <ele>306.39</ele>
        <time>2021-06-23T10:43:46Z</time>
      </trkpt>
      <trkpt lat="48.21919" lon="6.25774">
        <ele>307.24</ele>
        <time>2021-06-23T10:43:55Z</time>
      </trkpt>
      <trkpt lat="48.21889" lon="6.2618">
        <ele>309.48</ele>
        <time>2021-06-23T10:44:05Z</time>
      </trkpt>
      <trkpt lat="48.21844" lon="6.2674">
        <ele>322</ele>
        <time>2021-06-23T10:44:14Z</time>
      </trkpt>
      <trkpt lat="48.21841" lon="6.2684">
        <ele>320.47</ele>
        <time>2021-06-23T10:44:24Z</time>
      </trkpt>
      <trkpt lat="48.21838" lon="6.27044">
        <ele>320.82</ele>
        <time>2021-06-23T10:44:33Z</time>
      </trkpt>
      <trkpt lat="48.21832" lon="6.27166">
        <ele>318.03</ele>
        <time>2021-06-23T10:44:43Z</time>
      </trkpt>
      <trkpt lat="48.21744" lon="6.28347">
        <ele>332.65</ele>
        <time>2021-06-23T10:44:52Z</time>
      </trkpt>
      <trkpt lat="48.21741" lon="6.28378">
        <ele>332.56</ele>
        <time>2021-06-23T10:45:02Z</time>
      </trkpt>
      <trkpt lat="48.21701" lon="6.28934">
        <ele>331.23</ele>
        <time>2021-06-23T10:45:11Z</time>
      </trkpt>
      <trkpt lat="48.21681" lon="6.29159">
        <ele>330.81</ele>
        <time>2021-06-23T10:45:21Z</time>
      </trkpt>
      <trkpt lat="48.21681" lon="6.29159">
        <ele>330.81</ele>
        <time>2021-06-23T10:45:21Z</time>
      </trkpt>
      <trkpt lat="48.21674" lon="6.29236">
        <ele>330.39</ele>
        <time>2021-06-23T10:45:30Z</time>
      </trkpt>
      <trkpt lat="48.21652" lon="6.29379">
        <ele>332.84</ele>
        <time>2021-06-23T10:45:39Z</time>
      </trkpt>
      <trkpt lat="48.21629" lon="6.2948">
        <ele>332.36</ele>
        <time>2021-06-23T10:45:48Z</time>
      </trkpt>
      <trkpt lat="48.21613" lon="6.29539">
        <ele>336.26</ele>
        <time>2021-06-23T10:45:57Z</time>
      </trkpt>
      <trkpt lat="48.21595" lon="6.29599">
        <ele>339.06</ele>
        <time>2021-06-23T10:46:06Z</time>
      </trkpt>
      <trkpt lat="48.21576" lon="6.29655">
        <ele>342.68</ele>
        <time>2021-06-23T10:46:15Z</time>
      </trkpt>
      <trkpt lat="48.21111" lon="6.30904">
        <ele>366</ele>
        <time>2021-06-23T10:46:24Z</time>
      </trkpt>
      <trkpt lat="48.20948" lon="6.31346">
        <ele>376.42</ele>
        <time>2021-06-23T10:46:33Z</time>
      </trkpt>
      <trkpt lat="48.20538" lon="6.3242">
        <ele>374.05</ele>
        <time>2021-06-23T10:46:43Z</time>
      </trkpt>
      <trkpt lat="48.20514" lon="6.32495">
        <ele>375.59</ele>
        <time>2021-06-23T10:46:52Z</time>
      </trkpt>
      <trkpt lat="48.20495" lon="6.32561">
        <ele>373.6</ele>
        <time>2021-06-23T10:47:01Z</time>
      </trkpt>
      <trkpt lat="48.20466" lon="6.32682">
        <ele>371.14</ele>
        <time>2021-06-23T10:47:10Z</time>
      </trkpt>
      <trkpt lat="48.20443" lon="6.32805">
        <ele>370.93</ele>
        <time>2021-06-23T10:47:19Z</time>
      </trkpt>
      <trkpt lat="48.20424" lon="6.32937">
        <ele>365.25</ele>
        <time>2021-06-23T10:47:28Z</time>
      </trkpt>
      <trkpt lat="48.20403" lon="6.33126">
        <ele>367.36</ele>
        <time>2021-06-23T10:47:37Z</time>
      </trkpt>
      <trkpt lat="48.20403" lon="6.33126">
        <ele>367.36</ele>
        <time>2021-06-23T10:47:37Z</time>
      </trkpt>
      <trkpt lat="48.20391" lon="6.33234">
        <ele>369.47</ele>
        <time>2021-06-23T10:47:52Z</time>
      </trkpt>
      <trkpt lat="48.20351" lon="6.33637">
        <ele>360.38</ele>
        <time>2021-06-23T10:48:07Z</time>
      </trkpt>
      <trkpt lat="48.20344" lon="6.33733">
        <ele>358.73</ele>
        <time>2021-06-23T10:48:22Z</time>
      </trkpt>
      <trkpt lat="48.20338" lon="6.34034">
        <ele>358.82</ele>
        <time>2021-06-23T10:48:38Z</time>
      </trkpt>
      <trkpt lat="48.20358" lon="6.35701">
        <ele>347.88</ele>
        <time>2021-06-23T10:48:53Z</time>
      </trkpt>
      <trkpt lat="48.20365" lon="6.35916">
        <ele>349.69</ele>
        <time>2021-06-23T10:49:08Z</time>
      </trkpt>
      <trkpt lat="48.20401" lon="6.36446">
        <ele>353.41</ele>
        <time>2021-06-23T10:49:23Z</time>
      </trkpt>
      <trkpt lat="48.20418" lon="6.36763">
        <ele>357.51</ele>
        <time>2021-06-23T10:49:38Z</time>
      </trkpt>
      <trkpt lat="48.20491" lon="6.37885">
        <ele>334.79</ele>
        <time>2021-06-23T10:49:53Z</time>
      </trkpt>
      <trkpt lat="48.20518" lon="6.38368">
        <ele>357.01</ele>
        <time>2021-06-23T10:50:09Z</time>
      </trkpt>
      <trkpt lat="48.20535" lon="6.38535">
        <ele>364.06</ele>
        <time>2021-06-23T10:50:24Z</time>
      </trkpt>
      <trkpt lat="48.20535" lon="6.38576">
        <ele>365.01</ele>
        <time>2021-06-23T10:50:39Z</time>
      </trkpt>
      <trkpt lat="48.20532" lon="6.38645">
        <ele>366.85</ele>
        <time>2021-06-23T10:50:54Z</time>
      </trkpt>
      <trkpt lat="48.20519" lon="6.38742">
        <ele>368.73</ele>
        <time>2021-06-23T10:51:09Z</time>
      </trkpt>
      <trkpt lat="48.20519" lon="6.38742">
        <ele>368.73</ele>
        <time>2021-06-23T10:51:09Z</time>
      </trkpt>
      <trkpt lat="48.20512" lon="6.38793">
        <ele>370.61</ele>
        <time>2021-06-23T10:51:17Z</time>
      </trkpt>
      <trkpt lat="48.20471" lon="6.38901">
        <ele>373.21</ele>
        <time>2021-06-23T10:51:24Z</time>
      </trkpt>
      <trkpt lat="48.20402" lon="6.39016">
        <ele>372.43</ele>
        <time>2021-06-23T10:51:32Z</time>
      </trkpt>
      <trkpt lat="48.19934" lon="6.39519">
        <ele>373.77</ele>
        <time>2021-06-23T10:51:39Z</time>
      </trkpt>
      <trkpt lat="48.19693" lon="6.39776">
        <ele>373</ele>
        <time>2021-06-23T10:51:47Z</time>
      </trkpt>
      <trkpt lat="48.19644" lon="6.39823">
        <ele>373.51</ele>
        <time>2021-06-23T10:51:55Z</time>
      </trkpt>
      <trkpt lat="48.19604" lon="6.39857">
        <ele>374.83</ele>
        <time>2021-06-23T10:52:02Z</time>
      </trkpt>
      <trkpt lat="48.19558" lon="6.39888">
        <ele>370.28</ele>
        <time>2021-06-23T10:52:10Z</time>
      </trkpt>
      <trkpt lat="48.19514" lon="6.39914">
        <ele>371.51</ele>
        <time>2021-06-23T10:52:17Z</time>
      </trkpt>
      <trkpt lat="48.19469" lon="6.39936">
        <ele>372</ele>
        <time>2021-06-23T10:52:25Z</time>
      </trkpt>
      <trkpt lat="48.19202" lon="6.40035">
        <ele>370.88</ele>
        <time>2021-06-23T10:52:32Z</time>
      </trkpt>
      <trkpt lat="48.19171" lon="6.40038">
        <ele>369.78</ele>
        <time>2021-06-23T10:52:40Z</time>
      </trkpt>
      <trkpt lat="48.19154" lon="6.40035">
        <ele>369.63</ele>
        <time>2021-06-23T10:52:47Z</time>
      </trkpt>
      <trkpt lat="48.19147" lon="6.40025">
        <ele>370.24</ele>
        <time>2021-06-23T10:52:49Z</time>
      </trkpt>
      <trkpt lat="48.19131" lon="6.40018">
        <ele>371.01</ele>
        <time>2021-06-23T10:52:50Z</time>
      </trkpt>
      <trkpt lat="48.19117" lon="6.40022">
        <ele>371.2</ele>
        <time>2021-06-23T10:52:51Z</time>
      </trkpt>
      <trkpt lat="48.19107" lon="6.40033">
        <ele>370.73</ele>
        <time>2021-06-23T10:52:52Z</time>
      </trkpt>
      <trkpt lat="48.19103" lon="6.40045">
        <ele>370.12</ele>
        <time>2021-06-23T10:52:54Z</time>
      </trkpt>
      <trkpt lat="48.19103" lon="6.40045">
        <ele>370.12</ele>
        <time>2021-06-23T10:52:54Z</time>
      </trkpt>
      <trkpt lat="48.19101" lon="6.40051">
        <ele>369.52</ele>
        <time>2021-06-23T10:52:59Z</time>
      </trkpt>
      <trkpt lat="48.191" lon="6.40067">
        <ele>368.63</ele>
        <time>2021-06-23T10:53:04Z</time>
      </trkpt>
      <trkpt lat="48.19103" lon="6.40084">
        <ele>367.59</ele>
        <time>2021-06-23T10:53:10Z</time>
      </trkpt>
      <trkpt lat="48.1911" lon="6.40099">
        <ele>367.02</ele>
        <time>2021-06-23T10:53:15Z</time>
      </trkpt>
      <trkpt lat="48.1912" lon="6.40107">
        <ele>367.31</ele>
        <time>2021-06-23T10:53:20Z</time>
      </trkpt>
      <trkpt lat="48.19131" lon="6.40109">
        <ele>367.71</ele>
        <time>2021-06-23T10:53:26Z</time>
      </trkpt>
      <trkpt lat="48.19141" lon="6.40107">
        <ele>368.07</ele>
        <time>2021-06-23T10:53:31Z</time>
      </trkpt>
      <trkpt lat="48.19157" lon="6.40115">
        <ele>368.77</ele>
        <time>2021-06-23T10:53:36Z</time>
      </trkpt>
      <trkpt lat="48.19177" lon="6.40138">
        <ele>370.33</ele>
        <time>2021-06-23T10:53:42Z</time>
      </trkpt>
      <trkpt lat="48.1974" lon="6.41083">
        <ele>372.68</ele>
        <time>2021-06-23T10:53:47Z</time>
      </trkpt>
      <trkpt lat="48.19747" lon="6.41104">
        <ele>370.85</ele>
        <time>2021-06-23T10:53:52Z</time>
      </trkpt>
      <trkpt lat="48.19753" lon="6.41131">
        <ele>368.28</ele>
        <time>2021-06-23T10:53:57Z</time>
      </trkpt>
      <trkpt lat="48.19752" lon="6.41147">
        <ele>366.86</ele>
        <time>2021-06-23T10:54:02Z</time>
      </trkpt>
      <trkpt lat="48.19754" lon="6.41155">
        <ele>365.83</ele>
        <time>2021-06-23T10:54:06Z</time>
      </trkpt>
      <trkpt lat="48.19762" lon="6.41167">
        <ele>363.73</ele>
        <time>2021-06-23T10:54:10Z</time>
      </trkpt>
      <trkpt lat="48.19767" lon="6.4117">
        <ele>363.06</ele>
        <time>2021-06-23T10:54:14Z</time>
      </trkpt>
      <trkpt lat="48.19778" lon="6.41169">
        <ele>361.96</ele>
        <time>2021-06-23T10:54:19Z</time>
      </trkpt>
      <trkpt lat="48.19802" lon="6.41187">
        <ele>358.93</ele>
        <time>2021-06-23T10:54:23Z</time>
      </trkpt>
      <trkpt lat="48.19876" lon="6.41311">
        <ele>353.82</ele>
        <time>2021-06-23T10:54:27Z</time>
      </trkpt>
      <trkpt lat="48.19916" lon="6.4137">
        <ele>349.77</ele>
        <time>2021-06-23T10:54:31Z</time>
      </trkpt>
      <trkpt lat="48.19955" lon="6.41422">
        <ele>348.72</ele>
        <time>2021-06-23T10:54:36Z</time>
      </trkpt>
      <trkpt lat="48.20006" lon="6.41484">
        <ele>348.09</ele>
        <time>2021-06-23T10:54:40Z</time>
      </trkpt>
      <trkpt lat="48.20057" lon="6.4154">
        <ele>351.1</ele>
        <time>2021-06-23T10:54:44Z</time>
      </trkpt>
      <trkpt lat="48.20104" lon="6.41587">
        <ele>354.16</ele>
        <time>2021-06-23T10:54:48Z</time>
      </trkpt>
      <trkpt lat="48.2015" lon="6.41631">
        <ele>354.59</ele>
        <time>2021-06-23T10:54:53Z</time>
      </trkpt>
      <trkpt lat="48.20205" lon="6.41675">
        <ele>353.44</ele>
        <time>2021-06-23T10:54:57Z</time>
      </trkpt>
      <trkpt lat="48.2026" lon="6.41716">
        <ele>356.17</ele>
        <time>2021-06-23T10:55:01Z</time>
      </trkpt>
      <trkpt lat="48.20312" lon="6.41749">
        <ele>357.27</ele>
        <time>2021-06-23T10:55:05Z</time>
      </trkpt>
      <trkpt lat="48.20367" lon="6.4178">
        <ele>356.55</ele>
        <time>2021-06-23T10:55:10Z</time>
      </trkpt>
      <trkpt lat="48.2042" lon="6.41806">
        <ele>353.98</ele>
        <time>2021-06-23T10:55:14Z</time>
      </trkpt>
      <trkpt lat="48.20472" lon="6.41826">
        <ele>351.55</ele>
        <time>2021-06-23T10:55:18Z</time>
      </trkpt>
      <trkpt lat="48.2049" lon="6.41835">
        <ele>350.28</ele>
        <time>2021-06-23T10:55:22Z</time>
      </trkpt>
      <trkpt lat="48.20522" lon="6.41846">
        <ele>346.24</ele>
        <time>2021-06-23T10:55:27Z</time>
      </trkpt>
      <trkpt lat="48.20586" lon="6.41859">
        <ele>337.35</ele>
        <time>2021-06-23T10:55:31Z</time>
      </trkpt>
      <trkpt lat="48.20661" lon="6.41883">
        <ele>344.09</ele>
        <time>2021-06-23T10:55:35Z</time>
      </trkpt>
      <trkpt lat="48.20807" lon="6.41912">
        <ele>337.93</ele>
        <time>2021-06-23T10:55:39Z</time>
      </trkpt>
      <trkpt lat="48.20945" lon="6.41933">
        <ele>334.99</ele>
        <time>2021-06-23T10:55:43Z</time>
      </trkpt>
      <trkpt lat="48.21022" lon="6.41936">
        <ele>336</ele>
        <time>2021-06-23T10:55:48Z</time>
      </trkpt>
      <trkpt lat="48.21135" lon="6.41959">
        <ele>333.08</ele>
        <time>2021-06-23T10:55:52Z</time>
      </trkpt>
      <trkpt lat="48.21238" lon="6.41995">
        <ele>331.85</ele>
        <time>2021-06-23T10:55:56Z</time>
      </trkpt>
      <trkpt lat="48.21353" lon="6.42063">
        <ele>334.96</ele>
        <time>2021-06-23T10:56:00Z</time>
      </trkpt>
      <trkpt lat="48.21458" lon="6.42141">
        <ele>329.45</ele>
        <time>2021-06-23T10:56:05Z</time>
      </trkpt>
      <trkpt lat="48.21556" lon="6.42233">
        <ele>330.96</ele>
        <time>2021-06-23T10:56:09Z</time>
      </trkpt>
      <trkpt lat="48.216" lon="6.4228">
        <ele>327.87</ele>
        <time>2021-06-23T10:56:13Z</time>
      </trkpt>
      <trkpt lat="48.21644" lon="6.42336">
        <ele>327.92</ele>
        <time>2021-06-23T10:56:17Z</time>
      </trkpt>
      <trkpt lat="48.21724" lon="6.42458">
        <ele>327.38</ele>
        <time>2021-06-23T10:56:22Z</time>
      </trkpt>
      <trkpt lat="48.21799" lon="6.4259">
        <ele>326.55</ele>
        <time>2021-06-23T10:56:26Z</time>
      </trkpt>
      <trkpt lat="48.21845" lon="6.42683">
        <ele>326.76</ele>
        <time>2021-06-23T10:56:30Z</time>
      </trkpt>
      <trkpt lat="48.21992" lon="6.43011">
        <ele>323.44</ele>
        <time>2021-06-23T10:56:34Z</time>
      </trkpt>
      <trkpt lat="48.2201" lon="6.4306">
        <ele>321.22</ele>
        <time>2021-06-23T10:56:39Z</time>
      </trkpt>
      <trkpt lat="48.22017" lon="6.43092">
        <ele>319.64</ele>
        <time>2021-06-23T10:56:43Z</time>
      </trkpt>
      <trkpt lat="48.22014" lon="6.43103">
        <ele>319.11</ele>
        <time>2021-06-23T10:56:44Z</time>
      </trkpt>
      <trkpt lat="48.22014" lon="6.43113">
        <ele>318.43</ele>
        <time>2021-06-23T10:56:46Z</time>
      </trkpt>
      <trkpt lat="48.22016" lon="6.43123">
        <ele>318.07</ele>
        <time>2021-06-23T10:56:48Z</time>
      </trkpt>
      <trkpt lat="48.2202" lon="6.43132">
        <ele>317.86</ele>
        <time>2021-06-23T10:56:49Z</time>
      </trkpt>
      <trkpt lat="48.22024" lon="6.43137">
        <ele>317.89</ele>
        <time>2021-06-23T10:56:51Z</time>
      </trkpt>
      <trkpt lat="48.2203" lon="6.43141">
        <ele>318.06</ele>
        <time>2021-06-23T10:56:52Z</time>
      </trkpt>
      <trkpt lat="48.22041" lon="6.43141">
        <ele>317.65</ele>
        <time>2021-06-23T10:56:54Z</time>
      </trkpt>
      <trkpt lat="48.22073" lon="6.43202">
        <ele>316.89</ele>
        <time>2021-06-23T10:56:56Z</time>
      </trkpt>
      <trkpt lat="48.22182" lon="6.43451">
        <ele>312.8</ele>
        <time>2021-06-23T10:56:57Z</time>
      </trkpt>
      <trkpt lat="48.22192" lon="6.43485">
        <ele>311.18</ele>
        <time>2021-06-23T10:56:59Z</time>
      </trkpt>
      <trkpt lat="48.22196" lon="6.43506">
        <ele>310.72</ele>
        <time>2021-06-23T10:57:00Z</time>
      </trkpt>
      <trkpt lat="48.22194" lon="6.43518">
        <ele>310.37</ele>
        <time>2021-06-23T10:57:03Z</time>
      </trkpt>
      <trkpt lat="48.22195" lon="6.4353">
        <ele>309.93</ele>
        <time>2021-06-23T10:57:05Z</time>
      </trkpt>
      <trkpt lat="48.22199" lon="6.43543">
        <ele>309.39</ele>
        <time>2021-06-23T10:57:07Z</time>
      </trkpt>
      <trkpt lat="48.22207" lon="6.43552">
        <ele>309.07</ele>
        <time>2021-06-23T10:57:09Z</time>
      </trkpt>
      <trkpt lat="48.22216" lon="6.43555">
        <ele>309</ele>
        <time>2021-06-23T10:57:11Z</time>
      </trkpt>
      <trkpt lat="48.22222" lon="6.43555">
        <ele>309</ele>
        <time>2021-06-23T10:57:14Z</time>
      </trkpt>
      <trkpt lat="48.22233" lon="6.43546">
        <ele>308.24</ele>
        <time>2021-06-23T10:57:16Z</time>
      </trkpt>
      <trkpt lat="48.22238" lon="6.43534">
        <ele>307.85</ele>
        <time>2021-06-23T10:57:18Z</time>
      </trkpt>
      <trkpt lat="48.22239" lon="6.43515">
        <ele>308.23</ele>
        <time>2021-06-23T10:57:20Z</time>
      </trkpt>
      <trkpt lat="48.22243" lon="6.43503">
        <ele>308.4</ele>
        <time>2021-06-23T10:57:23Z</time>
      </trkpt>
      <trkpt lat="48.22364" lon="6.43264">
        <ele>308.86</ele>
        <time>2021-06-23T10:57:25Z</time>
      </trkpt>
      <trkpt lat="48.22393" lon="6.4322">
        <ele>310.93</ele>
        <time>2021-06-23T10:57:27Z</time>
      </trkpt>
      <trkpt lat="48.22412" lon="6.43201">
        <ele>310.34</ele>
        <time>2021-06-23T10:57:29Z</time>
      </trkpt>
      <trkpt lat="48.22435" lon="6.43184">
        <ele>310.89</ele>
        <time>2021-06-23T10:57:32Z</time>
      </trkpt>
      <trkpt lat="48.22452" lon="6.43178">
        <ele>311.2</ele>
        <time>2021-06-23T10:57:34Z</time>
      </trkpt>
      <trkpt lat="48.22483" lon="6.4318">
        <ele>310.27</ele>
        <time>2021-06-23T10:57:38Z</time>
      </trkpt>
      <trkpt lat="48.22507" lon="6.43196">
        <ele>308.27</ele>
        <time>2021-06-23T10:57:41Z</time>
      </trkpt>
      <trkpt lat="48.22524" lon="6.43222">
        <ele>309.73</ele>
        <time>2021-06-23T10:57:45Z</time>
      </trkpt>
      <trkpt lat="48.22531" lon="6.43242">
        <ele>310.82</ele>
        <time>2021-06-23T10:57:49Z</time>
      </trkpt>
      <trkpt lat="48.22536" lon="6.4327">
        <ele>311.29</ele>
        <time>2021-06-23T10:57:52Z</time>
      </trkpt>
      <trkpt lat="48.22544" lon="6.43388">
        <ele>310.13</ele>
        <time>2021-06-23T10:57:56Z</time>
      </trkpt>
      <trkpt lat="48.22545" lon="6.43425">
        <ele>310.48</ele>
        <time>2021-06-23T10:58:00Z</time>
      </trkpt>
      <trkpt lat="48.22543" lon="6.43455">
        <ele>309.73</ele>
        <time>2021-06-23T10:58:03Z</time>
      </trkpt>
      <trkpt lat="48.22546" lon="6.43515">
        <ele>308.52</ele>
        <time>2021-06-23T10:58:07Z</time>
      </trkpt>
      <trkpt lat="48.22521" lon="6.44">
        <ele>310.13</ele>
        <time>2021-06-23T10:58:11Z</time>
      </trkpt>
      <trkpt lat="48.22521" lon="6.44">
        <ele>310.13</ele>
        <time>2021-06-23T10:58:11Z</time>
      </trkpt>
      <trkpt lat="48.22518" lon="6.44055">
        <ele>311.01</ele>
        <time>2021-06-23T10:58:17Z</time>
      </trkpt>
      <trkpt lat="48.22509" lon="6.44147">
        <ele>307.8</ele>
        <time>2021-06-23T10:58:23Z</time>
      </trkpt>
      <trkpt lat="48.22497" lon="6.44238">
        <ele>305.07</ele>
        <time>2021-06-23T10:58:30Z</time>
      </trkpt>
      <trkpt lat="48.22476" lon="6.44343">
        <ele>306.93</ele>
        <time>2021-06-23T10:58:36Z</time>
      </trkpt>
      <trkpt lat="48.2246" lon="6.44407">
        <ele>307.34</ele>
        <time>2021-06-23T10:58:43Z</time>
      </trkpt>
      <trkpt lat="48.22419" lon="6.44541">
        <ele>310.27</ele>
        <time>2021-06-23T10:58:49Z</time>
      </trkpt>
      <trkpt lat="48.22378" lon="6.44646">
        <ele>307.7</ele>
        <time>2021-06-23T10:58:55Z</time>
      </trkpt>
      <trkpt lat="48.22333" lon="6.44739">
        <ele>309.37</ele>
        <time>2021-06-23T10:59:02Z</time>
      </trkpt>
      <trkpt lat="48.22228" lon="6.44918">
        <ele>308.22</ele>
        <time>2021-06-23T10:59:08Z</time>
      </trkpt>
      <trkpt lat="48.2216" lon="6.4501">
        <ele>311.25</ele>
        <time>2021-06-23T10:59:15Z</time>
      </trkpt>
      <trkpt lat="48.22061" lon="6.45138">
        <ele>311.81</ele>
        <time>2021-06-23T10:59:21Z</time>
      </trkpt>
      <trkpt lat="48.22013" lon="6.45193">
        <ele>311.02</ele>
        <time>2021-06-23T10:59:27Z</time>
      </trkpt>
      <trkpt lat="48.21952" lon="6.45258">
        <ele>311.92</ele>
        <time>2021-06-23T10:59:34Z</time>
      </trkpt>
      <trkpt lat="48.21869" lon="6.45331">
        <ele>312.65</ele>
        <time>2021-06-23T10:59:40Z</time>
      </trkpt>
      <trkpt lat="48.21789" lon="6.45393">
        <ele>314.08</ele>
        <time>2021-06-23T10:59:47Z</time>
      </trkpt>
      <trkpt lat="48.21688" lon="6.45447">
        <ele>318.17</ele>
        <time>2021-06-23T10:59:53Z</time>
      </trkpt>
      <trkpt lat="48.21417" lon="6.45573">
        <ele>323.31</ele>
        <time>2021-06-23T10:59:59Z</time>
      </trkpt>
      <trkpt lat="48.2125" lon="6.4566">
        <ele>320.48</ele>
        <time>2021-06-23T11:00:06Z</time>
      </trkpt>
      <trkpt lat="48.21127" lon="6.45737">
        <ele>322.97</ele>
        <time>2021-06-23T11:00:12Z</time>
      </trkpt>
      <trkpt lat="48.21006" lon="6.45828">
        <ele>325.04</ele>
        <time>2021-06-23T11:00:19Z</time>
      </trkpt>
      <trkpt lat="48.20856" lon="6.45967">
        <ele>330.55</ele>
        <time>2021-06-23T11:00:25Z</time>
      </trkpt>
      <trkpt lat="48.20732" lon="6.46102">
        <ele>337.37</ele>
        <time>2021-06-23T11:00:31Z</time>
      </trkpt>
      <trkpt lat="48.2065" lon="6.46203">
        <ele>346.78</ele>
        <time>2021-06-23T11:00:38Z</time>
      </trkpt>
      <trkpt lat="48.19959" lon="6.47077">
        <ele>348.73</ele>
        <time>2021-06-23T11:00:44Z</time>
      </trkpt>
      <trkpt lat="48.19921" lon="6.47124">
        <ele>348.98</ele>
        <time>2021-06-23T11:00:51Z</time>
      </trkpt>
      <trkpt lat="48.19862" lon="6.47189">
        <ele>347</ele>
        <time>2021-06-23T11:00:57Z</time>
      </trkpt>
      <trkpt lat="48.19803" lon="6.47249">
        <ele>342.98</ele>
        <time>2021-06-23T11:01:03Z</time>
      </trkpt>
      <trkpt lat="48.19742" lon="6.47302">
        <ele>343.04</ele>
        <time>2021-06-23T11:01:10Z</time>
      </trkpt>
      <trkpt lat="48.19695" lon="6.47339">
        <ele>339.61</ele>
        <time>2021-06-23T11:01:16Z</time>
      </trkpt>
      <trkpt lat="48.19619" lon="6.47394">
        <ele>338.58</ele>
        <time>2021-06-23T11:01:23Z</time>
      </trkpt>
      <trkpt lat="48.19149" lon="6.477">
        <ele>358.57</ele>
        <time>2021-06-23T11:01:29Z</time>
      </trkpt>
      <trkpt lat="48.18927" lon="6.4785">
        <ele>372.75</ele>
        <time>2021-06-23T11:01:35Z</time>
      </trkpt>
      <trkpt lat="48.1884" lon="6.47914">
        <ele>376.54</ele>
        <time>2021-06-23T11:01:42Z</time>
      </trkpt>
      <trkpt lat="48.18771" lon="6.47972">
        <ele>374.74</ele>
        <time>2021-06-23T11:01:48Z</time>
      </trkpt>
      <trkpt lat="48.18456" lon="6.48279">
        <ele>376.46</ele>
        <time>2021-06-23T11:01:55Z</time>
      </trkpt>
      <trkpt lat="48.18425" lon="6.48306">
        <ele>376.32</ele>
        <time>2021-06-23T11:02:01Z</time>
      </trkpt>
      <trkpt lat="48.18363" lon="6.48355">
        <ele>379.47</ele>
        <time>2021-06-23T11:02:07Z</time>
      </trkpt>
      <trkpt lat="48.18312" lon="6.48386">
        <ele>383.87</ele>
        <time>2021-06-23T11:02:14Z</time>
      </trkpt>
      <trkpt lat="48.18312" lon="6.48386">
        <ele>383.87</ele>
        <time>2021-06-23T11:02:14Z</time>
      </trkpt>
      <trkpt lat="48.18281" lon="6.48402">
        <ele>384.42</ele>
        <time>2021-06-23T11:02:18Z</time>
      </trkpt>
      <trkpt lat="48.18237" lon="6.48422">
        <ele>385.01</ele>
        <time>2021-06-23T11:02:22Z</time>
      </trkpt>
      <trkpt lat="48.18203" lon="6.48433">
        <ele>388.77</ele>
        <time>2021-06-23T11:02:26Z</time>
      </trkpt>
      <trkpt lat="48.18133" lon="6.48448">
        <ele>390.14</ele>
        <time>2021-06-23T11:02:30Z</time>
      </trkpt>
      <trkpt lat="48.18091" lon="6.48453">
        <ele>388.65</ele>
        <time>2021-06-23T11:02:34Z</time>
      </trkpt>
      <trkpt lat="48.18013" lon="6.48451">
        <ele>388.78</ele>
        <time>2021-06-23T11:02:38Z</time>
      </trkpt>
      <trkpt lat="48.17962" lon="6.48442">
        <ele>394.54</ele>
        <time>2021-06-23T11:02:43Z</time>
      </trkpt>
      <trkpt lat="48.179" lon="6.48427">
        <ele>398.98</ele>
        <time>2021-06-23T11:02:47Z</time>
      </trkpt>
      <trkpt lat="48.17613" lon="6.48323">
        <ele>418.86</ele>
        <time>2021-06-23T11:02:51Z</time>
      </trkpt>
      <trkpt lat="48.17536" lon="6.48296">
        <ele>422.05</ele>
        <time>2021-06-23T11:02:55Z</time>
      </trkpt>
      <trkpt lat="48.17492" lon="6.48283">
        <ele>425.57</ele>
        <time>2021-06-23T11:02:59Z</time>
      </trkpt>
      <trkpt lat="48.17432" lon="6.48271">
        <ele>427.57</ele>
        <time>2021-06-23T11:03:03Z</time>
      </trkpt>
      <trkpt lat="48.17384" lon="6.48267">
        <ele>432.89</ele>
        <time>2021-06-23T11:03:07Z</time>
      </trkpt>
      <trkpt lat="48.17304" lon="6.4827">
        <ele>433.23</ele>
        <time>2021-06-23T11:03:11Z</time>
      </trkpt>
      <trkpt lat="48.17216" lon="6.48287">
        <ele>444.36</ele>
        <time>2021-06-23T11:03:15Z</time>
      </trkpt>
      <trkpt lat="48.17146" lon="6.48314">
        <ele>439.81</ele>
        <time>2021-06-23T11:03:19Z</time>
      </trkpt>
      <trkpt lat="48.17101" lon="6.48336">
        <ele>439.05</ele>
        <time>2021-06-23T11:03:23Z</time>
      </trkpt>
      <trkpt lat="48.16597" lon="6.48651">
        <ele>452.63</ele>
        <time>2021-06-23T11:03:28Z</time>
      </trkpt>
      <trkpt lat="48.16508" lon="6.48697">
        <ele>454.3</ele>
        <time>2021-06-23T11:03:32Z</time>
      </trkpt>
      <trkpt lat="48.16434" lon="6.48724">
        <ele>453.68</ele>
        <time>2021-06-23T11:03:36Z</time>
      </trkpt>
      <trkpt lat="48.16369" lon="6.48735">
        <ele>450.05</ele>
        <time>2021-06-23T11:03:40Z</time>
      </trkpt>
      <trkpt lat="48.16314" lon="6.48739">
        <ele>447.22</ele>
        <time>2021-06-23T11:03:44Z</time>
      </trkpt>
      <trkpt lat="48.16268" lon="6.48734">
        <ele>445.26</ele>
        <time>2021-06-23T11:03:48Z</time>
      </trkpt>
      <trkpt lat="48.16227" lon="6.48727">
        <ele>440.88</ele>
        <time>2021-06-23T11:03:52Z</time>
      </trkpt>
      <trkpt lat="48.16171" lon="6.48713">
        <ele>445.29</ele>
        <time>2021-06-23T11:03:56Z</time>
      </trkpt>
      <trkpt lat="48.16117" lon="6.48696">
        <ele>447.09</ele>
        <time>2021-06-23T11:04:00Z</time>
      </trkpt>
      <trkpt lat="48.1593" lon="6.48629">
        <ele>437.78</ele>
        <time>2021-06-23T11:04:04Z</time>
      </trkpt>
      <trkpt lat="48.15688" lon="6.48547">
        <ele>432</ele>
        <time>2021-06-23T11:04:09Z</time>
      </trkpt>
      <trkpt lat="48.15642" lon="6.48536">
        <ele>428.76</ele>
        <time>2021-06-23T11:04:13Z</time>
      </trkpt>
      <trkpt lat="48.15567" lon="6.48526">
        <ele>421.05</ele>
        <time>2021-06-23T11:04:17Z</time>
      </trkpt>
      <trkpt lat="48.15509" lon="6.48525">
        <ele>414</ele>
        <time>2021-06-23T11:04:21Z</time>
      </trkpt>
      <trkpt lat="48.15462" lon="6.48529">
        <ele>406.57</ele>
        <time>2021-06-23T11:04:25Z</time>
      </trkpt>
      <trkpt lat="48.15391" lon="6.4854">
        <ele>401.72</ele>
        <time>2021-06-23T11:04:29Z</time>
      </trkpt>
      <trkpt lat="48.15347" lon="6.48552">
        <ele>400.4</ele>
        <time>2021-06-23T11:04:33Z</time>
      </trkpt>
      <trkpt lat="48.15274" lon="6.48578">
        <ele>401.16</ele>
        <time>2021-06-23T11:04:37Z</time>
      </trkpt>
      <trkpt lat="48.15211" lon="6.48609">
        <ele>403.98</ele>
        <time>2021-06-23T11:04:41Z</time>
      </trkpt>
      <trkpt lat="48.15127" lon="6.48663">
        <ele>389.74</ele>
        <time>2021-06-23T11:04:45Z</time>
      </trkpt>
      <trkpt lat="48.15051" lon="6.48726">
        <ele>381.6</ele>
        <time>2021-06-23T11:04:50Z</time>
      </trkpt>
      <trkpt lat="48.15051" lon="6.48726">
        <ele>381.6</ele>
        <time>2021-06-23T11:04:50Z</time>
      </trkpt>
      <trkpt lat="48.1499" lon="6.48787">
        <ele>380.07</ele>
        <time>2021-06-23T11:04:52Z</time>
      </trkpt>
      <trkpt lat="48.14951" lon="6.48834">
        <ele>375.23</ele>
        <time>2021-06-23T11:04:55Z</time>
      </trkpt>
      <trkpt lat="48.14919" lon="6.48877">
        <ele>374.08</ele>
        <time>2021-06-23T11:04:58Z</time>
      </trkpt>
      <trkpt lat="48.14897" lon="6.48912">
        <ele>373.18</ele>
        <time>2021-06-23T11:05:01Z</time>
      </trkpt>
      <trkpt lat="48.14881" lon="6.48941">
        <ele>373.28</ele>
        <time>2021-06-23T11:05:04Z</time>
      </trkpt>
      <trkpt lat="48.1486" lon="6.48982">
        <ele>372.02</ele>
        <time>2021-06-23T11:05:06Z</time>
      </trkpt>
      <trkpt lat="48.14843" lon="6.49025">
        <ele>373.87</ele>
        <time>2021-06-23T11:05:09Z</time>
      </trkpt>
      <trkpt lat="48.14825" lon="6.49077">
        <ele>375.26</ele>
        <time>2021-06-23T11:05:12Z</time>
      </trkpt>
      <trkpt lat="48.14811" lon="6.49135">
        <ele>372.58</ele>
        <time>2021-06-23T11:05:15Z</time>
      </trkpt>
      <trkpt lat="48.14799" lon="6.4922">
        <ele>368.51</ele>
        <time>2021-06-23T11:05:18Z</time>
      </trkpt>
      <trkpt lat="48.14795" lon="6.49278">
        <ele>364.09</ele>
        <time>2021-06-23T11:05:21Z</time>
      </trkpt>
      <trkpt lat="48.14796" lon="6.4935">
        <ele>359.35</ele>
        <time>2021-06-23T11:05:23Z</time>
      </trkpt>
      <trkpt lat="48.14801" lon="6.4942">
        <ele>358.79</ele>
        <time>2021-06-23T11:05:26Z</time>
      </trkpt>
      <trkpt lat="48.14827" lon="6.49617">
        <ele>347.76</ele>
        <time>2021-06-23T11:05:29Z</time>
      </trkpt>
      <trkpt lat="48.1484" lon="6.4974">
        <ele>344.53</ele>
        <time>2021-06-23T11:05:32Z</time>
      </trkpt>
      <trkpt lat="48.14843" lon="6.49843">
        <ele>344.87</ele>
        <time>2021-06-23T11:05:35Z</time>
      </trkpt>
      <trkpt lat="48.1484" lon="6.49925">
        <ele>347.46</ele>
        <time>2021-06-23T11:05:37Z</time>
      </trkpt>
      <trkpt lat="48.14828" lon="6.50036">
        <ele>338.35</ele>
        <time>2021-06-23T11:05:40Z</time>
      </trkpt>
      <trkpt lat="48.14813" lon="6.50117">
        <ele>344.47</ele>
        <time>2021-06-23T11:05:43Z</time>
      </trkpt>
      <trkpt lat="48.14796" lon="6.50191">
        <ele>355.06</ele>
        <time>2021-06-23T11:05:46Z</time>
      </trkpt>
      <trkpt lat="48.14771" lon="6.5027">
        <ele>356.3</ele>
        <time>2021-06-23T11:05:49Z</time>
      </trkpt>
      <trkpt lat="48.14744" lon="6.50338">
        <ele>357.08</ele>
        <time>2021-06-23T11:05:52Z</time>
      </trkpt>
      <trkpt lat="48.14689" lon="6.50455">
        <ele>356.12</ele>
        <time>2021-06-23T11:05:54Z</time>
      </trkpt>
      <trkpt lat="48.14614" lon="6.50602">
        <ele>352</ele>
        <time>2021-06-23T11:05:57Z</time>
      </trkpt>
      <trkpt lat="48.14567" lon="6.50692">
        <ele>350.95</ele>
        <time>2021-06-23T11:06:00Z</time>
      </trkpt>
      <trkpt lat="48.14524" lon="6.50766">
        <ele>352.94</ele>
        <time>2021-06-23T11:06:03Z</time>
      </trkpt>
      <trkpt lat="48.14459" lon="6.50864">
        <ele>345.73</ele>
        <time>2021-06-23T11:06:06Z</time>
      </trkpt>
      <trkpt lat="48.14459" lon="6.50864">
        <ele>345.73</ele>
        <time>2021-06-23T11:06:06Z</time>
      </trkpt>
      <trkpt lat="48.14422" lon="6.50913">
        <ele>343.51</ele>
        <time>2021-06-23T11:06:10Z</time>
      </trkpt>
      <trkpt lat="48.14369" lon="6.50976">
        <ele>346.06</ele>
        <time>2021-06-23T11:06:13Z</time>
      </trkpt>
      <trkpt lat="48.14318" lon="6.5103">
        <ele>340.01</ele>
        <time>2021-06-23T11:06:17Z</time>
      </trkpt>
      <trkpt lat="48.14298" lon="6.5105">
        <ele>340.14</ele>
        <time>2021-06-23T11:06:21Z</time>
      </trkpt>
      <trkpt lat="48.14235" lon="6.51104">
        <ele>338.38</ele>
        <time>2021-06-23T11:06:25Z</time>
      </trkpt>
      <trkpt lat="48.14046" lon="6.51251">
        <ele>331.47</ele>
        <time>2021-06-23T11:06:29Z</time>
      </trkpt>
      <trkpt lat="48.13877" lon="6.51378">
        <ele>339.37</ele>
        <time>2021-06-23T11:06:33Z</time>
      </trkpt>
      <trkpt lat="48.13827" lon="6.51411">
        <ele>337.45</ele>
        <time>2021-06-23T11:06:36Z</time>
      </trkpt>
      <trkpt lat="48.13763" lon="6.51443">
        <ele>342.13</ele>
        <time>2021-06-23T11:06:40Z</time>
      </trkpt>
      <trkpt lat="48.13735" lon="6.51453">
        <ele>341.38</ele>
        <time>2021-06-23T11:06:44Z</time>
      </trkpt>
      <trkpt lat="48.13691" lon="6.51465">
        <ele>338.53</ele>
        <time>2021-06-23T11:06:48Z</time>
      </trkpt>
      <trkpt lat="48.13543" lon="6.51499">
        <ele>345.95</ele>
        <time>2021-06-23T11:06:52Z</time>
      </trkpt>
      <trkpt lat="48.13464" lon="6.51514">
        <ele>349</ele>
        <time>2021-06-23T11:06:56Z</time>
      </trkpt>
      <trkpt lat="48.13388" lon="6.51526">
        <ele>343.81</ele>
        <time>2021-06-23T11:06:59Z</time>
      </trkpt>
      <trkpt lat="48.13264" lon="6.51527">
        <ele>339.42</ele>
        <time>2021-06-23T11:07:03Z</time>
      </trkpt>
      <trkpt lat="48.12979" lon="6.51509">
        <ele>337.86</ele>
        <time>2021-06-23T11:07:07Z</time>
      </trkpt>
      <trkpt lat="48.12917" lon="6.51513">
        <ele>341.45</ele>
        <time>2021-06-23T11:07:11Z</time>
      </trkpt>
      <trkpt lat="48.12872" lon="6.51522">
        <ele>340.58</ele>
        <time>2021-06-23T11:07:15Z</time>
      </trkpt>
      <trkpt lat="48.12835" lon="6.51532">
        <ele>339.93</ele>
        <time>2021-06-23T11:07:19Z</time>
      </trkpt>
      <trkpt lat="48.12779" lon="6.51554">
        <ele>338.93</ele>
        <time>2021-06-23T11:07:22Z</time>
      </trkpt>
      <trkpt lat="48.1275" lon="6.51567">
        <ele>338.44</ele>
        <time>2021-06-23T11:07:26Z</time>
      </trkpt>
      <trkpt lat="48.12703" lon="6.51596">
        <ele>339.86</ele>
        <time>2021-06-23T11:07:30Z</time>
      </trkpt>
      <trkpt lat="48.1267" lon="6.51623">
        <ele>341.12</ele>
        <time>2021-06-23T11:07:34Z</time>
      </trkpt>
      <trkpt lat="48.1267" lon="6.51623">
        <ele>341.12</ele>
        <time>2021-06-23T11:07:34Z</time>
      </trkpt>
      <trkpt lat="48.12629" lon="6.51657">
        <ele>342.39</ele>
        <time>2021-06-23T11:07:36Z</time>
      </trkpt>
      <trkpt lat="48.12578" lon="6.51711">
        <ele>344.21</ele>
        <time>2021-06-23T11:07:39Z</time>
      </trkpt>
      <trkpt lat="48.12546" lon="6.5175">
        <ele>346.36</ele>
        <time>2021-06-23T11:07:41Z</time>
      </trkpt>
      <trkpt lat="48.12519" lon="6.51788">
        <ele>346.3</ele>
        <time>2021-06-23T11:07:44Z</time>
      </trkpt>
      <trkpt lat="48.12482" lon="6.51847">
        <ele>342.02</ele>
        <time>2021-06-23T11:07:46Z</time>
      </trkpt>
      <trkpt lat="48.12445" lon="6.51912">
        <ele>340.17</ele>
        <time>2021-06-23T11:07:49Z</time>
      </trkpt>
      <trkpt lat="48.12397" lon="6.52016">
        <ele>338.57</ele>
        <time>2021-06-23T11:07:51Z</time>
      </trkpt>
      <trkpt lat="48.12365" lon="6.52101">
        <ele>342</ele>
        <time>2021-06-23T11:07:54Z</time>
      </trkpt>
      <trkpt lat="48.1235" lon="6.52144">
        <ele>341.83</ele>
        <time>2021-06-23T11:07:56Z</time>
      </trkpt>
      <trkpt lat="48.12336" lon="6.52188">
        <ele>340.92</ele>
        <time>2021-06-23T11:07:59Z</time>
      </trkpt>
      <trkpt lat="48.12312" lon="6.52278">
        <ele>339.57</ele>
        <time>2021-06-23T11:08:01Z</time>
      </trkpt>
      <trkpt lat="48.12298" lon="6.52336">
        <ele>342.5</ele>
        <time>2021-06-23T11:08:04Z</time>
      </trkpt>
      <trkpt lat="48.12279" lon="6.52423">
        <ele>341.42</ele>
        <time>2021-06-23T11:08:06Z</time>
      </trkpt>
      <trkpt lat="48.12259" lon="6.52542">
        <ele>340.38</ele>
        <time>2021-06-23T11:08:08Z</time>
      </trkpt>
      <trkpt lat="48.12241" lon="6.5268">
        <ele>341.16</ele>
        <time>2021-06-23T11:08:11Z</time>
      </trkpt>
      <trkpt lat="48.12235" lon="6.52754">
        <ele>340.45</ele>
        <time>2021-06-23T11:08:13Z</time>
      </trkpt>
      <trkpt lat="48.12227" lon="6.52877">
        <ele>344.17</ele>
        <time>2021-06-23T11:08:16Z</time>
      </trkpt>
      <trkpt lat="48.12218" lon="6.52964">
        <ele>340.31</ele>
        <time>2021-06-23T11:08:18Z</time>
      </trkpt>
      <trkpt lat="48.12211" lon="6.53008">
        <ele>340.69</ele>
        <time>2021-06-23T11:08:21Z</time>
      </trkpt>
      <trkpt lat="48.122" lon="6.53057">
        <ele>341.81</ele>
        <time>2021-06-23T11:08:23Z</time>
      </trkpt>
      <trkpt lat="48.12189" lon="6.53094">
        <ele>342.74</ele>
        <time>2021-06-23T11:08:26Z</time>
      </trkpt>
      <trkpt lat="48.12174" lon="6.53139">
        <ele>344.51</ele>
        <time>2021-06-23T11:08:28Z</time>
      </trkpt>
      <trkpt lat="48.12152" lon="6.53188">
        <ele>343.76</ele>
        <time>2021-06-23T11:08:31Z</time>
      </trkpt>
      <trkpt lat="48.12122" lon="6.53243">
        <ele>343.15</ele>
        <time>2021-06-23T11:08:33Z</time>
      </trkpt>
      <trkpt lat="48.12096" lon="6.53283">
        <ele>341.54</ele>
        <time>2021-06-23T11:08:36Z</time>
      </trkpt>
      <trkpt lat="48.12068" lon="6.53318">
        <ele>342.45</ele>
        <time>2021-06-23T11:08:38Z</time>
      </trkpt>
      <trkpt lat="48.12004" lon="6.53387">
        <ele>343</ele>
        <time>2021-06-23T11:08:41Z</time>
      </trkpt>
      <trkpt lat="48.11787" lon="6.53591">
        <ele>342.15</ele>
        <time>2021-06-23T11:08:43Z</time>
      </trkpt>
      <trkpt lat="48.11758" lon="6.53621">
        <ele>342</ele>
        <time>2021-06-23T11:08:45Z</time>
      </trkpt>
      <trkpt lat="48.11705" lon="6.53684">
        <ele>343.64</ele>
        <time>2021-06-23T11:08:48Z</time>
      </trkpt>
      <trkpt lat="48.11679" lon="6.53722">
        <ele>344.58</ele>
        <time>2021-06-23T11:08:50Z</time>
      </trkpt>
      <trkpt lat="48.1166" lon="6.53754">
        <ele>346.37</ele>
        <time>2021-06-23T11:08:53Z</time>
      </trkpt>
      <trkpt lat="48.11641" lon="6.53793">
        <ele>348</ele>
        <time>2021-06-23T11:08:55Z</time>
      </trkpt>
      <trkpt lat="48.11622" lon="6.53837">
        <ele>346.23</ele>
        <time>2021-06-23T11:08:58Z</time>
      </trkpt>
      <trkpt lat="48.11605" lon="6.53884">
        <ele>345.42</ele>
        <time>2021-06-23T11:09:00Z</time>
      </trkpt>
      <trkpt lat="48.11593" lon="6.53921">
        <ele>345.84</ele>
        <time>2021-06-23T11:09:03Z</time>
      </trkpt>
      <trkpt lat="48.11588" lon="6.53943">
        <ele>345.72</ele>
        <time>2021-06-23T11:09:05Z</time>
      </trkpt>
      <trkpt lat="48.11588" lon="6.53943">
        <ele>345.72</ele>
        <time>2021-06-23T11:09:05Z</time>
      </trkpt>
      <trkpt lat="48.11575" lon="6.53999">
        <ele>345.6</ele>
        <time>2021-06-23T11:09:10Z</time>
      </trkpt>
      <trkpt lat="48.11564" lon="6.54077">
        <ele>345.4</ele>
        <time>2021-06-23T11:09:16Z</time>
      </trkpt>
      <trkpt lat="48.11561" lon="6.54114">
        <ele>345.82</ele>
        <time>2021-06-23T11:09:21Z</time>
      </trkpt>
      <trkpt lat="48.11558" lon="6.54199">
        <ele>347.72</ele>
        <time>2021-06-23T11:09:26Z</time>
      </trkpt>
      <trkpt lat="48.11558" lon="6.54269">
        <ele>346.09</ele>
        <time>2021-06-23T11:09:32Z</time>
      </trkpt>
      <trkpt lat="48.11564" lon="6.54935">
        <ele>352.66</ele>
        <time>2021-06-23T11:09:37Z</time>
      </trkpt>
      <trkpt lat="48.11566" lon="6.55229">
        <ele>356.91</ele>
        <time>2021-06-23T11:09:42Z</time>
      </trkpt>
      <trkpt lat="48.11562" lon="6.55317">
        <ele>354.75</ele>
        <time>2021-06-23T11:09:47Z</time>
      </trkpt>
      <trkpt lat="48.11553" lon="6.55404">
        <ele>356.57</ele>
        <time>2021-06-23T11:09:53Z</time>
      </trkpt>
      <trkpt lat="48.11535" lon="6.55511">
        <ele>357.76</ele>
        <time>2021-06-23T11:09:58Z</time>
      </trkpt>
      <trkpt lat="48.11524" lon="6.55564">
        <ele>356.9</ele>
        <time>2021-06-23T11:10:03Z</time>
      </trkpt>
      <trkpt lat="48.11512" lon="6.55608">
        <ele>356.63</ele>
        <time>2021-06-23T11:10:08Z</time>
      </trkpt>
      <trkpt lat="48.11476" lon="6.55719">
        <ele>357.02</ele>
        <time>2021-06-23T11:10:14Z</time>
      </trkpt>
      <trkpt lat="48.1145" lon="6.55785">
        <ele>358.6</ele>
        <time>2021-06-23T11:10:19Z</time>
      </trkpt>
      <trkpt lat="48.11229" lon="6.56315">
        <ele>352.75</ele>
        <time>2021-06-23T11:10:24Z</time>
      </trkpt>
      <trkpt lat="48.11085" lon="6.56668">
        <ele>354.93</ele>
        <time>2021-06-23T11:10:29Z</time>
      </trkpt>
      <trkpt lat="48.11059" lon="6.56759">
        <ele>352.79</ele>
        <time>2021-06-23T11:10:35Z</time>
      </trkpt>
      <trkpt lat="48.11045" lon="6.5682">
        <ele>353.14</ele>
        <time>2021-06-23T11:10:40Z</time>
      </trkpt>
      <trkpt lat="48.11034" lon="6.56856">
        <ele>353.23</ele>
        <time>2021-06-23T11:10:43Z</time>
      </trkpt>
      <trkpt lat="48.11026" lon="6.56905">
        <ele>352.06</ele>
        <time>2021-06-23T11:10:46Z</time>
      </trkpt>
      <trkpt lat="48.11005" lon="6.57075">
        <ele>356.13</ele>
        <time>2021-06-23T11:10:49Z</time>
      </trkpt>
      <trkpt lat="48.11002" lon="6.57117">
        <ele>357.06</ele>
        <time>2021-06-23T11:10:52Z</time>
      </trkpt>
      <trkpt lat="48.11003" lon="6.57127">
        <ele>357.11</ele>
        <time>2021-06-23T11:10:52Z</time>
      </trkpt>
      <trkpt lat="48.11" lon="6.57154">
        <ele>356.97</ele>
        <time>2021-06-23T11:10:53Z</time>
      </trkpt>
      <trkpt lat="48.10995" lon="6.57167">
        <ele>356.5</ele>
        <time>2021-06-23T11:10:54Z</time>
      </trkpt>
      <trkpt lat="48.10985" lon="6.57187">
        <ele>355.03</ele>
        <time>2021-06-23T11:10:55Z</time>
      </trkpt>
      <trkpt lat="48.10988" lon="6.57215">
        <ele>355.47</ele>
        <time>2021-06-23T11:10:58Z</time>
      </trkpt>
      <trkpt lat="48.10988" lon="6.57254">
        <ele>356.14</ele>
        <time>2021-06-23T11:11:02Z</time>
      </trkpt>
      <trkpt lat="48.10985" lon="6.57279">
        <ele>355.92</ele>
        <time>2021-06-23T11:11:05Z</time>
      </trkpt>
      <trkpt lat="48.10962" lon="6.57383">
        <ele>356.35</ele>
        <time>2021-06-23T11:11:09Z</time>
      </trkpt>
      <trkpt lat="48.10962" lon="6.57383">
        <ele>356.35</ele>
        <time>2021-06-23T11:11:09Z</time>
      </trkpt>
      <trkpt lat="48.10958" lon="6.57408">
        <ele>357.17</ele>
        <time>2021-06-23T11:11:10Z</time>
      </trkpt>
      <trkpt lat="48.10967" lon="6.57407">
        <ele>357.44</ele>
        <time>2021-06-23T11:11:13Z</time>
      </trkpt>
      <trkpt lat="48.10988" lon="6.57411">
        <ele>357.78</ele>
        <time>2021-06-23T11:11:15Z</time>
      </trkpt>
      <trkpt lat="48.1108" lon="6.57439">
        <ele>356.43</ele>
        <time>2021-06-23T11:11:18Z</time>
      </trkpt>
      <trkpt lat="48.11155" lon="6.57462">
        <ele>357.36</ele>
        <time>2021-06-23T11:11:20Z</time>
      </trkpt>
      <trkpt lat="48.1117" lon="6.57472">
        <ele>359.49</ele>
        <time>2021-06-23T11:11:23Z</time>
      </trkpt>
      <trkpt lat="48.11173" lon="6.57479">
        <ele>360.67</ele>
        <time>2021-06-23T11:11:26Z</time>
      </trkpt>
      <trkpt lat="48.11176" lon="6.57482">
        <ele>361.68</ele>
        <time>2021-06-23T11:11:28Z</time>
      </trkpt>
      <trkpt lat="48.11185" lon="6.57482">
        <ele>363.53</ele>
        <time>2021-06-23T11:11:31Z</time>
      </trkpt>
      <trkpt lat="48.11192" lon="6.57473">
        <ele>363.66</ele>
        <time>2021-06-23T11:11:34Z</time>
      </trkpt>
      <trkpt lat="48.11193" lon="6.57463">
        <ele>362.81</ele>
        <time>2021-06-23T11:11:36Z</time>
      </trkpt>
      <trkpt lat="48.11189" lon="6.57451">
        <ele>361.01</ele>
        <time>2021-06-23T11:11:39Z</time>
      </trkpt>
      <trkpt lat="48.11185" lon="6.57447">
        <ele>360.23</ele>
        <time>2021-06-23T11:11:42Z</time>
      </trkpt>
      <trkpt lat="48.11176" lon="6.57405">
        <ele>357.35</ele>
        <time>2021-06-23T11:11:44Z</time>
      </trkpt>
      <trkpt lat="48.11176" lon="6.57381">
        <ele>357</ele>
        <time>2021-06-23T11:11:47Z</time>
      </trkpt>
      <trkpt lat="48.11182" lon="6.57322">
        <ele>356.32</ele>
        <time>2021-06-23T11:11:50Z</time>
      </trkpt>
      <trkpt lat="48.11189" lon="6.57286">
        <ele>355.41</ele>
        <time>2021-06-23T11:11:52Z</time>
      </trkpt>
      <trkpt lat="48.11197" lon="6.57259">
        <ele>354.41</ele>
        <time>2021-06-23T11:11:55Z</time>
      </trkpt>
      <trkpt lat="48.1121" lon="6.57227">
        <ele>352.9</ele>
        <time>2021-06-23T11:11:58Z</time>
      </trkpt>
      <trkpt lat="48.11386" lon="6.56873">
        <ele>349.63</ele>
        <time>2021-06-23T11:12:00Z</time>
      </trkpt>
      <trkpt lat="48.11398" lon="6.56858">
        <ele>349.33</ele>
        <time>2021-06-23T11:12:03Z</time>
      </trkpt>
      <trkpt lat="48.11414" lon="6.56849">
        <ele>349.9</ele>
        <time>2021-06-23T11:12:06Z</time>
      </trkpt>
      <trkpt lat="48.11424" lon="6.56849">
        <ele>350.56</ele>
        <time>2021-06-23T11:12:08Z</time>
      </trkpt>
      <trkpt lat="48.11433" lon="6.56852">
        <ele>351.19</ele>
        <time>2021-06-23T11:12:11Z</time>
      </trkpt>
      <trkpt lat="48.11441" lon="6.56857">
        <ele>351.73</ele>
        <time>2021-06-23T11:12:14Z</time>
      </trkpt>
      <trkpt lat="48.1145" lon="6.56867">
        <ele>352.18</ele>
        <time>2021-06-23T11:12:16Z</time>
      </trkpt>
      <trkpt lat="48.11459" lon="6.56884">
        <ele>352.54</ele>
        <time>2021-06-23T11:12:19Z</time>
      </trkpt>
      <trkpt lat="48.11501" lon="6.56974">
        <ele>352.04</ele>
        <time>2021-06-23T11:12:22Z</time>
      </trkpt>
      <trkpt lat="48.11513" lon="6.56991">
        <ele>352.15</ele>
        <time>2021-06-23T11:12:24Z</time>
      </trkpt>
      <trkpt lat="48.11528" lon="6.57009">
        <ele>352.02</ele>
        <time>2021-06-23T11:12:27Z</time>
      </trkpt>
      <trkpt lat="48.11545" lon="6.57023">
        <ele>352.73</ele>
        <time>2021-06-23T11:12:30Z</time>
      </trkpt>
      <trkpt lat="48.11626" lon="6.5707">
        <ele>355.5</ele>
        <time>2021-06-23T11:12:32Z</time>
      </trkpt>
      <trkpt lat="48.11658" lon="6.57093">
        <ele>356.58</ele>
        <time>2021-06-23T11:12:35Z</time>
      </trkpt>
      <trkpt lat="48.1167" lon="6.57105">
        <ele>356.71</ele>
        <time>2021-06-23T11:12:38Z</time>
      </trkpt>
      <trkpt lat="48.11716" lon="6.57171">
        <ele>358.42</ele>
        <time>2021-06-23T11:12:40Z</time>
      </trkpt>
      <trkpt lat="48.11773" lon="6.57264">
        <ele>358.26</ele>
        <time>2021-06-23T11:12:43Z</time>
      </trkpt>
      <trkpt lat="48.11801" lon="6.57292">
        <ele>359.9</ele>
        <time>2021-06-23T11:12:46Z</time>
      </trkpt>
      <trkpt lat="48.11877" lon="6.57332">
        <ele>366.74</ele>
        <time>2021-06-23T11:12:48Z</time>
      </trkpt>
      <trkpt lat="48.11894" lon="6.57346">
        <ele>368.83</ele>
        <time>2021-06-23T11:12:51Z</time>
      </trkpt>
      <trkpt lat="48.11921" lon="6.57379">
        <ele>371.35</ele>
        <time>2021-06-23T11:12:54Z</time>
      </trkpt>
      <trkpt lat="48.11931" lon="6.57398">
        <ele>371.37</ele>
        <time>2021-06-23T11:12:56Z</time>
      </trkpt>
      <trkpt lat="48.11939" lon="6.57418">
        <ele>366.76</ele>
        <time>2021-06-23T11:12:59Z</time>
      </trkpt>
      <trkpt lat="48.11939" lon="6.57418">
        <ele>366.76</ele>
        <time>2021-06-23T11:12:59Z</time>
      </trkpt>
      <trkpt lat="48.12014" lon="6.57642">
        <ele>365.53</ele>
        <time>2021-06-23T11:13:04Z</time>
      </trkpt>
      <trkpt lat="48.12033" lon="6.57743">
        <ele>367.77</ele>
        <time>2021-06-23T11:13:09Z</time>
      </trkpt>
      <trkpt lat="48.12041" lon="6.57764">
        <ele>369.76</ele>
        <time>2021-06-23T11:13:14Z</time>
      </trkpt>
      <trkpt lat="48.12068" lon="6.57815">
        <ele>375.92</ele>
        <time>2021-06-23T11:13:18Z</time>
      </trkpt>
      <trkpt lat="48.121" lon="6.57865">
        <ele>377.24</ele>
        <time>2021-06-23T11:13:23Z</time>
      </trkpt>
      <trkpt lat="48.12117" lon="6.57895">
        <ele>375.24</ele>
        <time>2021-06-23T11:13:28Z</time>
      </trkpt>
      <trkpt lat="48.12125" lon="6.57913">
        <ele>374.35</ele>
        <time>2021-06-23T11:13:33Z</time>
      </trkpt>
      <trkpt lat="48.12146" lon="6.57967">
        <ele>376.09</ele>
        <time>2021-06-23T11:13:38Z</time>
      </trkpt>
      <trkpt lat="48.12163" lon="6.58025">
        <ele>374.73</ele>
        <time>2021-06-23T11:13:43Z</time>
      </trkpt>
      <trkpt lat="48.12255" lon="6.58371">
        <ele>370.4</ele>
        <time>2021-06-23T11:13:48Z</time>
      </trkpt>
      <trkpt lat="48.12268" lon="6.58418">
        <ele>369.52</ele>
        <time>2021-06-23T11:13:52Z</time>
      </trkpt>
      <trkpt lat="48.12278" lon="6.58442">
        <ele>368.4</ele>
        <time>2021-06-23T11:13:57Z</time>
      </trkpt>
      <trkpt lat="48.12291" lon="6.58469">
        <ele>369.31</ele>
        <time>2021-06-23T11:14:02Z</time>
      </trkpt>
      <trkpt lat="48.1232" lon="6.58508">
        <ele>371.19</ele>
        <time>2021-06-23T11:14:07Z</time>
      </trkpt>
      <trkpt lat="48.12333" lon="6.58523">
        <ele>371.83</ele>
        <time>2021-06-23T11:14:12Z</time>
      </trkpt>
      <trkpt lat="48.12348" lon="6.58535">
        <ele>372.44</ele>
        <time>2021-06-23T11:14:17Z</time>
      </trkpt>
      <trkpt lat="48.12381" lon="6.58554">
        <ele>377.26</ele>
        <time>2021-06-23T11:14:22Z</time>
      </trkpt>
      <trkpt lat="48.12498" lon="6.58616">
        <ele>386.49</ele>
        <time>2021-06-23T11:14:26Z</time>
      </trkpt>
      <trkpt lat="48.1253" lon="6.58637">
        <ele>385.14</ele>
        <time>2021-06-23T11:14:31Z</time>
      </trkpt>
      <trkpt lat="48.12548" lon="6.58661">
        <ele>382.45</ele>
        <time>2021-06-23T11:14:36Z</time>
      </trkpt>
      <trkpt lat="48.12561" lon="6.58684">
        <ele>383.08</ele>
        <time>2021-06-23T11:14:41Z</time>
      </trkpt>
      <trkpt lat="48.12574" lon="6.58719">
        <ele>385.67</ele>
        <time>2021-06-23T11:14:46Z</time>
      </trkpt>
      <trkpt lat="48.12586" lon="6.58776">
        <ele>386.56</ele>
        <time>2021-06-23T11:14:51Z</time>
      </trkpt>
      <trkpt lat="48.12614" lon="6.58947">
        <ele>375.94</ele>
        <time>2021-06-23T11:14:56Z</time>
      </trkpt>
      <trkpt lat="48.12621" lon="6.58983">
        <ele>374.38</ele>
        <time>2021-06-23T11:15:00Z</time>
      </trkpt>
      <trkpt lat="48.12634" lon="6.59022">
        <ele>374.09</ele>
        <time>2021-06-23T11:15:05Z</time>
      </trkpt>
      <trkpt lat="48.12657" lon="6.5907">
        <ele>374.82</ele>
        <time>2021-06-23T11:15:10Z</time>
      </trkpt>
      <trkpt lat="48.1271" lon="6.59171">
        <ele>370.61</ele>
        <time>2021-06-23T11:15:15Z</time>
      </trkpt>
      <trkpt lat="48.12991" lon="6.59663">
        <ele>366.14</ele>
        <time>2021-06-23T11:15:20Z</time>
      </trkpt>
      <trkpt lat="48.1302" lon="6.59702">
        <ele>366</ele>
        <time>2021-06-23T11:15:25Z</time>
      </trkpt>
      <trkpt lat="48.13056" lon="6.59738">
        <ele>365.58</ele>
        <time>2021-06-23T11:15:30Z</time>
      </trkpt>
      <trkpt lat="48.1312" lon="6.59795">
        <ele>366.33</ele>
        <time>2021-06-23T11:15:35Z</time>
      </trkpt>
      <trkpt lat="48.13203" lon="6.59865">
        <ele>369.19</ele>
        <time>2021-06-23T11:15:39Z</time>
      </trkpt>
      <trkpt lat="48.13574" lon="6.60185">
        <ele>370.78</ele>
        <time>2021-06-23T11:15:44Z</time>
      </trkpt>
      <trkpt lat="48.13671" lon="6.60271">
        <ele>370</ele>
        <time>2021-06-23T11:15:49Z</time>
      </trkpt>
      <trkpt lat="48.13745" lon="6.60332">
        <ele>371.81</ele>
        <time>2021-06-23T11:15:54Z</time>
      </trkpt>
      <trkpt lat="48.13797" lon="6.60367">
        <ele>370.85</ele>
        <time>2021-06-23T11:15:59Z</time>
      </trkpt>
      <trkpt lat="48.13819" lon="6.60385">
        <ele>370.56</ele>
        <time>2021-06-23T11:16:04Z</time>
      </trkpt>
      <trkpt lat="48.13828" lon="6.60387">
        <ele>370.8</ele>
        <time>2021-06-23T11:16:09Z</time>
      </trkpt>
      <trkpt lat="48.13833" lon="6.60386">
        <ele>370.98</ele>
        <time>2021-06-23T11:16:13Z</time>
      </trkpt>
      <trkpt lat="48.1392" lon="6.6031">
        <ele>374</ele>
        <time>2021-06-23T11:16:18Z</time>
      </trkpt>
      <trkpt lat="48.13952" lon="6.60274">
        <ele>373.77</ele>
        <time>2021-06-23T11:16:23Z</time>
      </trkpt>
      <trkpt lat="48.14042" lon="6.60158">
        <ele>375.49</ele>
        <time>2021-06-23T11:16:28Z</time>
      </trkpt>
      <trkpt lat="48.14052" lon="6.60147">
        <ele>375.14</ele>
        <time>2021-06-23T11:16:33Z</time>
      </trkpt>
      <trkpt lat="48.14146" lon="6.60119">
        <ele>378.84</ele>
        <time>2021-06-23T11:16:38Z</time>
      </trkpt>
      <trkpt lat="48.14201" lon="6.60104">
        <ele>386.62</ele>
        <time>2021-06-23T11:16:43Z</time>
      </trkpt>
      <trkpt lat="48.14262" lon="6.60082">
        <ele>390.83</ele>
        <time>2021-06-23T11:16:47Z</time>
      </trkpt>
      <trkpt lat="48.14274" lon="6.60129">
        <ele>393.51</ele>
        <time>2021-06-23T11:16:50Z</time>
      </trkpt>
      <trkpt lat="48.14278" lon="6.60164">
        <ele>395.84</ele>
        <time>2021-06-23T11:16:53Z</time>
      </trkpt>
      <trkpt lat="48.14279" lon="6.60224">
        <ele>397.19</ele>
        <time>2021-06-23T11:16:56Z</time>
      </trkpt>
      <trkpt lat="48.14282" lon="6.60252">
        <ele>397.61</ele>
        <time>2021-06-23T11:16:58Z</time>
      </trkpt>
      <trkpt lat="48.14293" lon="6.60283">
        <ele>398.39</ele>
        <time>2021-06-23T11:17:01Z</time>
      </trkpt>
      <trkpt lat="48.14352" lon="6.60397">
        <ele>400.63</ele>
        <time>2021-06-23T11:17:04Z</time>
      </trkpt>
      <trkpt lat="48.14368" lon="6.60439">
        <ele>402.25</ele>
        <time>2021-06-23T11:17:06Z</time>
      </trkpt>
      <trkpt lat="48.14377" lon="6.60453">
        <ele>403.74</ele>
        <time>2021-06-23T11:17:09Z</time>
      </trkpt>
      <trkpt lat="48.14398" lon="6.60493">
        <ele>405.77</ele>
        <time>2021-06-23T11:17:12Z</time>
      </trkpt>
      <trkpt lat="48.14424" lon="6.6053">
        <ele>407.52</ele>
        <time>2021-06-23T11:17:16Z</time>
      </trkpt>
      <trkpt lat="48.14552" lon="6.60693">
        <ele>405.57</ele>
        <time>2021-06-23T11:17:19Z</time>
      </trkpt>
      <trkpt lat="48.14595" lon="6.60775">
        <ele>404.48</ele>
        <time>2021-06-23T11:17:23Z</time>
      </trkpt>
      <trkpt lat="48.14627" lon="6.60878">
        <ele>404.77</ele>
        <time>2021-06-23T11:17:26Z</time>
      </trkpt>
      <trkpt lat="48.14638" lon="6.60966">
        <ele>401.67</ele>
        <time>2021-06-23T11:17:29Z</time>
      </trkpt>
      <trkpt lat="48.14639" lon="6.61154">
        <ele>391.92</ele>
        <time>2021-06-23T11:17:33Z</time>
      </trkpt>
      <trkpt lat="48.14648" lon="6.61213">
        <ele>394.6</ele>
        <time>2021-06-23T11:17:36Z</time>
      </trkpt>
      <trkpt lat="48.14664" lon="6.61275">
        <ele>395.85</ele>
        <time>2021-06-23T11:17:40Z</time>
      </trkpt>
      <trkpt lat="48.14676" lon="6.61306">
        <ele>394.99</ele>
        <time>2021-06-23T11:17:43Z</time>
      </trkpt>
      <trkpt lat="48.14693" lon="6.61342">
        <ele>393.01</ele>
        <time>2021-06-23T11:17:46Z</time>
      </trkpt>
      <trkpt lat="48.14729" lon="6.61394">
        <ele>391.24</ele>
        <time>2021-06-23T11:17:50Z</time>
      </trkpt>
      <trkpt lat="48.14761" lon="6.61428">
        <ele>389.55</ele>
        <time>2021-06-23T11:17:53Z</time>
      </trkpt>
      <trkpt lat="48.1483" lon="6.61486">
        <ele>385.35</ele>
        <time>2021-06-23T11:17:56Z</time>
      </trkpt>
      <trkpt lat="48.14858" lon="6.61512">
        <ele>382.69</ele>
        <time>2021-06-23T11:18:00Z</time>
      </trkpt>
      <trkpt lat="48.14907" lon="6.61573">
        <ele>377.16</ele>
        <time>2021-06-23T11:18:03Z</time>
      </trkpt>
      <trkpt lat="48.14937" lon="6.61626">
        <ele>378.78</ele>
        <time>2021-06-23T11:18:07Z</time>
      </trkpt>
      <trkpt lat="48.14952" lon="6.61659">
        <ele>380.08</ele>
        <time>2021-06-23T11:18:10Z</time>
      </trkpt>
      <trkpt lat="48.14974" lon="6.61716">
        <ele>381.28</ele>
        <time>2021-06-23T11:18:13Z</time>
      </trkpt>
      <trkpt lat="48.14989" lon="6.61763">
        <ele>383.96</ele>
        <time>2021-06-23T11:18:17Z</time>
      </trkpt>
      <trkpt lat="48.14999" lon="6.61812">
        <ele>383.41</ele>
        <time>2021-06-23T11:18:20Z</time>
      </trkpt>
      <trkpt lat="48.15019" lon="6.61925">
        <ele>384.1</ele>
        <time>2021-06-23T11:18:24Z</time>
      </trkpt>
      <trkpt lat="48.15031" lon="6.61971">
        <ele>385.55</ele>
        <time>2021-06-23T11:18:27Z</time>
      </trkpt>
      <trkpt lat="48.15046" lon="6.62017">
        <ele>385.82</ele>
        <time>2021-06-23T11:18:30Z</time>
      </trkpt>
      <trkpt lat="48.15085" lon="6.62119">
        <ele>391.84</ele>
        <time>2021-06-23T11:18:34Z</time>
      </trkpt>
      <trkpt lat="48.151" lon="6.62176">
        <ele>390.27</ele>
        <time>2021-06-23T11:18:37Z</time>
      </trkpt>
      <trkpt lat="48.15102" lon="6.62193">
        <ele>389.74</ele>
        <time>2021-06-23T11:18:40Z</time>
      </trkpt>
      <trkpt lat="48.15102" lon="6.62201">
        <ele>389.52</ele>
        <time>2021-06-23T11:18:44Z</time>
      </trkpt>
      <trkpt lat="48.15098" lon="6.62213">
        <ele>388.92</ele>
        <time>2021-06-23T11:18:44Z</time>
      </trkpt>
      <trkpt lat="48.15098" lon="6.62218">
        <ele>388.77</ele>
        <time>2021-06-23T11:18:44Z</time>
      </trkpt>
      <trkpt lat="48.15098" lon="6.62218">
        <ele>388.77</ele>
        <time>2021-06-23T11:18:44Z</time>
      </trkpt>
      <trkpt lat="48.15098" lon="6.62228">
        <ele>388.63</ele>
        <time>2021-06-23T11:18:49Z</time>
      </trkpt>
      <trkpt lat="48.151" lon="6.62241">
        <ele>388.95</ele>
        <time>2021-06-23T11:18:54Z</time>
      </trkpt>
      <trkpt lat="48.1509" lon="6.62284">
        <ele>386.41</ele>
        <time>2021-06-23T11:18:59Z</time>
      </trkpt>
      <trkpt lat="48.15084" lon="6.62302">
        <ele>385.07</ele>
        <time>2021-06-23T11:19:03Z</time>
      </trkpt>
      <trkpt lat="48.15076" lon="6.62324">
        <ele>383.7</ele>
        <time>2021-06-23T11:19:08Z</time>
      </trkpt>
      <trkpt lat="48.15065" lon="6.62352">
        <ele>382.01</ele>
        <time>2021-06-23T11:19:13Z</time>
      </trkpt>
      <trkpt lat="48.15052" lon="6.62376">
        <ele>380.94</ele>
        <time>2021-06-23T11:19:17Z</time>
      </trkpt>
      <trkpt lat="48.15029" lon="6.62411">
        <ele>381</ele>
        <time>2021-06-23T11:19:22Z</time>
      </trkpt>
      <trkpt lat="48.14957" lon="6.62489">
        <ele>382.88</ele>
        <time>2021-06-23T11:19:27Z</time>
      </trkpt>
      <trkpt lat="48.14806" lon="6.62641">
        <ele>395.08</ele>
        <time>2021-06-23T11:19:31Z</time>
      </trkpt>
      <trkpt lat="48.14722" lon="6.6273">
        <ele>397.56</ele>
        <time>2021-06-23T11:19:36Z</time>
      </trkpt>
      <trkpt lat="48.14615" lon="6.62835">
        <ele>402.97</ele>
        <time>2021-06-23T11:19:41Z</time>
      </trkpt>
      <trkpt lat="48.14546" lon="6.62913">
        <ele>404.83</ele>
        <time>2021-06-23T11:19:45Z</time>
      </trkpt>
      <trkpt lat="48.14481" lon="6.63">
        <ele>402.32</ele>
        <time>2021-06-23T11:19:50Z</time>
      </trkpt>
      <trkpt lat="48.14415" lon="6.63109">
        <ele>395.53</ele>
        <time>2021-06-23T11:19:55Z</time>
      </trkpt>
      <trkpt lat="48.14272" lon="6.63363">
        <ele>405.27</ele>
        <time>2021-06-23T11:20:00Z</time>
      </trkpt>
      <trkpt lat="48.14249" lon="6.63409">
        <ele>403.72</ele>
        <time>2021-06-23T11:20:04Z</time>
      </trkpt>
      <trkpt lat="48.14229" lon="6.63455">
        <ele>403.98</ele>
        <time>2021-06-23T11:20:09Z</time>
      </trkpt>
      <trkpt lat="48.14185" lon="6.63574">
        <ele>402.64</ele>
        <time>2021-06-23T11:20:14Z</time>
      </trkpt>
      <trkpt lat="48.14102" lon="6.63872">
        <ele>402.86</ele>
        <time>2021-06-23T11:20:18Z</time>
      </trkpt>
      <trkpt lat="48.14074" lon="6.64007">
        <ele>399.94</ele>
        <time>2021-06-23T11:20:23Z</time>
      </trkpt>
      <trkpt lat="48.14063" lon="6.64086">
        <ele>400.9</ele>
        <time>2021-06-23T11:20:28Z</time>
      </trkpt>
      <trkpt lat="48.14055" lon="6.64169">
        <ele>401.07</ele>
        <time>2021-06-23T11:20:32Z</time>
      </trkpt>
      <trkpt lat="48.14049" lon="6.64262">
        <ele>403.99</ele>
        <time>2021-06-23T11:20:37Z</time>
      </trkpt>
      <trkpt lat="48.14018" lon="6.64844">
        <ele>409.14</ele>
        <time>2021-06-23T11:20:42Z</time>
      </trkpt>
      <trkpt lat="48.14014" lon="6.64899">
        <ele>410.15</ele>
        <time>2021-06-23T11:20:47Z</time>
      </trkpt>
      <trkpt lat="48.14009" lon="6.64936">
        <ele>409.67</ele>
        <time>2021-06-23T11:20:51Z</time>
      </trkpt>
      <trkpt lat="48.13998" lon="6.64983">
        <ele>408.97</ele>
        <time>2021-06-23T11:20:56Z</time>
      </trkpt>
      <trkpt lat="48.13982" lon="6.65036">
        <ele>410.35</ele>
        <time>2021-06-23T11:21:01Z</time>
      </trkpt>
      <trkpt lat="48.13899" lon="6.65241">
        <ele>410.53</ele>
        <time>2021-06-23T11:21:05Z</time>
      </trkpt>
      <trkpt lat="48.13857" lon="6.65337">
        <ele>407.87</ele>
        <time>2021-06-23T11:21:10Z</time>
      </trkpt>
      <trkpt lat="48.13786" lon="6.65439">
        <ele>409.89</ele>
        <time>2021-06-23T11:21:15Z</time>
      </trkpt>
      <trkpt lat="48.13774" lon="6.65466">
        <ele>411.18</ele>
        <time>2021-06-23T11:21:19Z</time>
      </trkpt>
      <trkpt lat="48.13766" lon="6.65499">
        <ele>415.33</ele>
        <time>2021-06-23T11:21:24Z</time>
      </trkpt>
      <trkpt lat="48.13763" lon="6.65527">
        <ele>418.03</ele>
        <time>2021-06-23T11:21:29Z</time>
      </trkpt>
      <trkpt lat="48.13763" lon="6.65556">
        <ele>418.54</ele>
        <time>2021-06-23T11:21:34Z</time>
      </trkpt>
      <trkpt lat="48.13767" lon="6.65593">
        <ele>417.86</ele>
        <time>2021-06-23T11:21:38Z</time>
      </trkpt>
      <trkpt lat="48.13779" lon="6.65631">
        <ele>417.15</ele>
        <time>2021-06-23T11:21:43Z</time>
      </trkpt>
      <trkpt lat="48.13846" lon="6.65818">
        <ele>418.9</ele>
        <time>2021-06-23T11:21:48Z</time>
      </trkpt>
      <trkpt lat="48.13857" lon="6.65861">
        <ele>420.04</ele>
        <time>2021-06-23T11:21:52Z</time>
      </trkpt>
      <trkpt lat="48.13866" lon="6.65924">
        <ele>419.75</ele>
        <time>2021-06-23T11:21:57Z</time>
      </trkpt>
      <trkpt lat="48.13866" lon="6.66061">
        <ele>419.61</ele>
        <time>2021-06-23T11:22:02Z</time>
      </trkpt>
      <trkpt lat="48.1386" lon="6.66216">
        <ele>415.55</ele>
        <time>2021-06-23T11:22:06Z</time>
      </trkpt>
      <trkpt lat="48.13855" lon="6.66265">
        <ele>417.71</ele>
        <time>2021-06-23T11:22:11Z</time>
      </trkpt>
      <trkpt lat="48.13846" lon="6.66327">
        <ele>423</ele>
        <time>2021-06-23T11:22:16Z</time>
      </trkpt>
      <trkpt lat="48.1383" lon="6.66406">
        <ele>420.26</ele>
        <time>2021-06-23T11:22:20Z</time>
      </trkpt>
      <trkpt lat="48.13812" lon="6.66473">
        <ele>420.5</ele>
        <time>2021-06-23T11:22:25Z</time>
      </trkpt>
      <trkpt lat="48.13773" lon="6.66577">
        <ele>417.53</ele>
        <time>2021-06-23T11:22:30Z</time>
      </trkpt>
      <trkpt lat="48.13659" lon="6.66829">
        <ele>421.21</ele>
        <time>2021-06-23T11:22:35Z</time>
      </trkpt>
      <trkpt lat="48.13637" lon="6.66903">
        <ele>423.72</ele>
        <time>2021-06-23T11:22:39Z</time>
      </trkpt>
      <trkpt lat="48.13624" lon="6.66968">
        <ele>426.18</ele>
        <time>2021-06-23T11:22:44Z</time>
      </trkpt>
      <trkpt lat="48.13604" lon="6.67104">
        <ele>425.98</ele>
        <time>2021-06-23T11:22:49Z</time>
      </trkpt>
      <trkpt lat="48.13593" lon="6.67166">
        <ele>428.32</ele>
        <time>2021-06-23T11:22:53Z</time>
      </trkpt>
      <trkpt lat="48.1358" lon="6.67213">
        <ele>431.39</ele>
        <time>2021-06-23T11:22:58Z</time>
      </trkpt>
      <trkpt lat="48.13549" lon="6.67295">
        <ele>430.61</ele>
        <time>2021-06-23T11:23:03Z</time>
      </trkpt>
      <trkpt lat="48.13494" lon="6.67398">
        <ele>431.07</ele>
        <time>2021-06-23T11:23:07Z</time>
      </trkpt>
      <trkpt lat="48.13462" lon="6.67449">
        <ele>433.18</ele>
        <time>2021-06-23T11:23:12Z</time>
      </trkpt>
      <trkpt lat="48.13449" lon="6.67461">
        <ele>432.74</ele>
        <time>2021-06-23T11:23:17Z</time>
      </trkpt>
      <trkpt lat="48.13449" lon="6.67461">
        <ele>432.74</ele>
        <time>2021-06-23T11:23:17Z</time>
      </trkpt>
      <trkpt lat="48.13415" lon="6.67489">
        <ele>430.43</ele>
        <time>2021-06-23T11:23:21Z</time>
      </trkpt>
      <trkpt lat="48.1338" lon="6.67506">
        <ele>426.86</ele>
        <time>2021-06-23T11:23:26Z</time>
      </trkpt>
      <trkpt lat="48.13329" lon="6.6752">
        <ele>425.77</ele>
        <time>2021-06-23T11:23:31Z</time>
      </trkpt>
      <trkpt lat="48.13132" lon="6.6757">
        <ele>436.2</ele>
        <time>2021-06-23T11:23:35Z</time>
      </trkpt>
      <trkpt lat="48.131" lon="6.67591">
        <ele>436.02</ele>
        <time>2021-06-23T11:23:40Z</time>
      </trkpt>
      <trkpt lat="48.13064" lon="6.67614">
        <ele>435.49</ele>
        <time>2021-06-23T11:23:44Z</time>
      </trkpt>
      <trkpt lat="48.13044" lon="6.67621">
        <ele>435.43</ele>
        <time>2021-06-23T11:23:49Z</time>
      </trkpt>
      <trkpt lat="48.13008" lon="6.67626">
        <ele>435.47</ele>
        <time>2021-06-23T11:23:54Z</time>
      </trkpt>
      <trkpt lat="48.12938" lon="6.6762">
        <ele>437.25</ele>
        <time>2021-06-23T11:23:58Z</time>
      </trkpt>
      <trkpt lat="48.12853" lon="6.67621">
        <ele>435.26</ele>
        <time>2021-06-23T11:24:03Z</time>
      </trkpt>
      <trkpt lat="48.1278" lon="6.67649">
        <ele>437.41</ele>
        <time>2021-06-23T11:24:07Z</time>
      </trkpt>
      <trkpt lat="48.12726" lon="6.67679">
        <ele>438.32</ele>
        <time>2021-06-23T11:24:12Z</time>
      </trkpt>
      <trkpt lat="48.1264" lon="6.67733">
        <ele>443.36</ele>
        <time>2021-06-23T11:24:16Z</time>
      </trkpt>
      <trkpt lat="48.12596" lon="6.67758">
        <ele>447</ele>
        <time>2021-06-23T11:24:21Z</time>
      </trkpt>
      <trkpt lat="48.12431" lon="6.67863">
        <ele>451.98</ele>
        <time>2021-06-23T11:24:26Z</time>
      </trkpt>
      <trkpt lat="48.12417" lon="6.67868">
        <ele>453.21</ele>
        <time>2021-06-23T11:24:30Z</time>
      </trkpt>
      <trkpt lat="48.12406" lon="6.6787">
        <ele>454.17</ele>
        <time>2021-06-23T11:24:35Z</time>
      </trkpt>
      <trkpt lat="48.1231" lon="6.67836">
        <ele>455.98</ele>
        <time>2021-06-23T11:24:39Z</time>
      </trkpt>
      <trkpt lat="48.12287" lon="6.67832">
        <ele>456.54</ele>
        <time>2021-06-23T11:24:44Z</time>
      </trkpt>
      <trkpt lat="48.12277" lon="6.67833">
        <ele>457.06</ele>
        <time>2021-06-23T11:24:48Z</time>
      </trkpt>
      <trkpt lat="48.12263" lon="6.67839">
        <ele>458.37</ele>
        <time>2021-06-23T11:24:53Z</time>
      </trkpt>
      <trkpt lat="48.12182" lon="6.67901">
        <ele>457.57</ele>
        <time>2021-06-23T11:24:58Z</time>
      </trkpt>
      <trkpt lat="48.12167" lon="6.67909">
        <ele>456.77</ele>
        <time>2021-06-23T11:25:02Z</time>
      </trkpt>
      <trkpt lat="48.1215" lon="6.67912">
        <ele>456.83</ele>
        <time>2021-06-23T11:25:07Z</time>
      </trkpt>
      <trkpt lat="48.1213" lon="6.67906">
        <ele>456.92</ele>
        <time>2021-06-23T11:25:11Z</time>
      </trkpt>
      <trkpt lat="48.12105" lon="6.67893">
        <ele>457.19</ele>
        <time>2021-06-23T11:25:16Z</time>
      </trkpt>
      <trkpt lat="48.12098" lon="6.67894">
        <ele>457.25</ele>
        <time>2021-06-23T11:25:20Z</time>
      </trkpt>
      <trkpt lat="48.12087" lon="6.67907">
        <ele>458.21</ele>
        <time>2021-06-23T11:25:25Z</time>
      </trkpt>
      <trkpt lat="48.12067" lon="6.67936">
        <ele>459.11</ele>
        <time>2021-06-23T11:25:30Z</time>
      </trkpt>
      <trkpt lat="48.12004" lon="6.67971">
        <ele>457.76</ele>
        <time>2021-06-23T11:25:34Z</time>
      </trkpt>
      <trkpt lat="48.11983" lon="6.67978">
        <ele>459.08</ele>
        <time>2021-06-23T11:25:39Z</time>
      </trkpt>
      <trkpt lat="48.11893" lon="6.67998">
        <ele>466.46</ele>
        <time>2021-06-23T11:25:43Z</time>
      </trkpt>
      <trkpt lat="48.11878" lon="6.67998">
        <ele>466.41</ele>
        <time>2021-06-23T11:25:48Z</time>
      </trkpt>
      <trkpt lat="48.11837" lon="6.68007">
        <ele>468.23</ele>
        <time>2021-06-23T11:25:53Z</time>
      </trkpt>
      <trkpt lat="48.11827" lon="6.68012">
        <ele>470.41</ele>
        <time>2021-06-23T11:25:57Z</time>
      </trkpt>
      <trkpt lat="48.11819" lon="6.68013">
        <ele>471.73</ele>
        <time>2021-06-23T11:26:02Z</time>
      </trkpt>
      <trkpt lat="48.1175" lon="6.68025">
        <ele>474.36</ele>
        <time>2021-06-23T11:26:06Z</time>
      </trkpt>
      <trkpt lat="48.11723" lon="6.68025">
        <ele>476.12</ele>
        <time>2021-06-23T11:26:11Z</time>
      </trkpt>
      <trkpt lat="48.11692" lon="6.68013">
        <ele>476.39</ele>
        <time>2021-06-23T11:26:15Z</time>
      </trkpt>
      <trkpt lat="48.11674" lon="6.67999">
        <ele>478.52</ele>
        <time>2021-06-23T11:26:20Z</time>
      </trkpt>
      <trkpt lat="48.11621" lon="6.6794">
        <ele>480.19</ele>
        <time>2021-06-23T11:26:25Z</time>
      </trkpt>
      <trkpt lat="48.11589" lon="6.6791">
        <ele>483.01</ele>
        <time>2021-06-23T11:26:29Z</time>
      </trkpt>
      <trkpt lat="48.11562" lon="6.67902">
        <ele>485.84</ele>
        <time>2021-06-23T11:26:34Z</time>
      </trkpt>
      <trkpt lat="48.11542" lon="6.679">
        <ele>485.95</ele>
        <time>2021-06-23T11:26:38Z</time>
      </trkpt>
      <trkpt lat="48.1151" lon="6.67906">
        <ele>484.14</ele>
        <time>2021-06-23T11:26:43Z</time>
      </trkpt>
      <trkpt lat="48.11495" lon="6.67913">
        <ele>482.86</ele>
        <time>2021-06-23T11:26:47Z</time>
      </trkpt>
      <trkpt lat="48.1148" lon="6.67923">
        <ele>482.32</ele>
        <time>2021-06-23T11:26:52Z</time>
      </trkpt>
      <trkpt lat="48.11438" lon="6.67965">
        <ele>486.63</ele>
        <time>2021-06-23T11:26:57Z</time>
      </trkpt>
      <trkpt lat="48.1136" lon="6.68052">
        <ele>491.42</ele>
        <time>2021-06-23T11:27:01Z</time>
      </trkpt>
      <trkpt lat="48.11308" lon="6.68125">
        <ele>498.95</ele>
        <time>2021-06-23T11:27:06Z</time>
      </trkpt>
      <trkpt lat="48.11262" lon="6.6817">
        <ele>506.69</ele>
        <time>2021-06-23T11:27:10Z</time>
      </trkpt>
      <trkpt lat="48.112" lon="6.68221">
        <ele>516.7</ele>
        <time>2021-06-23T11:27:15Z</time>
      </trkpt>
      <trkpt lat="48.11135" lon="6.68268">
        <ele>521.12</ele>
        <time>2021-06-23T11:27:19Z</time>
      </trkpt>
      <trkpt lat="48.11063" lon="6.68311">
        <ele>525.7</ele>
        <time>2021-06-23T11:27:24Z</time>
      </trkpt>
      <trkpt lat="48.10994" lon="6.68364">
        <ele>528.22</ele>
        <time>2021-06-23T11:27:29Z</time>
      </trkpt>
      <trkpt lat="48.10938" lon="6.68438">
        <ele>535.06</ele>
        <time>2021-06-23T11:27:33Z</time>
      </trkpt>
      <trkpt lat="48.10909" lon="6.68485">
        <ele>541.3</ele>
        <time>2021-06-23T11:27:38Z</time>
      </trkpt>
      <trkpt lat="48.10909" lon="6.68485">
        <ele>541.3</ele>
        <time>2021-06-23T11:27:38Z</time>
      </trkpt>
      <trkpt lat="48.10891" lon="6.68519">
        <ele>542.42</ele>
        <time>2021-06-23T11:27:42Z</time>
      </trkpt>
      <trkpt lat="48.10873" lon="6.68563">
        <ele>546.24</ele>
        <time>2021-06-23T11:27:45Z</time>
      </trkpt>
      <trkpt lat="48.10823" lon="6.68713">
        <ele>555.57</ele>
        <time>2021-06-23T11:27:49Z</time>
      </trkpt>
      <trkpt lat="48.10772" lon="6.68838">
        <ele>561.56</ele>
        <time>2021-06-23T11:27:53Z</time>
      </trkpt>
      <trkpt lat="48.10716" lon="6.68914">
        <ele>563.3</ele>
        <time>2021-06-23T11:27:57Z</time>
      </trkpt>
      <trkpt lat="48.1069" lon="6.68963">
        <ele>570.27</ele>
        <time>2021-06-23T11:28:01Z</time>
      </trkpt>
      <trkpt lat="48.10673" lon="6.6901">
        <ele>571.12</ele>
        <time>2021-06-23T11:28:04Z</time>
      </trkpt>
      <trkpt lat="48.10654" lon="6.69103">
        <ele>575.68</ele>
        <time>2021-06-23T11:28:08Z</time>
      </trkpt>
      <trkpt lat="48.10649" lon="6.69117">
        <ele>576.11</ele>
        <time>2021-06-23T11:28:12Z</time>
      </trkpt>
      <trkpt lat="48.10632" lon="6.69139">
        <ele>576.03</ele>
        <time>2021-06-23T11:28:16Z</time>
      </trkpt>
      <trkpt lat="48.10608" lon="6.69165">
        <ele>578.3</ele>
        <time>2021-06-23T11:28:19Z</time>
      </trkpt>
      <trkpt lat="48.10567" lon="6.69203">
        <ele>579.87</ele>
        <time>2021-06-23T11:28:23Z</time>
      </trkpt>
      <trkpt lat="48.10509" lon="6.69271">
        <ele>582.08</ele>
        <time>2021-06-23T11:28:27Z</time>
      </trkpt>
      <trkpt lat="48.10487" lon="6.69302">
        <ele>582.96</ele>
        <time>2021-06-23T11:28:31Z</time>
      </trkpt>
      <trkpt lat="48.10469" lon="6.69333">
        <ele>583.66</ele>
        <time>2021-06-23T11:28:35Z</time>
      </trkpt>
      <trkpt lat="48.10454" lon="6.69375">
        <ele>585.04</ele>
        <time>2021-06-23T11:28:38Z</time>
      </trkpt>
      <trkpt lat="48.10448" lon="6.69413">
        <ele>592.3</ele>
        <time>2021-06-23T11:28:42Z</time>
      </trkpt>
      <trkpt lat="48.10439" lon="6.69448">
        <ele>594.6</ele>
        <time>2021-06-23T11:28:46Z</time>
      </trkpt>
      <trkpt lat="48.1041" lon="6.69532">
        <ele>598.23</ele>
        <time>2021-06-23T11:28:50Z</time>
      </trkpt>
      <trkpt lat="48.10397" lon="6.69564">
        <ele>599.72</ele>
        <time>2021-06-23T11:28:53Z</time>
      </trkpt>
      <trkpt lat="48.10388" lon="6.69581">
        <ele>600.96</ele>
        <time>2021-06-23T11:28:57Z</time>
      </trkpt>
      <trkpt lat="48.10344" lon="6.69644">
        <ele>600.17</ele>
        <time>2021-06-23T11:29:01Z</time>
      </trkpt>
      <trkpt lat="48.10319" lon="6.69705">
        <ele>600.2</ele>
        <time>2021-06-23T11:29:05Z</time>
      </trkpt>
      <trkpt lat="48.10295" lon="6.69781">
        <ele>602.6</ele>
        <time>2021-06-23T11:29:09Z</time>
      </trkpt>
      <trkpt lat="48.10285" lon="6.6981">
        <ele>602.28</ele>
        <time>2021-06-23T11:29:12Z</time>
      </trkpt>
      <trkpt lat="48.10277" lon="6.69866">
        <ele>602.06</ele>
        <time>2021-06-23T11:29:16Z</time>
      </trkpt>
      <trkpt lat="48.10275" lon="6.6991">
        <ele>601.78</ele>
        <time>2021-06-23T11:29:20Z</time>
      </trkpt>
      <trkpt lat="48.10277" lon="6.69945">
        <ele>601.74</ele>
        <time>2021-06-23T11:29:24Z</time>
      </trkpt>
      <trkpt lat="48.10281" lon="6.69988">
        <ele>601.85</ele>
        <time>2021-06-23T11:29:27Z</time>
      </trkpt>
      <trkpt lat="48.10288" lon="6.70015">
        <ele>602.97</ele>
        <time>2021-06-23T11:29:31Z</time>
      </trkpt>
      <trkpt lat="48.1031" lon="6.70124">
        <ele>608.79</ele>
        <time>2021-06-23T11:29:35Z</time>
      </trkpt>
      <trkpt lat="48.10312" lon="6.70142">
        <ele>609.81</ele>
        <time>2021-06-23T11:29:39Z</time>
      </trkpt>
      <trkpt lat="48.10312" lon="6.7017">
        <ele>610.76</ele>
        <time>2021-06-23T11:29:43Z</time>
      </trkpt>
      <trkpt lat="48.10305" lon="6.70197">
        <ele>613.32</ele>
        <time>2021-06-23T11:29:46Z</time>
      </trkpt>
      <trkpt lat="48.10295" lon="6.70222">
        <ele>615.45</ele>
        <time>2021-06-23T11:29:50Z</time>
      </trkpt>
      <trkpt lat="48.10281" lon="6.7024">
        <ele>616.59</ele>
        <time>2021-06-23T11:29:54Z</time>
      </trkpt>
      <trkpt lat="48.10267" lon="6.70251">
        <ele>616.59</ele>
        <time>2021-06-23T11:29:58Z</time>
      </trkpt>
      <trkpt lat="48.10243" lon="6.70264">
        <ele>616.21</ele>
        <time>2021-06-23T11:30:01Z</time>
      </trkpt>
      <trkpt lat="48.10192" lon="6.70278">
        <ele>617.11</ele>
        <time>2021-06-23T11:30:05Z</time>
      </trkpt>
      <trkpt lat="48.10171" lon="6.70291">
        <ele>619.21</ele>
        <time>2021-06-23T11:30:09Z</time>
      </trkpt>
      <trkpt lat="48.10155" lon="6.70306">
        <ele>619.77</ele>
        <time>2021-06-23T11:30:13Z</time>
      </trkpt>
      <trkpt lat="48.10125" lon="6.70342">
        <ele>618.1</ele>
        <time>2021-06-23T11:30:17Z</time>
      </trkpt>
      <trkpt lat="48.10001" lon="6.70516">
        <ele>632.34</ele>
        <time>2021-06-23T11:30:20Z</time>
      </trkpt>
      <trkpt lat="48.09989" lon="6.70543">
        <ele>631.58</ele>
        <time>2021-06-23T11:30:24Z</time>
      </trkpt>
      <trkpt lat="48.09978" lon="6.70576">
        <ele>631.55</ele>
        <time>2021-06-23T11:30:28Z</time>
      </trkpt>
      <trkpt lat="48.0994" lon="6.70772">
        <ele>646.84</ele>
        <time>2021-06-23T11:30:32Z</time>
      </trkpt>
      <trkpt lat="48.09925" lon="6.70861">
        <ele>646.11</ele>
        <time>2021-06-23T11:30:36Z</time>
      </trkpt>
      <trkpt lat="48.09915" lon="6.71049">
        <ele>655.13</ele>
        <time>2021-06-23T11:30:39Z</time>
      </trkpt>
      <trkpt lat="48.09905" lon="6.71111">
        <ele>659.54</ele>
        <time>2021-06-23T11:30:43Z</time>
      </trkpt>
      <trkpt lat="48.09889" lon="6.71172">
        <ele>661.06</ele>
        <time>2021-06-23T11:30:47Z</time>
      </trkpt>
      <trkpt lat="48.09867" lon="6.71238">
        <ele>658.67</ele>
        <time>2021-06-23T11:30:51Z</time>
      </trkpt>
      <trkpt lat="48.09832" lon="6.71316">
        <ele>656.95</ele>
        <time>2021-06-23T11:30:54Z</time>
      </trkpt>
      <trkpt lat="48.09788" lon="6.71402">
        <ele>660.01</ele>
        <time>2021-06-23T11:30:58Z</time>
      </trkpt>
      <trkpt lat="48.09772" lon="6.7144">
        <ele>664.01</ele>
        <time>2021-06-23T11:31:02Z</time>
      </trkpt>
      <trkpt lat="48.09745" lon="6.71492">
        <ele>669.15</ele>
        <time>2021-06-23T11:31:06Z</time>
      </trkpt>
      <trkpt lat="48.09718" lon="6.71537">
        <ele>676.21</ele>
        <time>2021-06-23T11:31:10Z</time>
      </trkpt>
      <trkpt lat="48.09676" lon="6.71601">
        <ele>679.41</ele>
        <time>2021-06-23T11:31:13Z</time>
      </trkpt>
      <trkpt lat="48.09667" lon="6.7161">
        <ele>678.93</ele>
        <time>2021-06-23T11:31:17Z</time>
      </trkpt>
      <trkpt lat="48.09645" lon="6.71622">
        <ele>678.23</ele>
        <time>2021-06-23T11:31:21Z</time>
      </trkpt>
      <trkpt lat="48.09629" lon="6.71625">
        <ele>677.27</ele>
        <time>2021-06-23T11:31:25Z</time>
      </trkpt>
      <trkpt lat="48.09593" lon="6.71627">
        <ele>675.21</ele>
        <time>2021-06-23T11:31:28Z</time>
      </trkpt>
      <trkpt lat="48.09561" lon="6.71637">
        <ele>674.25</ele>
        <time>2021-06-23T11:31:32Z</time>
      </trkpt>
      <trkpt lat="48.0955" lon="6.71643">
        <ele>674.18</ele>
        <time>2021-06-23T11:31:36Z</time>
      </trkpt>
      <trkpt lat="48.0952" lon="6.7167">
        <ele>673.93</ele>
        <time>2021-06-23T11:31:40Z</time>
      </trkpt>
      <trkpt lat="48.09501" lon="6.71697">
        <ele>671.4</ele>
        <time>2021-06-23T11:31:44Z</time>
      </trkpt>
      <trkpt lat="48.09493" lon="6.71715">
        <ele>672</ele>
        <time>2021-06-23T11:31:47Z</time>
      </trkpt>
      <trkpt lat="48.09461" lon="6.71807">
        <ele>672.57</ele>
        <time>2021-06-23T11:31:51Z</time>
      </trkpt>
      <trkpt lat="48.09456" lon="6.7185">
        <ele>673.68</ele>
        <time>2021-06-23T11:31:55Z</time>
      </trkpt>
      <trkpt lat="48.09456" lon="6.72032">
        <ele>674.53</ele>
        <time>2021-06-23T11:31:59Z</time>
      </trkpt>
      <trkpt lat="48.09459" lon="6.72099">
        <ele>677.69</ele>
        <time>2021-06-23T11:32:02Z</time>
      </trkpt>
      <trkpt lat="48.09473" lon="6.7217">
        <ele>678.73</ele>
        <time>2021-06-23T11:32:06Z</time>
      </trkpt>
      <trkpt lat="48.09478" lon="6.72208">
        <ele>675.65</ele>
        <time>2021-06-23T11:32:10Z</time>
      </trkpt>
      <trkpt lat="48.09474" lon="6.72326">
        <ele>664.75</ele>
        <time>2021-06-23T11:32:14Z</time>
      </trkpt>
      <trkpt lat="48.09474" lon="6.72455">
        <ele>661.56</ele>
        <time>2021-06-23T11:32:18Z</time>
      </trkpt>
      <trkpt lat="48.09471" lon="6.72503">
        <ele>660.43</ele>
        <time>2021-06-23T11:32:21Z</time>
      </trkpt>
      <trkpt lat="48.09466" lon="6.72536">
        <ele>657.54</ele>
        <time>2021-06-23T11:32:25Z</time>
      </trkpt>
      <trkpt lat="48.09451" lon="6.72593">
        <ele>655.09</ele>
        <time>2021-06-23T11:32:29Z</time>
      </trkpt>
      <trkpt lat="48.09387" lon="6.72795">
        <ele>648.53</ele>
        <time>2021-06-23T11:32:33Z</time>
      </trkpt>
      <trkpt lat="48.09375" lon="6.72814">
        <ele>648.99</ele>
        <time>2021-06-23T11:32:36Z</time>
      </trkpt>
      <trkpt lat="48.09363" lon="6.72831">
        <ele>649.05</ele>
        <time>2021-06-23T11:32:40Z</time>
      </trkpt>
      <trkpt lat="48.09339" lon="6.72858">
        <ele>650.08</ele>
        <time>2021-06-23T11:32:44Z</time>
      </trkpt>
      <trkpt lat="48.09312" lon="6.72877">
        <ele>648.14</ele>
        <time>2021-06-23T11:32:48Z</time>
      </trkpt>
      <trkpt lat="48.09286" lon="6.72894">
        <ele>646.07</ele>
        <time>2021-06-23T11:32:52Z</time>
      </trkpt>
      <trkpt lat="48.0922" lon="6.72919">
        <ele>640.68</ele>
        <time>2021-06-23T11:32:55Z</time>
      </trkpt>
      <trkpt lat="48.09141" lon="6.72993">
        <ele>631.82</ele>
        <time>2021-06-23T11:32:59Z</time>
      </trkpt>
      <trkpt lat="48.08969" lon="6.73117">
        <ele>627.07</ele>
        <time>2021-06-23T11:33:03Z</time>
      </trkpt>
      <trkpt lat="48.08951" lon="6.73134">
        <ele>626.83</ele>
        <time>2021-06-23T11:33:07Z</time>
      </trkpt>
      <trkpt lat="48.08857" lon="6.73237">
        <ele>614.4</ele>
        <time>2021-06-23T11:33:10Z</time>
      </trkpt>
      <trkpt lat="48.08834" lon="6.73256">
        <ele>614.86</ele>
        <time>2021-06-23T11:33:14Z</time>
      </trkpt>
      <trkpt lat="48.08791" lon="6.7328">
        <ele>609.76</ele>
        <time>2021-06-23T11:33:18Z</time>
      </trkpt>
      <trkpt lat="48.08773" lon="6.73298">
        <ele>608.17</ele>
        <time>2021-06-23T11:33:22Z</time>
      </trkpt>
      <trkpt lat="48.08762" lon="6.73312">
        <ele>607.99</ele>
        <time>2021-06-23T11:33:26Z</time>
      </trkpt>
      <trkpt lat="48.08687" lon="6.73422">
        <ele>600.8</ele>
        <time>2021-06-23T11:33:29Z</time>
      </trkpt>
      <trkpt lat="48.08548" lon="6.73614">
        <ele>613.65</ele>
        <time>2021-06-23T11:33:33Z</time>
      </trkpt>
      <trkpt lat="48.08486" lon="6.73712">
        <ele>613.08</ele>
        <time>2021-06-23T11:33:37Z</time>
      </trkpt>
      <trkpt lat="48.08455" lon="6.73776">
        <ele>612.09</ele>
        <time>2021-06-23T11:33:41Z</time>
      </trkpt>
      <trkpt lat="48.08431" lon="6.73833">
        <ele>608.58</ele>
        <time>2021-06-23T11:33:45Z</time>
      </trkpt>
      <trkpt lat="48.08357" lon="6.73966">
        <ele>601.8</ele>
        <time>2021-06-23T11:33:48Z</time>
      </trkpt>
      <trkpt lat="48.08324" lon="6.74029">
        <ele>598.17</ele>
        <time>2021-06-23T11:33:52Z</time>
      </trkpt>
      <trkpt lat="48.08279" lon="6.74187">
        <ele>601.82</ele>
        <time>2021-06-23T11:33:56Z</time>
      </trkpt>
      <trkpt lat="48.08267" lon="6.742">
        <ele>600.82</ele>
        <time>2021-06-23T11:34:00Z</time>
      </trkpt>
      <trkpt lat="48.08267" lon="6.742">
        <ele>600.82</ele>
        <time>2021-06-23T11:34:00Z</time>
      </trkpt>
      <trkpt lat="48.08245" lon="6.74227">
        <ele>599.46</ele>
        <time>2021-06-23T11:34:04Z</time>
      </trkpt>
      <trkpt lat="48.08242" lon="6.74242">
        <ele>598.27</ele>
        <time>2021-06-23T11:34:08Z</time>
      </trkpt>
      <trkpt lat="48.08239" lon="6.74294">
        <ele>595.31</ele>
        <time>2021-06-23T11:34:12Z</time>
      </trkpt>
      <trkpt lat="48.0824" lon="6.74325">
        <ele>593.91</ele>
        <time>2021-06-23T11:34:16Z</time>
      </trkpt>
      <trkpt lat="48.08241" lon="6.74333">
        <ele>593.79</ele>
        <time>2021-06-23T11:34:20Z</time>
      </trkpt>
      <trkpt lat="48.08247" lon="6.74352">
        <ele>593.34</ele>
        <time>2021-06-23T11:34:24Z</time>
      </trkpt>
      <trkpt lat="48.08282" lon="6.74433">
        <ele>593.48</ele>
        <time>2021-06-23T11:34:28Z</time>
      </trkpt>
      <trkpt lat="48.08288" lon="6.74457">
        <ele>592.27</ele>
        <time>2021-06-23T11:34:33Z</time>
      </trkpt>
      <trkpt lat="48.08296" lon="6.74559">
        <ele>583.75</ele>
        <time>2021-06-23T11:34:37Z</time>
      </trkpt>
      <trkpt lat="48.08296" lon="6.74577">
        <ele>583.32</ele>
        <time>2021-06-23T11:34:41Z</time>
      </trkpt>
      <trkpt lat="48.08292" lon="6.74606">
        <ele>582.44</ele>
        <time>2021-06-23T11:34:45Z</time>
      </trkpt>
      <trkpt lat="48.0826" lon="6.74759">
        <ele>577.63</ele>
        <time>2021-06-23T11:34:49Z</time>
      </trkpt>
      <trkpt lat="48.08227" lon="6.74877">
        <ele>572.69</ele>
        <time>2021-06-23T11:34:53Z</time>
      </trkpt>
      <trkpt lat="48.08219" lon="6.74914">
        <ele>571.81</ele>
        <time>2021-06-23T11:34:57Z</time>
      </trkpt>
      <trkpt lat="48.08213" lon="6.74946">
        <ele>570.91</ele>
        <time>2021-06-23T11:35:01Z</time>
      </trkpt>
      <trkpt lat="48.0821" lon="6.74969">
        <ele>570.49</ele>
        <time>2021-06-23T11:35:06Z</time>
      </trkpt>
      <trkpt lat="48.08211" lon="6.74993">
        <ele>570.98</ele>
        <time>2021-06-23T11:35:10Z</time>
      </trkpt>
      <trkpt lat="48.08216" lon="6.75022">
        <ele>572.4</ele>
        <time>2021-06-23T11:35:14Z</time>
      </trkpt>
      <trkpt lat="48.08234" lon="6.75078">
        <ele>571.52</ele>
        <time>2021-06-23T11:35:18Z</time>
      </trkpt>
      <trkpt lat="48.08238" lon="6.75101">
        <ele>570.16</ele>
        <time>2021-06-23T11:35:22Z</time>
      </trkpt>
      <trkpt lat="48.08252" lon="6.75208">
        <ele>565.1</ele>
        <time>2021-06-23T11:35:26Z</time>
      </trkpt>
      <trkpt lat="48.08243" lon="6.75232">
        <ele>562.49</ele>
        <time>2021-06-23T11:35:30Z</time>
      </trkpt>
      <trkpt lat="48.08268" lon="6.75282">
        <ele>567.95</ele>
        <time>2021-06-23T11:35:36Z</time>
      </trkpt>
      <trkpt lat="48.08287" lon="6.7533">
        <ele>571.95</ele>
        <time>2021-06-23T11:35:42Z</time>
      </trkpt>
      <trkpt lat="48.08306" lon="6.75387">
        <ele>573.13</ele>
        <time>2021-06-23T11:35:48Z</time>
      </trkpt>
      <trkpt lat="48.08373" lon="6.75692">
        <ele>578.76</ele>
        <time>2021-06-23T11:35:54Z</time>
      </trkpt>
      <trkpt lat="48.08382" lon="6.75777">
        <ele>582.36</ele>
        <time>2021-06-23T11:36:00Z</time>
      </trkpt>
      <trkpt lat="48.08387" lon="6.75809">
        <ele>581.4</ele>
        <time>2021-06-23T11:36:06Z</time>
      </trkpt>
      <trkpt lat="48.08399" lon="6.75859">
        <ele>582.72</ele>
        <time>2021-06-23T11:36:12Z</time>
      </trkpt>
      <trkpt lat="48.08408" lon="6.75887">
        <ele>584.86</ele>
        <time>2021-06-23T11:36:17Z</time>
      </trkpt>
      <trkpt lat="48.08421" lon="6.75919">
        <ele>586.88</ele>
        <time>2021-06-23T11:36:23Z</time>
      </trkpt>
      <trkpt lat="48.08434" lon="6.75958">
        <ele>587.67</ele>
        <time>2021-06-23T11:36:29Z</time>
      </trkpt>
      <trkpt lat="48.08445" lon="6.75996">
        <ele>588.33</ele>
        <time>2021-06-23T11:36:35Z</time>
      </trkpt>
      <trkpt lat="48.08453" lon="6.76038">
        <ele>583.77</ele>
        <time>2021-06-23T11:36:41Z</time>
      </trkpt>
      <trkpt lat="48.08456" lon="6.76066">
        <ele>580.26</ele>
        <time>2021-06-23T11:36:47Z</time>
      </trkpt>
      <trkpt lat="48.08461" lon="6.76161">
        <ele>578.46</ele>
        <time>2021-06-23T11:36:53Z</time>
      </trkpt>
      <trkpt lat="48.08465" lon="6.76216">
        <ele>578.64</ele>
        <time>2021-06-23T11:36:59Z</time>
      </trkpt>
      <trkpt lat="48.08468" lon="6.76232">
        <ele>578.43</ele>
        <time>2021-06-23T11:37:05Z</time>
      </trkpt>
      <trkpt lat="48.08479" lon="6.76275">
        <ele>578.49</ele>
        <time>2021-06-23T11:37:11Z</time>
      </trkpt>
      <trkpt lat="48.08514" lon="6.76392">
        <ele>577.02</ele>
        <time>2021-06-23T11:37:16Z</time>
      </trkpt>
      <trkpt lat="48.08521" lon="6.76428">
        <ele>577.48</ele>
        <time>2021-06-23T11:37:22Z</time>
      </trkpt>
      <trkpt lat="48.08524" lon="6.76472">
        <ele>576.88</ele>
        <time>2021-06-23T11:37:28Z</time>
      </trkpt>
      <trkpt lat="48.08524" lon="6.76526">
        <ele>577.79</ele>
        <time>2021-06-23T11:37:34Z</time>
      </trkpt>
      <trkpt lat="48.08519" lon="6.76615">
        <ele>579.26</ele>
        <time>2021-06-23T11:37:40Z</time>
      </trkpt>
      <trkpt lat="48.0852" lon="6.76665">
        <ele>581.36</ele>
        <time>2021-06-23T11:37:46Z</time>
      </trkpt>
      <trkpt lat="48.08525" lon="6.76772">
        <ele>579.2</ele>
        <time>2021-06-23T11:37:52Z</time>
      </trkpt>
      <trkpt lat="48.08524" lon="6.76819">
        <ele>580.47</ele>
        <time>2021-06-23T11:37:58Z</time>
      </trkpt>
      <trkpt lat="48.08521" lon="6.7685">
        <ele>581.15</ele>
        <time>2021-06-23T11:38:04Z</time>
      </trkpt>
      <trkpt lat="48.0851" lon="6.76934">
        <ele>581.61</ele>
        <time>2021-06-23T11:38:10Z</time>
      </trkpt>
      <trkpt lat="48.08509" lon="6.76971">
        <ele>581.97</ele>
        <time>2021-06-23T11:38:15Z</time>
      </trkpt>
      <trkpt lat="48.08513" lon="6.7711">
        <ele>584.45</ele>
        <time>2021-06-23T11:38:21Z</time>
      </trkpt>
      <trkpt lat="48.08511" lon="6.77143">
        <ele>583.41</ele>
        <time>2021-06-23T11:38:27Z</time>
      </trkpt>
      <trkpt lat="48.08508" lon="6.77165">
        <ele>583.3</ele>
        <time>2021-06-23T11:38:33Z</time>
      </trkpt>
      <trkpt lat="48.08499" lon="6.77208">
        <ele>584.52</ele>
        <time>2021-06-23T11:38:39Z</time>
      </trkpt>
      <trkpt lat="48.08486" lon="6.77242">
        <ele>585</ele>
        <time>2021-06-23T11:38:45Z</time>
      </trkpt>
      <trkpt lat="48.08467" lon="6.77279">
        <ele>585.39</ele>
        <time>2021-06-23T11:38:51Z</time>
      </trkpt>
      <trkpt lat="48.08444" lon="6.77312">
        <ele>587.75</ele>
        <time>2021-06-23T11:38:57Z</time>
      </trkpt>
      <trkpt lat="48.08183" lon="6.77551">
        <ele>588.27</ele>
        <time>2021-06-23T11:39:03Z</time>
      </trkpt>
      <trkpt lat="48.08148" lon="6.77588">
        <ele>588.18</ele>
        <time>2021-06-23T11:39:09Z</time>
      </trkpt>
      <trkpt lat="48.08102" lon="6.77652">
        <ele>587.85</ele>
        <time>2021-06-23T11:39:14Z</time>
      </trkpt>
      <trkpt lat="48.08087" lon="6.77677">
        <ele>586.8</ele>
        <time>2021-06-23T11:39:20Z</time>
      </trkpt>
      <trkpt lat="48.08068" lon="6.77712">
        <ele>586.84</ele>
        <time>2021-06-23T11:39:26Z</time>
      </trkpt>
      <trkpt lat="48.0804" lon="6.77776">
        <ele>588.49</ele>
        <time>2021-06-23T11:39:32Z</time>
      </trkpt>
      <trkpt lat="48.0802" lon="6.77846">
        <ele>592</ele>
        <time>2021-06-23T11:39:38Z</time>
      </trkpt>
      <trkpt lat="48.07998" lon="6.77936">
        <ele>592.48</ele>
        <time>2021-06-23T11:39:44Z</time>
      </trkpt>
      <trkpt lat="48.07798" lon="6.79207">
        <ele>599.96</ele>
        <time>2021-06-23T11:39:50Z</time>
      </trkpt>
      <trkpt lat="48.07787" lon="6.79296">
        <ele>605.74</ele>
        <time>2021-06-23T11:39:56Z</time>
      </trkpt>
      <trkpt lat="48.07783" lon="6.79341">
        <ele>606.94</ele>
        <time>2021-06-23T11:40:02Z</time>
      </trkpt>
      <trkpt lat="48.07783" lon="6.79434">
        <ele>607.83</ele>
        <time>2021-06-23T11:40:08Z</time>
      </trkpt>
      <trkpt lat="48.07796" lon="6.79623">
        <ele>615.46</ele>
        <time>2021-06-23T11:40:13Z</time>
      </trkpt>
      <trkpt lat="48.07798" lon="6.79656">
        <ele>616.08</ele>
        <time>2021-06-23T11:40:19Z</time>
      </trkpt>
      <trkpt lat="48.07797" lon="6.7969">
        <ele>616.42</ele>
        <time>2021-06-23T11:40:25Z</time>
      </trkpt>
      <trkpt lat="48.07795" lon="6.79719">
        <ele>618.03</ele>
        <time>2021-06-23T11:40:31Z</time>
      </trkpt>
      <trkpt lat="48.07705" lon="6.8043">
        <ele>624.15</ele>
        <time>2021-06-23T11:40:37Z</time>
      </trkpt>
      <trkpt lat="48.0768" lon="6.80534">
        <ele>621.77</ele>
        <time>2021-06-23T11:40:43Z</time>
      </trkpt>
      <trkpt lat="48.07575" lon="6.80744">
        <ele>622.24</ele>
        <time>2021-06-23T11:40:49Z</time>
      </trkpt>
      <trkpt lat="48.07562" lon="6.80777">
        <ele>622.19</ele>
        <time>2021-06-23T11:40:55Z</time>
      </trkpt>
      <trkpt lat="48.07546" lon="6.80823">
        <ele>621.4</ele>
        <time>2021-06-23T11:41:01Z</time>
      </trkpt>
      <trkpt lat="48.07534" lon="6.80883">
        <ele>621.95</ele>
        <time>2021-06-23T11:41:07Z</time>
      </trkpt>
      <trkpt lat="48.0753" lon="6.80917">
        <ele>621.07</ele>
        <time>2021-06-23T11:41:12Z</time>
      </trkpt>
      <trkpt lat="48.07526" lon="6.80988">
        <ele>620.09</ele>
        <time>2021-06-23T11:41:18Z</time>
      </trkpt>
      <trkpt lat="48.07522" lon="6.81118">
        <ele>623.41</ele>
        <time>2021-06-23T11:41:24Z</time>
      </trkpt>
      <trkpt lat="48.07515" lon="6.81186">
        <ele>623.69</ele>
        <time>2021-06-23T11:41:30Z</time>
      </trkpt>
      <trkpt lat="48.07506" lon="6.8123">
        <ele>621.11</ele>
        <time>2021-06-23T11:41:36Z</time>
      </trkpt>
      <trkpt lat="48.07492" lon="6.81276">
        <ele>620.12</ele>
        <time>2021-06-23T11:41:42Z</time>
      </trkpt>
      <trkpt lat="48.07468" lon="6.81336">
        <ele>620.13</ele>
        <time>2021-06-23T11:41:48Z</time>
      </trkpt>
      <trkpt lat="48.07428" lon="6.81424">
        <ele>620.48</ele>
        <time>2021-06-23T11:41:54Z</time>
      </trkpt>
      <trkpt lat="48.07416" lon="6.81455">
        <ele>618.74</ele>
        <time>2021-06-23T11:42:00Z</time>
      </trkpt>
      <trkpt lat="48.07367" lon="6.8156">
        <ele>622.03</ele>
        <time>2021-06-23T11:42:06Z</time>
      </trkpt>
      <trkpt lat="48.07265" lon="6.8179">
        <ele>631.21</ele>
        <time>2021-06-23T11:42:11Z</time>
      </trkpt>
      <trkpt lat="48.07259" lon="6.81809">
        <ele>631.8</ele>
        <time>2021-06-23T11:42:17Z</time>
      </trkpt>
      <trkpt lat="48.07257" lon="6.81828">
        <ele>632.29</ele>
        <time>2021-06-23T11:42:23Z</time>
      </trkpt>
      <trkpt lat="48.07258" lon="6.81862">
        <ele>633.88</ele>
        <time>2021-06-23T11:42:29Z</time>
      </trkpt>
      <trkpt lat="48.07302" lon="6.82065">
        <ele>641.75</ele>
        <time>2021-06-23T11:42:35Z</time>
      </trkpt>
      <trkpt lat="48.07321" lon="6.82147">
        <ele>644.78</ele>
        <time>2021-06-23T11:42:41Z</time>
      </trkpt>
      <trkpt lat="48.0733" lon="6.82183">
        <ele>646.04</ele>
        <time>2021-06-23T11:42:47Z</time>
      </trkpt>
      <trkpt lat="48.07347" lon="6.82236">
        <ele>647</ele>
        <time>2021-06-23T11:42:53Z</time>
      </trkpt>
      <trkpt lat="48.07354" lon="6.82263">
        <ele>648</ele>
        <time>2021-06-23T11:42:59Z</time>
      </trkpt>
      <trkpt lat="48.0736" lon="6.8229">
        <ele>649.66</ele>
        <time>2021-06-23T11:43:05Z</time>
      </trkpt>
      <trkpt lat="48.07361" lon="6.82314">
        <ele>651</ele>
        <time>2021-06-23T11:43:10Z</time>
      </trkpt>
      <trkpt lat="48.07357" lon="6.82365">
        <ele>651.44</ele>
        <time>2021-06-23T11:43:16Z</time>
      </trkpt>
      <trkpt lat="48.07338" lon="6.82511">
        <ele>654.41</ele>
        <time>2021-06-23T11:43:22Z</time>
      </trkpt>
      <trkpt lat="48.07305" lon="6.82838">
        <ele>659.98</ele>
        <time>2021-06-23T11:43:28Z</time>
      </trkpt>
      <trkpt lat="48.07304" lon="6.82881">
        <ele>659.81</ele>
        <time>2021-06-23T11:43:34Z</time>
      </trkpt>
      <trkpt lat="48.07306" lon="6.82921">
        <ele>659.84</ele>
        <time>2021-06-23T11:43:40Z</time>
      </trkpt>
      <trkpt lat="48.07339" lon="6.83174">
        <ele>661.04</ele>
        <time>2021-06-23T11:43:46Z</time>
      </trkpt>
      <trkpt lat="48.07347" lon="6.83215">
        <ele>662.88</ele>
        <time>2021-06-23T11:43:52Z</time>
      </trkpt>
      <trkpt lat="48.07373" lon="6.83322">
        <ele>665.58</ele>
        <time>2021-06-23T11:43:58Z</time>
      </trkpt>
      <trkpt lat="48.07384" lon="6.8339">
        <ele>668.83</ele>
        <time>2021-06-23T11:44:04Z</time>
      </trkpt>
      <trkpt lat="48.07386" lon="6.83431">
        <ele>669.86</ele>
        <time>2021-06-23T11:44:09Z</time>
      </trkpt>
      <trkpt lat="48.07385" lon="6.83468">
        <ele>671.46</ele>
        <time>2021-06-23T11:44:15Z</time>
      </trkpt>
      <trkpt lat="48.07383" lon="6.835">
        <ele>675.34</ele>
        <time>2021-06-23T11:44:21Z</time>
      </trkpt>
      <trkpt lat="48.07373" lon="6.83562">
        <ele>679.19</ele>
        <time>2021-06-23T11:44:27Z</time>
      </trkpt>
      <trkpt lat="48.07319" lon="6.83811">
        <ele>682.1</ele>
        <time>2021-06-23T11:44:33Z</time>
      </trkpt>
      <trkpt lat="48.07302" lon="6.83867">
        <ele>683.36</ele>
        <time>2021-06-23T11:44:39Z</time>
      </trkpt>
      <trkpt lat="48.0728" lon="6.83902">
        <ele>679</ele>
        <time>2021-06-23T11:44:45Z</time>
      </trkpt>
      <trkpt lat="48.07268" lon="6.83916">
        <ele>676.89</ele>
        <time>2021-06-23T11:44:51Z</time>
      </trkpt>
      <trkpt lat="48.07258" lon="6.83917">
        <ele>674.78</ele>
        <time>2021-06-23T11:44:55Z</time>
      </trkpt>
      <trkpt lat="48.07252" lon="6.83922">
        <ele>673.21</ele>
        <time>2021-06-23T11:45:00Z</time>
      </trkpt>
      <trkpt lat="48.07246" lon="6.83932">
        <ele>671.91</ele>
        <time>2021-06-23T11:45:05Z</time>
      </trkpt>
      <trkpt lat="48.07244" lon="6.83947">
        <ele>671.23</ele>
        <time>2021-06-23T11:45:09Z</time>
      </trkpt>
      <trkpt lat="48.07247" lon="6.8396">
        <ele>672.03</ele>
        <time>2021-06-23T11:45:14Z</time>
      </trkpt>
      <trkpt lat="48.07255" lon="6.8397">
        <ele>674.24</ele>
        <time>2021-06-23T11:45:19Z</time>
      </trkpt>
      <trkpt lat="48.07257" lon="6.83988">
        <ele>676.5</ele>
        <time>2021-06-23T11:45:23Z</time>
      </trkpt>
      <trkpt lat="48.07257" lon="6.84009">
        <ele>678.17</ele>
        <time>2021-06-23T11:45:28Z</time>
      </trkpt>
      <trkpt lat="48.0726" lon="6.84021">
        <ele>679.6</ele>
        <time>2021-06-23T11:45:33Z</time>
      </trkpt>
      <trkpt lat="48.07256" lon="6.84096">
        <ele>683.74</ele>
        <time>2021-06-23T11:45:37Z</time>
      </trkpt>
      <trkpt lat="48.07238" lon="6.84239">
        <ele>677.99</ele>
        <time>2021-06-23T11:45:42Z</time>
      </trkpt>
      <trkpt lat="48.07238" lon="6.84274">
        <ele>680.16</ele>
        <time>2021-06-23T11:45:47Z</time>
      </trkpt>
      <trkpt lat="48.07286" lon="6.84541">
        <ele>676.51</ele>
        <time>2021-06-23T11:45:51Z</time>
      </trkpt>
      <trkpt lat="48.07289" lon="6.84573">
        <ele>673.36</ele>
        <time>2021-06-23T11:45:56Z</time>
      </trkpt>
      <trkpt lat="48.0729" lon="6.84601">
        <ele>671.4</ele>
        <time>2021-06-23T11:46:01Z</time>
      </trkpt>
      <trkpt lat="48.07276" lon="6.84786">
        <ele>671.39</ele>
        <time>2021-06-23T11:46:05Z</time>
      </trkpt>
      <trkpt lat="48.07269" lon="6.84827">
        <ele>669.54</ele>
        <time>2021-06-23T11:46:10Z</time>
      </trkpt>
      <trkpt lat="48.07253" lon="6.84888">
        <ele>670.13</ele>
        <time>2021-06-23T11:46:15Z</time>
      </trkpt>
      <trkpt lat="48.07249" lon="6.84925">
        <ele>671.36</ele>
        <time>2021-06-23T11:46:19Z</time>
      </trkpt>
      <trkpt lat="48.07234" lon="6.85123">
        <ele>669.04</ele>
        <time>2021-06-23T11:46:24Z</time>
      </trkpt>
      <trkpt lat="48.0723" lon="6.85199">
        <ele>665.06</ele>
        <time>2021-06-23T11:46:29Z</time>
      </trkpt>
      <trkpt lat="48.07231" lon="6.85436">
        <ele>663.91</ele>
        <time>2021-06-23T11:46:33Z</time>
      </trkpt>
      <trkpt lat="48.07231" lon="6.85472">
        <ele>664.29</ele>
        <time>2021-06-23T11:46:38Z</time>
      </trkpt>
      <trkpt lat="48.07238" lon="6.85576">
        <ele>664.77</ele>
        <time>2021-06-23T11:46:42Z</time>
      </trkpt>
      <trkpt lat="48.07253" lon="6.85708">
        <ele>664.47</ele>
        <time>2021-06-23T11:46:47Z</time>
      </trkpt>
      <trkpt lat="48.07267" lon="6.8592">
        <ele>662</ele>
        <time>2021-06-23T11:46:52Z</time>
      </trkpt>
      <trkpt lat="48.07267" lon="6.8604">
        <ele>662.91</ele>
        <time>2021-06-23T11:46:56Z</time>
      </trkpt>
      <trkpt lat="48.07263" lon="6.86069">
        <ele>663.67</ele>
        <time>2021-06-23T11:47:01Z</time>
      </trkpt>
      <trkpt lat="48.07253" lon="6.86119">
        <ele>663.81</ele>
        <time>2021-06-23T11:47:06Z</time>
      </trkpt>
      <trkpt lat="48.07232" lon="6.86202">
        <ele>662.43</ele>
        <time>2021-06-23T11:47:10Z</time>
      </trkpt>
      <trkpt lat="48.0721" lon="6.8628">
        <ele>662.16</ele>
        <time>2021-06-23T11:47:15Z</time>
      </trkpt>
      <trkpt lat="48.072" lon="6.86325">
        <ele>662.77</ele>
        <time>2021-06-23T11:47:20Z</time>
      </trkpt>
      <trkpt lat="48.07193" lon="6.86365">
        <ele>663.21</ele>
        <time>2021-06-23T11:47:24Z</time>
      </trkpt>
      <trkpt lat="48.07188" lon="6.86407">
        <ele>664.6</ele>
        <time>2021-06-23T11:47:29Z</time>
      </trkpt>
      <trkpt lat="48.07163" lon="6.86671">
        <ele>660.87</ele>
        <time>2021-06-23T11:47:34Z</time>
      </trkpt>
      <trkpt lat="48.07159" lon="6.867">
        <ele>660.78</ele>
        <time>2021-06-23T11:47:38Z</time>
      </trkpt>
      <trkpt lat="48.07153" lon="6.86719">
        <ele>660.95</ele>
        <time>2021-06-23T11:47:43Z</time>
      </trkpt>
      <trkpt lat="48.0715" lon="6.86722">
        <ele>660.99</ele>
        <time>2021-06-23T11:47:43Z</time>
      </trkpt>
      <trkpt lat="48.0715" lon="6.86722">
        <ele>660.99</ele>
        <time>2021-06-23T11:47:43Z</time>
      </trkpt>
      <trkpt lat="48.07146" lon="6.86727">
        <ele>661.04</ele>
        <time>2021-06-23T11:47:55Z</time>
      </trkpt>
      <trkpt lat="48.07142" lon="6.86742">
        <ele>661.08</ele>
        <time>2021-06-23T11:48:08Z</time>
      </trkpt>
      <trkpt lat="48.07144" lon="6.86755">
        <ele>661.36</ele>
        <time>2021-06-23T11:48:20Z</time>
      </trkpt>
      <trkpt lat="48.07149" lon="6.86762">
        <ele>661.79</ele>
        <time>2021-06-23T11:48:32Z</time>
      </trkpt>
      <trkpt lat="48.07157" lon="6.86767">
        <ele>662.27</ele>
        <time>2021-06-23T11:48:44Z</time>
      </trkpt>
      <trkpt lat="48.07167" lon="6.86763">
        <ele>662.49</ele>
        <time>2021-06-23T11:48:56Z</time>
      </trkpt>
      <trkpt lat="48.0718" lon="6.86776">
        <ele>662.97</ele>
        <time>2021-06-23T11:49:08Z</time>
      </trkpt>
      <trkpt lat="48.07286" lon="6.87015">
        <ele>662.87</ele>
        <time>2021-06-23T11:49:20Z</time>
      </trkpt>
      <trkpt lat="48.0744" lon="6.87337">
        <ele>660.66</ele>
        <time>2021-06-23T11:49:33Z</time>
      </trkpt>
      <trkpt lat="48.07691" lon="6.87822">
        <ele>655.95</ele>
        <time>2021-06-23T11:49:45Z</time>
      </trkpt>
      <trkpt lat="48.07761" lon="6.87966">
        <ele>656.29</ele>
        <time>2021-06-23T11:49:57Z</time>
      </trkpt>
      <trkpt lat="48.07799" lon="6.88049">
        <ele>655.14</ele>
        <time>2021-06-23T11:50:09Z</time>
      </trkpt>
      <trkpt lat="48.07799" lon="6.88049">
        <ele>655.14</ele>
        <time>2021-06-23T11:50:09Z</time>
      </trkpt>
      <trkpt lat="48.07826" lon="6.88108">
        <ele>654.96</ele>
        <time>2021-06-23T11:50:15Z</time>
      </trkpt>
      <trkpt lat="48.07849" lon="6.88167">
        <ele>653.51</ele>
        <time>2021-06-23T11:50:21Z</time>
      </trkpt>
      <trkpt lat="48.07858" lon="6.88199">
        <ele>652.72</ele>
        <time>2021-06-23T11:50:27Z</time>
      </trkpt>
      <trkpt lat="48.07864" lon="6.88238">
        <ele>652.57</ele>
        <time>2021-06-23T11:50:32Z</time>
      </trkpt>
      <trkpt lat="48.07866" lon="6.88289">
        <ele>649.89</ele>
        <time>2021-06-23T11:50:38Z</time>
      </trkpt>
      <trkpt lat="48.07864" lon="6.88326">
        <ele>648.43</ele>
        <time>2021-06-23T11:50:44Z</time>
      </trkpt>
      <trkpt lat="48.07853" lon="6.8838">
        <ele>649.96</ele>
        <time>2021-06-23T11:50:50Z</time>
      </trkpt>
      <trkpt lat="48.0778" lon="6.88597">
        <ele>654.39</ele>
        <time>2021-06-23T11:50:56Z</time>
      </trkpt>
      <trkpt lat="48.07767" lon="6.88632">
        <ele>655.84</ele>
        <time>2021-06-23T11:51:02Z</time>
      </trkpt>
      <trkpt lat="48.07754" lon="6.88647">
        <ele>656.3</ele>
        <time>2021-06-23T11:51:08Z</time>
      </trkpt>
      <trkpt lat="48.07751" lon="6.88647">
        <ele>656.28</ele>
        <time>2021-06-23T11:51:09Z</time>
      </trkpt>
      <trkpt lat="48.07745" lon="6.8865">
        <ele>656.22</ele>
        <time>2021-06-23T11:51:11Z</time>
      </trkpt>
      <trkpt lat="48.07742" lon="6.88655">
        <ele>656.28</ele>
        <time>2021-06-23T11:51:13Z</time>
      </trkpt>
      <trkpt lat="48.07741" lon="6.88665">
        <ele>656.61</ele>
        <time>2021-06-23T11:51:15Z</time>
      </trkpt>
      <trkpt lat="48.07743" lon="6.88673">
        <ele>657.02</ele>
        <time>2021-06-23T11:51:16Z</time>
      </trkpt>
      <trkpt lat="48.0775" lon="6.88678">
        <ele>657.41</ele>
        <time>2021-06-23T11:51:18Z</time>
      </trkpt>
      <trkpt lat="48.07759" lon="6.88699">
        <ele>657.76</ele>
        <time>2021-06-23T11:51:20Z</time>
      </trkpt>
      <trkpt lat="48.07766" lon="6.88723">
        <ele>657.33</ele>
        <time>2021-06-23T11:51:22Z</time>
      </trkpt>
      <trkpt lat="48.07785" lon="6.88802">
        <ele>658.1</ele>
        <time>2021-06-23T11:51:23Z</time>
      </trkpt>
      <trkpt lat="48.07789" lon="6.88826">
        <ele>658.51</ele>
        <time>2021-06-23T11:51:25Z</time>
      </trkpt>
      <trkpt lat="48.07788" lon="6.88834">
        <ele>658.91</ele>
        <time>2021-06-23T11:51:33Z</time>
      </trkpt>
      <trkpt lat="48.07792" lon="6.88845">
        <ele>659.09</ele>
        <time>2021-06-23T11:51:40Z</time>
      </trkpt>
      <trkpt lat="48.07795" lon="6.88848">
        <ele>659.01</ele>
        <time>2021-06-23T11:51:48Z</time>
      </trkpt>
      <trkpt lat="48.07809" lon="6.88871">
        <ele>659.51</ele>
        <time>2021-06-23T11:51:55Z</time>
      </trkpt>
      <trkpt lat="48.07875" lon="6.89032">
        <ele>666.31</ele>
        <time>2021-06-23T11:52:03Z</time>
      </trkpt>
      <trkpt lat="48.07905" lon="6.8912">
        <ele>668.6</ele>
        <time>2021-06-23T11:52:10Z</time>
      </trkpt>
      <trkpt lat="48.07955" lon="6.8929">
        <ele>668.55</ele>
        <time>2021-06-23T11:52:18Z</time>
      </trkpt>
      <trkpt lat="48.0798" lon="6.89365">
        <ele>666.16</ele>
        <time>2021-06-23T11:52:25Z</time>
      </trkpt>
      <trkpt lat="48.08087" lon="6.89667">
        <ele>668.86</ele>
        <time>2021-06-23T11:52:33Z</time>
      </trkpt>
      <trkpt lat="48.08113" lon="6.89737">
        <ele>670.39</ele>
        <time>2021-06-23T11:52:40Z</time>
      </trkpt>
      <trkpt lat="48.08174" lon="6.89901">
        <ele>669</ele>
        <time>2021-06-23T11:52:47Z</time>
      </trkpt>
      <trkpt lat="48.08272" lon="6.9011">
        <ele>675.79</ele>
        <time>2021-06-23T11:52:55Z</time>
      </trkpt>
      <trkpt lat="48.08283" lon="6.90135">
        <ele>674.95</ele>
        <time>2021-06-23T11:53:02Z</time>
      </trkpt>
      <trkpt lat="48.08293" lon="6.90164">
        <ele>674.94</ele>
        <time>2021-06-23T11:53:10Z</time>
      </trkpt>
      <trkpt lat="48.08301" lon="6.90196">
        <ele>676.18</ele>
        <time>2021-06-23T11:53:17Z</time>
      </trkpt>
      <trkpt lat="48.08306" lon="6.90233">
        <ele>676</ele>
        <time>2021-06-23T11:53:25Z</time>
      </trkpt>
      <trkpt lat="48.08304" lon="6.90292">
        <ele>674.57</ele>
        <time>2021-06-23T11:53:32Z</time>
      </trkpt>
      <trkpt lat="48.08303" lon="6.90301">
        <ele>674.31</ele>
        <time>2021-06-23T11:53:40Z</time>
      </trkpt>
      <trkpt lat="48.08301" lon="6.90308">
        <ele>674.26</ele>
        <time>2021-06-23T11:53:43Z</time>
      </trkpt>
      <trkpt lat="48.08301" lon="6.90317">
        <ele>674.57</ele>
        <time>2021-06-23T11:53:45Z</time>
      </trkpt>
      <trkpt lat="48.08306" lon="6.90327">
        <ele>674.77</ele>
        <time>2021-06-23T11:53:48Z</time>
      </trkpt>
      <trkpt lat="48.08312" lon="6.90331">
        <ele>674.91</ele>
        <time>2021-06-23T11:53:51Z</time>
      </trkpt>
      <trkpt lat="48.08318" lon="6.90349">
        <ele>675.32</ele>
        <time>2021-06-23T11:53:54Z</time>
      </trkpt>
      <trkpt lat="48.0832" lon="6.90378">
        <ele>677.01</ele>
        <time>2021-06-23T11:53:56Z</time>
      </trkpt>
      <trkpt lat="48.0833" lon="6.90463">
        <ele>683.38</ele>
        <time>2021-06-23T11:53:59Z</time>
      </trkpt>
      <trkpt lat="48.08341" lon="6.90579">
        <ele>686.76</ele>
        <time>2021-06-23T11:54:02Z</time>
      </trkpt>
      <trkpt lat="48.08342" lon="6.90619">
        <ele>686.88</ele>
        <time>2021-06-23T11:54:05Z</time>
      </trkpt>
      <trkpt lat="48.08339" lon="6.90662">
        <ele>688.28</ele>
        <time>2021-06-23T11:54:07Z</time>
      </trkpt>
      <trkpt lat="48.08317" lon="6.90782">
        <ele>693.74</ele>
        <time>2021-06-23T11:54:10Z</time>
      </trkpt>
      <trkpt lat="48.08316" lon="6.90823">
        <ele>693.39</ele>
        <time>2021-06-23T11:54:13Z</time>
      </trkpt>
      <trkpt lat="48.08317" lon="6.90845">
        <ele>691.74</ele>
        <time>2021-06-23T11:54:16Z</time>
      </trkpt>
      <trkpt lat="48.08322" lon="6.90869">
        <ele>690.13</ele>
        <time>2021-06-23T11:54:18Z</time>
      </trkpt>
      <trkpt lat="48.08331" lon="6.90897">
        <ele>688.75</ele>
        <time>2021-06-23T11:54:21Z</time>
      </trkpt>
      <trkpt lat="48.08342" lon="6.9092">
        <ele>687.96</ele>
        <time>2021-06-23T11:54:24Z</time>
      </trkpt>
      <trkpt lat="48.08364" lon="6.90953">
        <ele>690.31</ele>
        <time>2021-06-23T11:54:27Z</time>
      </trkpt>
      <trkpt lat="48.0838" lon="6.90968">
        <ele>693.66</ele>
        <time>2021-06-23T11:54:29Z</time>
      </trkpt>
      <trkpt lat="48.08399" lon="6.90981">
        <ele>696.77</ele>
        <time>2021-06-23T11:54:32Z</time>
      </trkpt>
      <trkpt lat="48.08421" lon="6.9099">
        <ele>696.06</ele>
        <time>2021-06-23T11:54:35Z</time>
      </trkpt>
      <trkpt lat="48.08467" lon="6.90995">
        <ele>692.32</ele>
        <time>2021-06-23T11:54:38Z</time>
      </trkpt>
      <trkpt lat="48.08474" lon="6.91004">
        <ele>693.34</ele>
        <time>2021-06-23T11:54:40Z</time>
      </trkpt>
      <trkpt lat="48.08477" lon="6.91013">
        <ele>694.09</ele>
        <time>2021-06-23T11:54:45Z</time>
      </trkpt>
      <trkpt lat="48.0848" lon="6.91017">
        <ele>694.95</ele>
        <time>2021-06-23T11:54:50Z</time>
      </trkpt>
      <trkpt lat="48.08486" lon="6.91077">
        <ele>703.46</ele>
        <time>2021-06-23T11:54:55Z</time>
      </trkpt>
      <trkpt lat="48.08484" lon="6.91126">
        <ele>705.27</ele>
        <time>2021-06-23T11:55:00Z</time>
      </trkpt>
      <trkpt lat="48.08479" lon="6.91158">
        <ele>706.53</ele>
        <time>2021-06-23T11:55:04Z</time>
      </trkpt>
      <trkpt lat="48.08451" lon="6.91251">
        <ele>705.41</ele>
        <time>2021-06-23T11:55:09Z</time>
      </trkpt>
      <trkpt lat="48.08419" lon="6.91389">
        <ele>705.56</ele>
        <time>2021-06-23T11:55:14Z</time>
      </trkpt>
      <trkpt lat="48.08411" lon="6.91448">
        <ele>706.06</ele>
        <time>2021-06-23T11:55:19Z</time>
      </trkpt>
      <trkpt lat="48.08401" lon="6.91553">
        <ele>710.58</ele>
        <time>2021-06-23T11:55:24Z</time>
      </trkpt>
      <trkpt lat="48.08389" lon="6.91645">
        <ele>709.99</ele>
        <time>2021-06-23T11:55:28Z</time>
      </trkpt>
      <trkpt lat="48.08369" lon="6.91717">
        <ele>714.53</ele>
        <time>2021-06-23T11:55:33Z</time>
      </trkpt>
      <trkpt lat="48.08362" lon="6.9175">
        <ele>715.12</ele>
        <time>2021-06-23T11:55:38Z</time>
      </trkpt>
      <trkpt lat="48.08356" lon="6.91795">
        <ele>712.71</ele>
        <time>2021-06-23T11:55:43Z</time>
      </trkpt>
      <trkpt lat="48.08351" lon="6.91858">
        <ele>709.28</ele>
        <time>2021-06-23T11:55:48Z</time>
      </trkpt>
      <trkpt lat="48.08337" lon="6.92132">
        <ele>716.33</ele>
        <time>2021-06-23T11:55:53Z</time>
      </trkpt>
      <trkpt lat="48.08332" lon="6.9217">
        <ele>715.84</ele>
        <time>2021-06-23T11:55:57Z</time>
      </trkpt>
      <trkpt lat="48.08312" lon="6.92284">
        <ele>711.41</ele>
        <time>2021-06-23T11:56:02Z</time>
      </trkpt>
      <trkpt lat="48.08304" lon="6.92343">
        <ele>713.32</ele>
        <time>2021-06-23T11:56:07Z</time>
      </trkpt>
      <trkpt lat="48.08303" lon="6.92397">
        <ele>714.92</ele>
        <time>2021-06-23T11:56:12Z</time>
      </trkpt>
      <trkpt lat="48.08305" lon="6.92417">
        <ele>714.97</ele>
        <time>2021-06-23T11:56:17Z</time>
      </trkpt>
      <trkpt lat="48.08312" lon="6.92452">
        <ele>715.09</ele>
        <time>2021-06-23T11:56:21Z</time>
      </trkpt>
      <trkpt lat="48.08322" lon="6.92488">
        <ele>716.48</ele>
        <time>2021-06-23T11:56:26Z</time>
      </trkpt>
      <trkpt lat="48.08365" lon="6.92602">
        <ele>720.9</ele>
        <time>2021-06-23T11:56:31Z</time>
      </trkpt>
      <trkpt lat="48.08377" lon="6.92651">
        <ele>721.84</ele>
        <time>2021-06-23T11:56:36Z</time>
      </trkpt>
      <trkpt lat="48.08385" lon="6.92705">
        <ele>723.7</ele>
        <time>2021-06-23T11:56:41Z</time>
      </trkpt>
      <trkpt lat="48.0839" lon="6.92817">
        <ele>723.16</ele>
        <time>2021-06-23T11:56:45Z</time>
      </trkpt>
      <trkpt lat="48.084" lon="6.92817">
        <ele>724.36</ele>
        <time>2021-06-23T11:56:47Z</time>
      </trkpt>
      <trkpt lat="48.08401" lon="6.92822">
        <ele>724.52</ele>
        <time>2021-06-23T11:56:56Z</time>
      </trkpt>
      <trkpt lat="48.08413" lon="6.92921">
        <ele>728.52</ele>
        <time>2021-06-23T11:57:05Z</time>
      </trkpt>
      <trkpt lat="48.08417" lon="6.93018">
        <ele>730.35</ele>
        <time>2021-06-23T11:57:14Z</time>
      </trkpt>
      <trkpt lat="48.08424" lon="6.93163">
        <ele>739.1</ele>
        <time>2021-06-23T11:57:23Z</time>
      </trkpt>
      <trkpt lat="48.08432" lon="6.9319">
        <ele>740.89</ele>
        <time>2021-06-23T11:57:32Z</time>
      </trkpt>
      <trkpt lat="48.08459" lon="6.93237">
        <ele>745.28</ele>
        <time>2021-06-23T11:57:41Z</time>
      </trkpt>
      <trkpt lat="48.08464" lon="6.93229">
        <ele>747.2</ele>
        <time>2021-06-23T11:57:45Z</time>
      </trkpt>
      <trkpt lat="48.08469" lon="6.93217">
        <ele>749.15</ele>
        <time>2021-06-23T11:57:49Z</time>
      </trkpt>
      <trkpt lat="48.08479" lon="6.93149">
        <ele>752.07</ele>
        <time>2021-06-23T11:57:53Z</time>
      </trkpt>
    </trkseg>
  </trk>
</gpx>